[[{"header":{"parameterUnit":"m.s-1","parameterCategory":1,"la1":31.0,"la2":29.5877,"lo1":-88.7671,"lo2":-86.6584,"dy":0.0162,"dx":0.0185,"nx":115,"ny":88,"refTime":"2023-11-07T06:00:00:Z","depth":0,"parameterNumber":2,"parameterNumberName":"U-component_of_WINDS"},"data":[0.0,0.0,0.0,0.0,0.0,0.0,0.0,0.0,0.0,0.0,0.0,0.0,0.0,0.0,0.0,0.0,0.0,0.0,0.0,0.0,0.0,0.0,0.0,0.0,0.0,0.0,0.0,0.0,0.0,0.0,0.0,0.0,0.0,0.0,0.0,0.0,0.0,0.0,0.0,0.0,0.0,0.0,0.0,0.0,0.0,0.0,0.0,0.0,0.0,0.0,0.0,0.0,0.0,0.0,0.0,0.0,0.0,0.0,0.0,0.0,0.0,0.0,0.0,0.0,0.0,0.0,0.0,0.0,0.0,0.0,0.0,0.0,0.0,0.0,0.0,0.0,0.0,0.0,0.0,0.0,0.0,0.0,0.0,0.0,0.0,0.0,0.0,0.0,0.0,0.0,0.0,0.0,0.0,0.0,0.0,0.0,0.0,0.0,0.0,0.0,0.0,0.0,0.0,0.0,0.0,0.0,0.0,0.0,0.0,0.0,0.0,0.0,0.0,0.0,0.0,0.0,0.0,0.0,0.0,0.0,0.0,0.0,0.0,0.0,0.0,0.0,0.0,0.0,0.0,0.0,0.0,0.0,0.0,0.0,0.0,0.0,0.0,0.0,0.0,0.0,0.0,0.0,0.0,0.0,0.0,0.0,0.0,0.0,0.0,0.0,0.0,0.0,0.0,0.0,0.0,0.0,0.0,0.0,0.0,0.0,0.0,0.0,0.0,0.0,0.0,0.0,0.0,0.0,0.0,0.0,0.0,0.0,0.0,0.0,0.0,0.0,0.0,0.0,0.0,0.0,0.0,0.0,0.0,0.0,0.0,0.0,0.0,0.0,0.0,0.0,0.0,0.0,0.0,0.0,0.0,0.0,0.0,0.0,0.0,0.0,0.0,0.0,0.0,0.0,0.0,0.0,0.0,0.0,0.0,0.0,0.0,0.0,0.0,0.0,0.0,0.0,0.0,0.0,0.0,0.0,0.0,0.0,0.0,0.0,0.0,0.0,0.0,0.0,0.0,0.0,0.0,0.0,0.0,0.0,0.0,0.0,0.0,0.0,0.0,0.0,0.0,0.0,0.0,0.0,0.0,0.0,0.0,0.0,0.0,0.0,0.0,0.0,0.0,0.0,0.0,0.0,0.0,0.0,0.0,0.0,0.0,0.0,0.0,0.0,0.0,0.0,0.0,0.0,0.0,0.0,0.0,0.0,0.0,0.0,0.0,0.0,0.0,0.0,0.0,0.0,0.0,0.0,0.0,0.0,0.0,0.0,0.0,0.0,0.0,0.0,0.0,0.0,0.0,0.0,0.0,0.0,0.0,0.0,0.0,0.0,0.0,0.0,0.0,0.0,0.0,0.0,0.0,0.0,0.0,0.0,0.0,0.0,0.0,0.0,0.0,0.0,0.0,0.0,0.0,0.0,0.0,0.0,0.0,0.0,0.0,0.0,0.0,0.0,0.0,0.0,0.0,0.0,0.0,0.0,0.0,0.0,0.0,0.0,0.0,0.0,0.0,0.0,0.0,0.0,0.0,0.0,0.0,0.0,0.0,0.0,0.0,0.0,0.0,0.0,0.0,0.0,0.0,0.0,0.0,0.0,0.0,0.0,0.0,0.0,0.0,0.0,0.0,0.0,0.0,0.0,0.0,0.0,0.0,0.0,0.0,0.0,0.0,0.0,0.0,0.0,0.0,0.0,0.0,0.0,0.0,0.0,0.0,0.0,0.0,0.0,0.0,0.0,0.0,0.0,0.0,0.0,0.0,0.0,0.0,0.0,0.0,0.0,0.0,0.0,0.0,0.0,0.0,0.0,0.0,0.0,0.0,0.0,0.0,0.0,0.0,0.0,0.0,0.0,0.0,0.0,0.0,0.0,0.0,0.0,0.0,0.0,0.0,0.0,0.0,0.0,0.0,0.0,0.0,0.0,0.0,0.0,0.0,0.0,0.0,0.0,0.0,0.0,0.0,0.0,0.0,0.0,0.0,0.0,0.0,0.0,0.0,0.0,0.0,0.0,0.0,0.0,0.0,0.0,0.0,0.0,0.0,0.0,0.0,0.0,0.0,0.0,0.0,0.0,0.0,0.0,0.0,0.0,0.0,0.0,0.0,0.0,0.0,0.0,0.0,0.0,0.0,0.0,0.0,0.0,0.0,0.0,0.0,0.0,0.0,0.0,0.0,0.0,0.0,0.0,0.0,0.0,0.0,0.0,0.0,0.0,0.0,0.0,0.0,0.0,0.0,0.0,0.0,0.0,0.0,0.0,0.0,0.0,0.0,0.0,0.0,0.0,0.0,0.0,0.0,0.0,0.0,0.0,0.0,0.0,0.0,0.0,0.0,0.0,0.0,0.0,0.0,0.0,0.0,0.0,0.0,0.0,0.0,0.0,0.0,0.0,0.0,0.0,0.0,0.0,0.0,0.0,0.0,0.0,0.0,0.0,0.0,0.0,0.0,0.0,0.0,0.0,0.0,0.0,0.0,0.0,0.0,0.0,0.0,0.0,0.0,0.0,0.0,0.0,0.0,0.0,0.0,0.0,0.0,0.0,0.0,0.0,0.0,0.0,0.0,0.0,0.0,0.0,0.0,0.0,0.0,0.0,0.0,0.0,0.0,0.0,0.0,0.0,0.0,0.0,0.0,0.0,0.0,0.0,0.0,0.0,0.0,0.0,0.0,0.0,0.0,0.0,0.0,0.0,0.0,0.0,0.0,0.0,0.0,0.0,0.0,0.0,0.0,0.0,0.0,0.0,0.0,0.0,0.0,0.0,0.0,0.0,0.0,0.0,0.0,0.0,0.0,0.0,0.0,0.0,0.0,0.0,0.0,0.0,0.0,0.0,0.0,0.0,0.0,0.0,0.0,0.0,0.0,0.0,0.0,0.0,0.0,0.0,0.0,0.0,0.0,0.0,0.0,0.0,0.0,0.0,0.0,0.0,0.0,0.0,0.0,0.0,0.0,0.0,0.0,0.0,0.0,0.0,0.0,0.0,0.0,0.0,0.0,0.0,0.0,0.0,0.0,0.0,0.0,0.0,0.0,0.0,0.0,0.0,0.0,0.0,0.0,0.0,0.0,0.0,0.0,0.0,0.0,0.0,0.0,0.0,0.0,0.0,0.0,0.0,0.0,0.0,0.0,0.0,0.0,0.0,0.0,0.0,0.0,0.0,0.0,0.0,0.0,0.0,0.0,0.0,0.0,0.0,0.0,0.0,0.0,0.0,0.0,0.0,0.0,0.0,0.0,0.0,0.0,0.0,0.0,0.0,0.0,0.0,0.0,0.0,0.0,0.0,0.0,0.0,0.0,0.0,0.0,0.0,0.0,0.0,0.0,0.0,0.0,0.0,0.0,0.0,0.0,0.0,0.0,0.0,0.0,0.0,0.0,0.0,0.0,0.0,0.0,0.0,0.0,0.0,0.0,0.0,0.0,0.0,0.0,0.0,0.0,0.0,0.0,0.0,0.0,0.0,0.0,0.0,0.0,0.0,0.0,0.0,0.0,0.0,0.0,0.0,0.0,0.0,0.0,0.0,0.0,0.0,0.0,0.0,0.0,0.0,0.0,0.0,0.0,0.0,0.0,0.0,0.0,0.0,0.0,0.0,0.0,0.0,0.0,0.0,0.0,0.0,0.0,0.0,0.0,0.0,0.0,0.0,0.0,0.0,0.0,0.0,0.0,0.0,0.0,0.0,0.0,0.0,0.0,0.0,0.0,0.0,0.0,0.0,0.0,0.0,0.0,0.0,0.0,0.0,0.0,0.0,0.0,0.0,0.0,0.0,0.0,0.0,0.0,0.0,0.0,0.0,0.0,0.0,0.0,0.0,0.0,0.0,0.0,0.0,0.0,0.0,0.0,0.0,0.0,0.0,0.0,0.0,0.0,0.0,0.0,0.0,0.0,0.0,0.0,0.0,0.0,0.0,0.0,0.0,0.0,0.0,0.0,0.0,0.0,0.0,0.0,0.0,0.0,0.0,0.0,0.0,0.0,0.0,0.0,0.0,0.0,0.0,0.0,0.0,0.0,0.0,0.0,0.0,0.0,0.0,0.0,0.0,0.0,0.0,0.0,0.0,0.0,0.0,0.0,0.0,0.0,0.0,0.0,0.0,0.0,0.0,0.0,0.0,0.0,0.0,0.0,0.0,0.0,0.0,0.0,0.0,0.0,0.0,0.0,0.0,0.0,0.0,0.0,0.0,0.0,0.0,0.0,0.0,0.0,0.0,0.0,0.0,0.0,0.0,0.0,0.0,0.0,0.0,0.0,0.0,0.0,0.0,0.0,0.0,-2.0605,0.0,0.0,0.0,0.0,0.0,0.0,0.0,0.0,0.0,0.0,0.0,0.0,0.0,0.0,0.0,0.0,0.0,0.0,0.0,0.0,0.0,0.0,0.0,0.0,0.0,0.0,0.0,0.0,0.0,0.0,0.0,0.0,0.0,0.0,0.0,0.0,0.0,0.0,0.0,0.0,0.0,0.0,0.0,0.0,0.0,0.0,0.0,0.0,0.0,0.0,0.0,0.0,0.0,0.0,0.0,0.0,0.0,0.0,0.0,0.0,0.0,0.0,0.0,0.0,0.0,0.0,0.0,0.0,0.0,0.0,0.0,0.0,0.0,0.0,0.0,0.0,0.0,0.0,0.0,0.0,0.0,0.0,0.0,0.0,0.0,0.0,0.0,0.0,0.0,0.0,0.0,0.0,0.0,0.0,0.0,0.0,0.0,0.0,0.0,0.0,0.0,0.0,0.0,0.0,0.0,0.0,0.0,0.0,0.0,0.0,-2.1016,-2.1836,-2.0605,-2.0332,-2.125,0.0,0.0,0.0,0.0,0.0,0.0,0.0,0.0,0.0,0.0,0.0,0.0,0.0,0.0,0.0,0.0,0.0,0.0,0.0,0.0,0.0,0.0,0.0,0.0,0.0,0.0,0.0,0.0,0.0,0.0,0.0,0.0,0.0,0.0,0.0,0.0,0.0,0.0,0.0,0.0,0.0,0.0,0.0,0.0,0.0,0.0,0.0,0.0,0.0,0.0,0.0,0.0,0.0,0.0,0.0,0.0,0.0,0.0,0.0,0.0,0.0,0.0,0.0,0.0,0.0,0.0,0.0,0.0,0.0,0.0,0.0,0.0,0.0,0.0,0.0,0.0,0.0,0.0,0.0,0.0,0.0,0.0,0.0,0.0,0.0,0.0,0.0,0.0,0.0,0.0,0.0,0.0,0.0,0.0,0.0,0.0,0.0,0.0,0.0,0.0,0.0,0.0,0.0,0.0,0.0,0.0,0.0,0.0,0.0,0.0,0.0,0.0,-2.0879,-2.0879,-2.2383,0.0,0.0,0.0,0.0,0.0,0.0,0.0,0.0,0.0,0.0,0.0,0.0,0.0,0.0,0.0,0.0,0.0,0.0,0.0,0.0,0.0,0.0,0.0,0.0,0.0,0.0,0.0,0.0,0.0,0.0,0.0,0.0,0.0,0.0,0.0,0.0,0.0,0.0,0.0,0.0,0.0,0.0,0.0,0.0,0.0,0.0,0.0,0.0,0.0,0.0,0.0,0.0,0.0,0.0,0.0,0.0,0.0,0.0,0.0,0.0,0.0,0.0,0.0,0.0,0.0,0.0,0.0,0.0,0.0,0.0,0.0,0.0,0.0,0.0,0.0,0.0,0.0,0.0,0.0,0.0,0.0,0.0,0.0,0.0,0.0,0.0,0.0,0.0,0.0,0.0,0.0,0.0,0.0,0.0,0.0,0.0,0.0,0.0,0.0,0.0,0.0,0.0,0.0,0.0,0.0,0.0,0.0,0.0,0.0,0.0,-2.0586,-2.2988,-2.2852,0.0,-2.4062,0.0,0.0,0.0,0.0,0.0,0.0,0.0,0.0,0.0,0.0,0.0,0.0,0.0,0.0,0.0,0.0,0.0,0.0,0.0,0.0,0.0,0.0,0.0,0.0,0.0,0.0,0.0,0.0,0.0,0.0,0.0,0.0,0.0,0.0,0.0,0.0,0.0,0.0,0.0,0.0,0.0,0.0,0.0,0.0,0.0,0.0,0.0,0.0,0.0,0.0,0.0,0.0,0.0,0.0,0.0,0.0,0.0,0.0,0.0,0.0,0.0,0.0,0.0,0.0,0.0,0.0,0.0,0.0,0.0,0.0,0.0,0.0,0.0,0.0,0.0,0.0,0.0,0.0,0.0,0.0,0.0,0.0,0.0,0.0,0.0,0.0,0.0,0.0,0.0,0.0,0.0,0.0,0.0,0.0,0.0,0.0,0.0,0.0,0.0,0.0,0.0,0.0,0.0,0.0,0.0,0.0,0.0,0.0,0.0,0.0,-2.2089,-2.3116,-2.262,-2.2499,0.0,0.0,0.0,0.0,0.0,0.0,0.0,0.0,0.0,0.0,0.0,0.0,0.0,0.0,0.0,0.0,0.0,0.0,0.0,0.0,0.0,0.0,0.0,0.0,0.0,0.0,0.0,0.0,0.0,0.0,0.0,0.0,0.0,0.0,0.0,0.0,0.0,0.0,0.0,0.0,0.0,0.0,0.0,0.0,0.0,0.0,0.0,0.0,0.0,0.0,0.0,0.0,0.0,0.0,0.0,0.0,0.0,0.0,0.0,0.0,0.0,0.0,0.0,0.0,0.0,0.0,0.0,0.0,0.0,0.0,0.0,0.0,0.0,0.0,0.0,0.0,0.0,0.0,0.0,0.0,0.0,0.0,0.0,0.0,0.0,0.0,0.0,0.0,0.0,0.0,0.0,0.0,0.0,0.0,0.0,0.0,0.0,0.0,0.0,0.0,0.0,0.0,0.0,0.0,0.0,0.0,0.0,0.0,0.0,0.0,-2.2656,-2.312,-2.371,-2.2731,-2.2132,-2.2155,0.0,0.0,0.0,0.0,0.0,0.0,0.0,0.0,0.0,0.0,0.0,0.0,0.0,0.0,0.0,0.0,0.0,0.0,0.0,0.0,0.0,0.0,0.0,0.0,0.0,0.0,0.0,0.0,0.0,0.0,0.0,0.0,0.0,0.0,0.0,0.0,0.0,0.0,0.0,0.0,0.0,0.0,0.0,0.0,0.0,0.0,0.0,0.0,0.0,0.0,0.0,0.0,0.0,0.0,0.0,0.0,0.0,0.0,0.0,0.0,0.0,0.0,0.0,0.0,0.0,0.0,0.0,0.0,0.0,0.0,0.0,0.0,0.0,0.0,0.0,0.0,0.0,0.0,0.0,0.0,0.0,0.0,0.0,0.0,0.0,0.0,0.0,0.0,0.0,0.0,0.0,0.0,0.0,0.0,0.0,0.0,0.0,0.0,0.0,0.0,0.0,0.0,0.0,0.0,0.0,0.0,0.0,0.0,-2.6269,-2.3531,-2.3056,-2.5458,-2.3871,-2.2958,0.0,0.0,0.0,0.0,0.0,0.0,0.0,0.0,0.0,0.0,0.0,0.0,0.0,0.0,0.0,0.0,0.0,0.0,0.0,0.0,0.0,0.0,0.0,0.0,0.0,0.0,0.0,0.0,0.0,0.0,0.0,0.0,0.0,0.0,0.0,0.0,0.0,0.0,0.0,0.0,0.0,0.0,0.0,0.0,0.0,0.0,0.0,0.0,0.0,0.0,0.0,0.0,0.0,0.0,0.0,0.0,0.0,0.0,0.0,0.0,0.0,0.0,0.0,0.0,0.0,0.0,0.0,0.0,0.0,0.0,0.0,0.0,0.0,0.0,0.0,0.0,0.0,0.0,0.0,0.0,0.0,0.0,0.0,0.0,0.0,0.0,0.0,0.0,0.0,0.0,0.0,0.0,0.0,0.0,0.0,0.0,0.0,0.0,0.0,0.0,0.0,0.0,0.0,0.0,0.0,0.0,0.0,0.0,0.0,-2.2793,-2.2726,-2.4121,-2.7014,-2.3442,-2.1852,0.0,0.0,0.0,0.0,0.0,0.0,0.0,0.0,0.0,0.0,0.0,0.0,0.0,0.0,0.0,0.0,0.0,0.0,0.0,0.0,0.0,0.0,0.0,0.0,0.0,0.0,0.0,0.0,0.0,0.0,0.0,0.0,0.0,0.0,0.0,0.0,0.0,0.0,0.0,0.0,0.0,0.0,0.0,0.0,0.0,0.0,0.0,0.0,0.0,0.0,0.0,0.0,0.0,0.0,0.0,0.0,0.0,0.0,0.0,0.0,0.0,0.0,0.0,0.0,0.0,0.0,0.0,0.0,0.0,0.0,0.0,0.0,0.0,0.0,0.0,0.0,0.0,0.0,0.0,0.0,0.0,0.0,0.0,0.0,0.0,0.0,0.0,0.0,0.0,0.0,0.0,0.0,0.0,0.0,0.0,0.0,0.0,0.0,0.0,0.0,0.0,0.0,0.0,0.0,0.0,0.0,0.0,0.0,0.0,-2.2244,0.0,-2.5187,-2.672,-2.3258,-2.1148,0.0,0.0,0.0,0.0,0.0,0.0,0.0,0.0,0.0,0.0,0.0,0.0,0.0,0.0,0.0,0.0,0.0,0.0,0.0,0.0,0.0,0.0,0.0,0.0,0.0,0.0,0.0,0.0,0.0,0.0,0.0,0.0,0.0,0.0,0.0,0.0,0.0,0.0,0.0,0.0,0.0,0.0,0.0,0.0,0.0,0.0,0.0,0.0,0.0,0.0,0.0,0.0,0.0,0.0,0.0,0.0,0.0,0.0,0.0,0.0,0.0,0.0,0.0,0.0,0.0,0.0,0.0,0.0,0.0,0.0,0.0,0.0,0.0,0.0,0.0,0.0,0.0,0.0,0.0,0.0,0.0,0.0,0.0,0.0,0.0,0.0,0.0,0.0,0.0,0.0,0.0,0.0,0.0,0.0,0.0,0.0,0.0,0.0,0.0,0.0,0.0,0.0,0.0,0.0,0.0,0.0,0.0,0.0,-2.305,-2.5497,-2.6338,-2.6044,-2.4559,-2.3481,-2.0999,0.0,0.0,0.0,0.0,0.0,0.0,0.0,0.0,0.0,0.0,0.0,0.0,0.0,0.0,0.0,0.0,0.0,0.0,0.0,0.0,0.0,0.0,0.0,0.0,0.0,0.0,0.0,0.0,0.0,0.0,0.0,0.0,0.0,0.0,0.0,0.0,0.0,0.0,0.0,0.0,0.0,0.0,0.0,0.0,0.0,0.0,0.0,0.0,0.0,0.0,0.0,0.0,0.0,0.0,0.0,0.0,0.0,0.0,0.0,0.0,0.0,0.0,0.0,0.0,0.0,0.0,0.0,0.0,0.0,0.0,0.0,0.0,0.0,0.0,0.0,0.0,0.0,0.0,0.0,0.0,0.0,0.0,0.0,0.0,0.0,0.0,0.0,0.0,0.0,0.0,0.0,0.0,0.0,0.0,0.0,0.0,0.0,0.0,0.0,0.0,0.0,0.0,0.0,0.0,0.0,0.0,0.0,0.0,0.0,-2.3924,-2.4743,-2.6071,-2.7753,-2.3608,-2.1763,0.0,0.0,0.0,0.0,0.0,0.0,0.0,0.0,0.0,0.0,0.0,0.0,0.0,0.0,0.0,0.0,0.0,0.0,0.0,0.0,0.0,0.0,0.0,0.0,0.0,0.0,0.0,0.0,0.0,0.0,0.0,0.0,0.0,0.0,0.0,0.0,0.0,0.0,0.0,0.0,0.0,0.0,0.0,0.0,0.0,0.0,0.0,0.0,0.0,0.0,0.0,0.0,0.0,0.0,0.0,0.0,0.0,0.0,0.0,0.0,0.0,0.0,0.0,0.0,0.0,0.0,0.0,0.0,0.0,0.0,0.0,0.0,0.0,0.0,0.0,0.0,0.0,0.0,0.0,0.0,0.0,0.0,0.0,0.0,0.0,0.0,0.0,0.0,0.0,0.0,0.0,0.0,0.0,0.0,0.0,0.0,0.0,0.0,0.0,0.0,0.0,0.0,0.0,0.0,0.0,0.0,0.0,0.0,0.0,-2.5512,-2.6286,-2.7302,-2.8521,-2.4214,-2.2275,-2.3097,0.0,0.0,0.0,0.0,0.0,0.0,0.0,0.0,0.0,0.0,0.0,0.0,0.0,0.0,0.0,0.0,0.0,0.0,0.0,0.0,0.0,0.0,0.0,0.0,0.0,0.0,0.0,0.0,0.0,0.0,0.0,0.0,0.0,0.0,0.0,0.0,0.0,0.0,0.0,0.0,0.0,0.0,0.0,0.0,0.0,0.0,0.0,0.0,0.0,0.0,0.0,0.0,0.0,0.0,0.0,0.0,0.0,0.0,0.0,0.0,0.0,0.0,0.0,0.0,0.0,0.0,0.0,0.0,0.0,0.0,0.0,0.0,0.0,0.0,0.0,0.0,0.0,0.0,0.0,0.0,0.0,0.0,0.0,0.0,0.0,0.0,0.0,0.0,0.0,0.0,0.0,0.0,0.0,0.0,0.0,0.0,0.0,0.0,0.0,0.0,0.0,0.0,0.0,0.0,0.0,0.0,0.0,0.0,-2.9299,-3.0244,-2.9616,-2.7412,-2.5346,-2.2771,0.0,0.0,0.0,0.0,0.0,0.0,0.0,0.0,0.0,0.0,0.0,0.0,0.0,0.0,0.0,0.0,0.0,0.0,0.0,0.0,0.0,0.0,0.0,0.0,0.0,0.0,0.0,0.0,0.0,0.0,0.0,0.0,0.0,0.0,0.0,0.0,0.0,0.0,0.0,0.0,0.0,0.0,0.0,0.0,0.0,0.0,0.0,0.0,0.0,0.0,0.0,0.0,0.0,0.0,0.0,0.0,0.0,0.0,0.0,0.0,0.0,0.0,0.0,0.0,0.0,0.0,0.0,0.0,0.0,0.0,0.0,0.0,0.0,0.0,0.0,0.0,0.0,0.0,0.0,0.0,0.0,0.0,0.0,0.0,0.0,0.0,0.0,0.0,0.0,0.0,0.0,0.0,0.0,0.0,0.0,0.0,0.0,0.0,0.0,0.0,0.0,0.0,0.0,0.0,0.0,0.0,0.0,0.0,0.0,-2.8399,-3.1017,-3.246,-3.2363,-2.7718,-2.5059,0.0,0.0,0.0,0.0,0.0,0.0,0.0,0.0,0.0,0.0,0.0,0.0,0.0,0.0,0.0,0.0,0.0,0.0,0.0,0.0,0.0,0.0,0.0,0.0,0.0,0.0,0.0,0.0,0.0,0.0,0.0,0.0,0.0,0.0,0.0,0.0,0.0,0.0,0.0,0.0,0.0,0.0,0.0,0.0,0.0,0.0,0.0,0.0,0.0,0.0,0.0,0.0,0.0,0.0,0.0,0.0,0.0,0.0,0.0,0.0,0.0,0.0,0.0,0.0,0.0,0.0,0.0,0.0,0.0,0.0,0.0,0.0,0.0,0.0,0.0,0.0,0.0,0.0,0.0,0.0,0.0,0.0,0.0,0.0,0.0,0.0,0.0,0.0,0.0,0.0,0.0,0.0,0.0,0.0,0.0,0.0,0.0,0.0,0.0,0.0,0.0,0.0,0.0,0.0,0.0,0.0,0.0,0.0,-2.8251,-3.0066,-3.272,-3.4212,-3.4413,-2.9967,-2.6957,0.0,0.0,0.0,0.0,0.0,0.0,0.0,0.0,0.0,0.0,0.0,0.0,0.0,0.0,0.0,0.0,0.0,0.0,0.0,0.0,0.0,0.0,0.0,0.0,0.0,0.0,0.0,0.0,0.0,0.0,0.0,0.0,0.0,0.0,0.0,0.0,0.0,0.0,0.0,0.0,0.0,0.0,0.0,0.0,0.0,0.0,0.0,0.0,0.0,0.0,0.0,0.0,0.0,0.0,0.0,0.0,0.0,0.0,0.0,0.0,0.0,0.0,0.0,0.0,0.0,0.0,0.0,0.0,0.0,0.0,0.0,0.0,0.0,0.0,0.0,0.0,0.0,0.0,0.0,0.0,0.0,0.0,0.0,0.0,0.0,0.0,0.0,0.0,0.0,0.0,0.0,0.0,0.0,0.0,0.0,0.0,0.0,0.0,0.0,0.0,0.0,0.0,0.0,0.0,0.0,0.0,0.0,0.0,-2.9691,-3.2654,-3.457,-3.5117,-3.425,-3.1586,-2.8301,0.0,0.0,0.0,0.0,0.0,0.0,0.0,0.0,0.0,0.0,0.0,0.0,0.0,0.0,0.0,0.0,0.0,0.0,0.0,0.0,0.0,0.0,0.0,0.0,0.0,0.0,0.0,0.0,0.0,0.0,0.0,0.0,0.0,0.0,0.0,0.0,0.0,0.0,0.0,0.0,0.0,0.0,0.0,0.0,0.0,0.0,0.0,0.0,0.0,0.0,0.0,0.0,0.0,0.0,0.0,0.0,0.0,0.0,0.0,0.0,0.0,0.0,0.0,0.0,0.0,0.0,0.0,0.0,0.0,0.0,0.0,0.0,0.0,0.0,0.0,0.0,0.0,0.0,0.0,0.0,0.0,0.0,0.0,0.0,0.0,0.0,0.0,0.0,0.0,0.0,0.0,0.0,0.0,0.0,0.0,0.0,0.0,0.0,0.0,0.0,0.0,0.0,0.0,0.0,0.0,0.0,0.0,0.0,-2.971,-3.0953,-3.3997,-3.5131,-3.4218,-3.0446,-2.7381,0.0,0.0,0.0,0.0,0.0,0.0,0.0,0.0,0.0,0.0,0.0,0.0,0.0,0.0,0.0,0.0,0.0,0.0,0.0,0.0,0.0,0.0,0.0,0.0,0.0,0.0,0.0,0.0,0.0,0.0,0.0,0.0,0.0,0.0,0.0,0.0,0.0,0.0,0.0,0.0,0.0,0.0,0.0,0.0,0.0,0.0,0.0,0.0,-1.9396,0.0,0.0,0.0,0.0,0.0,0.0,0.0,0.0,0.0,0.0,0.0,0.0,0.0,0.0,0.0,0.0,0.0,0.0,0.0,0.0,0.0,0.0,0.0,0.0,0.0,0.0,0.0,0.0,0.0,0.0,0.0,0.0,0.0,0.0,0.0,0.0,0.0,0.0,0.0,0.0,0.0,0.0,0.0,0.0,0.0,0.0,0.0,0.0,0.0,0.0,0.0,0.0,0.0,0.0,0.0,0.0,0.0,0.0,0.0,-3.0651,-3.2166,-3.4377,-3.475,-3.3013,-2.9698,-2.7082,0.0,0.0,0.0,0.0,0.0,0.0,0.0,0.0,0.0,0.0,0.0,0.0,0.0,0.0,0.0,0.0,0.0,0.0,0.0,0.0,0.0,0.0,0.0,0.0,0.0,0.0,0.0,0.0,0.0,0.0,0.0,0.0,0.0,0.0,0.0,0.0,0.0,0.0,0.0,0.0,0.0,0.0,0.0,0.0,0.0,0.0,0.0,0.0,0.0,0.0,0.0,0.0,0.0,0.0,0.0,0.0,0.0,0.0,0.0,0.0,0.0,0.0,0.0,0.0,0.0,0.0,0.0,0.0,0.0,0.0,0.0,0.0,0.0,0.0,0.0,0.0,0.0,0.0,0.0,0.0,0.0,0.0,0.0,0.0,0.0,0.0,0.0,0.0,0.0,0.0,0.0,0.0,0.0,0.0,0.0,0.0,0.0,0.0,0.0,0.0,0.0,0.0,0.0,0.0,0.0,0.0,0.0,-2.921,-3.159,-3.4097,-3.4931,-3.4161,-3.1756,-2.8967,-2.6813,-2.5346,0.0,0.0,0.0,0.0,0.0,0.0,0.0,0.0,0.0,0.0,0.0,0.0,0.0,0.0,0.0,0.0,0.0,0.0,0.0,0.0,0.0,0.0,0.0,0.0,0.0,0.0,0.0,0.0,0.0,0.0,0.0,0.0,0.0,0.0,0.0,0.0,0.0,0.0,-1.8797,-1.9241,0.0,0.0,0.0,0.0,0.0,0.0,0.0,0.0,-1.899,0.0,0.0,0.0,0.0,0.0,0.0,0.0,0.0,0.0,0.0,0.0,0.0,0.0,0.0,0.0,0.0,0.0,0.0,0.0,0.0,0.0,0.0,0.0,0.0,0.0,0.0,0.0,0.0,0.0,0.0,0.0,0.0,0.0,0.0,0.0,0.0,0.0,0.0,0.0,0.0,0.0,0.0,0.0,0.0,0.0,0.0,0.0,0.0,0.0,0.0,0.0,0.0,0.0,0.0,0.0,0.0,-2.8738,-2.926,-3.1037,-3.4116,-3.4388,-3.3602,-3.1679,-2.7827,-2.5596,-2.5187,0.0,0.0,0.0,0.0,0.0,0.0,0.0,0.0,0.0,0.0,0.0,0.0,0.0,0.0,0.0,0.0,0.0,0.0,0.0,0.0,0.0,0.0,0.0,0.0,0.0,0.0,0.0,0.0,0.0,0.0,0.0,0.0,0.0,0.0,0.0,0.0,0.0,0.0,0.0,-1.9905,-2.0698,0.0,0.0,0.0,0.0,0.0,0.0,0.0,0.0,-1.7929,0.0,0.0,0.0,0.0,0.0,0.0,0.0,0.0,0.0,0.0,0.0,0.0,0.0,0.0,0.0,0.0,0.0,0.0,0.0,0.0,0.0,0.0,0.0,0.0,0.0,0.0,0.0,0.0,0.0,0.0,0.0,0.0,0.0,0.0,0.0,0.0,0.0,0.0,0.0,0.0,0.0,0.0,0.0,0.0,0.0,0.0,0.0,0.0,0.0,0.0,0.0,0.0,0.0,0.0,0.0,-2.7295,-2.9433,-3.132,-3.2859,-3.3338,-3.2534,-3.0371,-2.6659,-2.4865,0.0,0.0,0.0,0.0,0.0,0.0,0.0,0.0,0.0,0.0,0.0,0.0,0.0,0.0,0.0,0.0,0.0,0.0,0.0,0.0,0.0,0.0,0.0,0.0,0.0,0.0,0.0,0.0,0.0,0.0,0.0,0.0,0.0,0.0,0.0,0.0,0.0,0.0,0.0,0.0,-2.0988,-2.1704,-2.0015,0.0,0.0,0.0,0.0,0.0,0.0,-1.9808,-1.9676,0.0,0.0,0.0,0.0,0.0,0.0,0.0,0.0,0.0,0.0,0.0,0.0,0.0,0.0,0.0,0.0,0.0,0.0,0.0,0.0,0.0,0.0,0.0,0.0,0.0,0.0,0.0,0.0,0.0,0.0,0.0,0.0,0.0,0.0,0.0,0.0,0.0,0.0,0.0,0.0,0.0,0.0,0.0,0.0,0.0,0.0,0.0,0.0,0.0,0.0,0.0,0.0,0.0,0.0,0.0,-2.6084,-2.9086,-3.1018,-3.1679,-3.216,-3.1275,-2.8876,-2.5606,-2.4221,0.0,0.0,0.0,0.0,0.0,0.0,0.0,0.0,0.0,0.0,0.0,0.0,0.0,0.0,0.0,0.0,0.0,0.0,0.0,0.0,0.0,0.0,0.0,0.0,0.0,0.0,0.0,0.0,0.0,0.0,0.0,0.0,0.0,0.0,0.0,0.0,0.0,0.0,0.0,0.0,0.0,-2.2223,-2.0421,-2.172,0.0,0.0,0.0,0.0,-2.0847,-2.1356,0.0,0.0,0.0,0.0,0.0,0.0,0.0,0.0,0.0,0.0,0.0,0.0,0.0,0.0,0.0,0.0,0.0,0.0,0.0,0.0,0.0,0.0,0.0,0.0,0.0,0.0,0.0,0.0,0.0,0.0,0.0,0.0,0.0,0.0,0.0,0.0,0.0,0.0,0.0,0.0,0.0,0.0,0.0,0.0,0.0,0.0,0.0,0.0,0.0,0.0,0.0,0.0,0.0,0.0,0.0,0.0,-2.7561,-2.7402,-2.8709,-3.1493,-3.1025,-2.9846,-2.8044,-2.4721,-2.3355,0.0,0.0,0.0,0.0,0.0,0.0,0.0,0.0,0.0,0.0,0.0,0.0,0.0,0.0,0.0,0.0,0.0,0.0,0.0,0.0,0.0,0.0,0.0,0.0,0.0,0.0,0.0,0.0,0.0,0.0,0.0,0.0,0.0,0.0,0.0,0.0,0.0,0.0,0.0,0.0,0.0,-2.2014,-1.9593,-2.1333,-2.2575,0.0,0.0,-2.0924,-2.2378,-2.211,0.0,0.0,0.0,0.0,0.0,0.0,0.0,0.0,0.0,0.0,0.0,0.0,0.0,0.0,0.0,0.0,0.0,0.0,0.0,0.0,0.0,0.0,0.0,0.0,0.0,0.0,0.0,0.0,0.0,0.0,0.0,0.0,0.0,0.0,0.0,0.0,0.0,0.0,0.0,0.0,0.0,0.0,0.0,0.0,0.0,0.0,0.0,0.0,0.0,0.0,0.0,0.0,0.0,0.0,0.0,-2.3872,-2.579,-2.6859,-2.81,-2.9473,-2.9179,-2.8409,-2.7178,-2.3361,-2.1957,0.0,0.0,0.0,0.0,0.0,0.0,0.0,0.0,0.0,0.0,0.0,0.0,0.0,0.0,0.0,0.0,0.0,0.0,0.0,0.0,0.0,0.0,0.0,0.0,0.0,0.0,0.0,0.0,0.0,0.0,0.0,0.0,0.0,0.0,0.0,0.0,0.0,0.0,0.0,0.0,0.0,0.0,-2.1391,-2.3035,0.0,0.0,0.0,-2.2803,-2.3519,0.0,0.0,0.0,0.0,0.0,0.0,0.0,0.0,0.0,0.0,0.0,0.0,0.0,0.0,0.0,0.0,0.0,0.0,0.0,0.0,0.0,0.0,0.0,0.0,0.0,0.0,0.0,0.0,0.0,0.0,0.0,0.0,0.0,0.0,0.0,0.0,0.0,0.0,0.0,0.0,0.0,0.0,0.0,0.0,0.0,0.0,0.0,0.0,0.0,0.0,0.0,0.0,0.0,0.0,0.0,0.0,0.0,-2.4854,-2.6446,-2.7351,-2.7563,-2.7577,-2.7058,-2.5937,-2.2617,0.0,0.0,0.0,0.0,0.0,0.0,0.0,0.0,0.0,0.0,0.0,0.0,0.0,0.0,0.0,0.0,0.0,0.0,0.0,0.0,0.0,0.0,0.0,0.0,0.0,0.0,0.0,-1.6357,0.0,0.0,0.0,0.0,0.0,0.0,0.0,0.0,0.0,0.0,0.0,0.0,0.0,0.0,-2.3155,-2.2942,-2.4196,-2.4718,0.0,0.0,-2.4292,-2.4501,-2.435,-2.399,0.0,0.0,0.0,0.0,0.0,0.0,0.0,0.0,0.0,0.0,0.0,0.0,0.0,0.0,0.0,0.0,0.0,0.0,0.0,0.0,0.0,0.0,0.0,0.0,0.0,0.0,0.0,0.0,0.0,0.0,0.0,0.0,0.0,0.0,0.0,0.0,0.0,0.0,0.0,0.0,0.0,0.0,0.0,0.0,0.0,0.0,0.0,0.0,0.0,0.0,0.0,0.0,0.0,0.0,0.0,-2.654,-2.5867,-2.5885,-2.6659,-2.6696,-2.5878,-2.4226,-2.3108,-2.2211,0.0,0.0,0.0,0.0,0.0,0.0,0.0,0.0,0.0,0.0,0.0,0.0,0.0,0.0,0.0,0.0,0.0,0.0,0.0,0.0,0.0,0.0,0.0,0.0,0.0,0.0,0.0,0.0,0.0,0.0,0.0,0.0,0.0,0.0,0.0,0.0,0.0,0.0,0.0,0.0,0.0,-2.3828,-2.3019,-2.3697,-2.4234,0.0,0.0,-2.4486,-2.5275,-2.4737,-2.4168,-2.4125,0.0,0.0,0.0,0.0,0.0,0.0,0.0,0.0,0.0,0.0,0.0,0.0,0.0,0.0,0.0,0.0,0.0,0.0,0.0,0.0,0.0,0.0,0.0,0.0,0.0,0.0,0.0,0.0,0.0,0.0,0.0,0.0,0.0,0.0,0.0,0.0,0.0,0.0,0.0,0.0,0.0,0.0,0.0,0.0,0.0,0.0,0.0,0.0,0.0,0.0,0.0,0.0,0.0,-2.4304,-2.5952,-2.505,-2.5206,-2.6523,-2.6049,-2.5194,-2.4029,-2.2178,-2.077,0.0,0.0,0.0,0.0,0.0,0.0,0.0,0.0,0.0,0.0,0.0,0.0,0.0,0.0,0.0,0.0,0.0,0.0,0.0,0.0,0.0,0.0,0.0,0.0,0.0,0.0,0.0,0.0,-1.4662,-1.5341,-1.515,0.0,0.0,0.0,0.0,0.0,0.0,0.0,0.0,0.0,0.0,-2.3677,-2.4409,-2.4792,0.0,0.0,-2.543,-2.5681,-2.5507,-2.5221,-2.4826,-2.43,-2.3925,0.0,0.0,0.0,0.0,0.0,0.0,0.0,0.0,0.0,0.0,0.0,0.0,0.0,0.0,0.0,0.0,0.0,0.0,0.0,0.0,0.0,0.0,0.0,0.0,0.0,0.0,0.0,0.0,0.0,0.0,0.0,0.0,0.0,0.0,0.0,0.0,0.0,0.0,0.0,0.0,0.0,0.0,0.0,0.0,0.0,0.0,0.0,0.0,0.0,0.0,0.0,0.0,-2.436,-2.5504,-2.4871,-2.5072,-2.6217,-2.5576,-2.4701,-2.362,-2.1847,-2.0398,0.0,0.0,0.0,0.0,0.0,0.0,0.0,0.0,0.0,0.0,0.0,0.0,0.0,0.0,0.0,0.0,0.0,0.0,0.0,0.0,0.0,0.0,0.0,0.0,0.0,0.0,0.0,0.0,-1.5564,-1.6476,-1.7296,0.0,0.0,0.0,0.0,0.0,0.0,0.0,0.0,0.0,0.0,-2.4118,-2.5333,-2.5507,-2.5507,-2.5507,-2.599,-2.6126,-2.5569,-2.5275,-2.4903,-2.4303,0.0,0.0,0.0,0.0,0.0,0.0,0.0,0.0,0.0,0.0,0.0,0.0,0.0,0.0,0.0,0.0,0.0,0.0,0.0,0.0,0.0,0.0,0.0,0.0,0.0,0.0,0.0,0.0,0.0,0.0,-2.5693,0.0,0.0,0.0,0.0,0.0,0.0,0.0,0.0,0.0,0.0,0.0,0.0,0.0,0.0,0.0,0.0,0.0,0.0,0.0,0.0,0.0,0.0,-2.553,-2.5608,-2.547,-2.5437,-2.5444,-2.5326,-2.4485,-2.2824,-2.2597,-2.176,-2.0102,0.0,0.0,0.0,0.0,0.0,0.0,0.0,0.0,0.0,0.0,0.0,0.0,0.0,0.0,0.0,0.0,0.0,0.0,0.0,0.0,0.0,0.0,0.0,0.0,0.0,0.0,-2.1402,-1.9321,-1.8197,0.0,0.0,0.0,0.0,0.0,0.0,0.0,0.0,0.0,0.0,-2.4911,-2.5449,-2.5488,-2.5507,-2.5507,-2.5507,-2.5507,-2.555,-2.5507,-2.4795,-2.4226,0.0,0.0,0.0,0.0,0.0,0.0,0.0,0.0,0.0,0.0,0.0,0.0,0.0,0.0,0.0,0.0,0.0,0.0,0.0,0.0,0.0,0.0,0.0,0.0,0.0,0.0,0.0,-2.6498,-2.6496,0.0,0.0,0.0,0.0,0.0,0.0,0.0,0.0,0.0,0.0,0.0,-2.7268,-2.7268,0.0,0.0,0.0,0.0,0.0,0.0,0.0,0.0,0.0,0.0,0.0,0.0,-2.5068,-2.5554,-2.5007,-2.4904,-2.5315,-2.5361,-2.4525,-2.2772,-2.2157,-2.1099,-1.9415,0.0,0.0,0.0,0.0,0.0,0.0,0.0,0.0,0.0,0.0,0.0,0.0,0.0,0.0,0.0,0.0,0.0,0.0,0.0,0.0,0.0,0.0,0.0,0.0,0.0,-2.2674,0.0,0.0,0.0,0.0,0.0,0.0,0.0,0.0,0.0,0.0,0.0,-2.4428,-2.4989,-2.5318,-2.5507,-2.5507,-2.5507,-2.5507,0.0,0.0,0.0,0.0,0.0,0.0,0.0,0.0,0.0,0.0,0.0,0.0,0.0,0.0,-2.6385,-2.526,-2.5066,-2.5047,-2.5062,0.0,0.0,0.0,0.0,0.0,0.0,0.0,0.0,0.0,0.0,0.0,0.0,0.0,0.0,-2.7184,0.0,-2.7157,0.0,0.0,0.0,0.0,0.0,0.0,0.0,0.0,-2.7872,-2.8445,-2.8965,-2.8676,-2.8074,0.0,-2.7235,-2.635,0.0,0.0,0.0,0.0,0.0,0.0,0.0,0.0,-2.496,-2.5158,-2.4922,-2.4974,-2.5348,-2.5418,-2.4583,-2.2816,-2.1659,-2.0558,-1.951,-1.9468,-2.0022,0.0,0.0,0.0,0.0,0.0,0.0,0.0,0.0,0.0,0.0,0.0,0.0,0.0,0.0,0.0,0.0,0.0,0.0,0.0,0.0,0.0,0.0,0.0,-2.4795,0.0,0.0,0.0,0.0,0.0,0.0,0.0,0.0,0.0,-2.5705,-2.5556,-2.5772,-2.6331,-2.6408,-2.6389,-2.6408,0.0,0.0,0.0,0.0,0.0,0.0,0.0,-2.6605,-2.7152,-2.7249,-2.7614,-2.8683,-2.8885,-2.8885,-2.8931,0.0,0.0,-2.6559,-2.6362,-2.6381,-2.6362,-2.6362,-2.6381,-2.6385,-2.6362,-2.6188,0.0,0.0,0.0,0.0,0.0,0.0,0.0,0.0,-2.6974,-2.7944,0.0,-2.7792,0.0,0.0,0.0,0.0,0.0,-2.7314,0.0,0.0,-2.9851,-3.0679,-3.0704,-2.9838,-2.8916,-2.8121,-2.8055,-2.7121,-2.5456,-2.4656,0.0,0.0,0.0,0.0,0.0,0.0,-2.529,-2.453,-2.527,-2.5637,-2.5504,-2.5504,-2.4681,-2.2949,-2.1193,-2.0315,-2.0392,-2.0315,-2.0369,-2.0495,-2.132,0.0,0.0,0.0,0.0,0.0,0.0,0.0,0.0,0.0,0.0,0.0,0.0,0.0,0.0,0.0,0.0,0.0,0.0,0.0,0.0,-2.7874,0.0,0.0,0.0,0.0,0.0,0.0,0.0,0.0,0.0,0.0,-2.8304,-2.8139,-2.8094,-2.8074,0.0,0.0,0.0,0.0,-2.8094,-2.8071,-2.8093,-2.8082,-2.8082,-2.8137,-2.8162,-2.8124,0.0,0.0,-2.8262,-2.8256,-2.8349,-2.8262,-2.8332,-2.8163,-2.8109,-2.798,-2.7937,-2.7937,-2.7898,-2.7995,-2.7995,-2.7845,-2.7415,-3.2893,0.0,0.0,0.0,0.0,-3.0177,-3.0804,-3.1197,-3.1207,-3.1198,-3.1107,-3.0035,0.0,0.0,0.0,0.0,0.0,0.0,-2.9582,-3.0732,-3.1241,-3.1815,-3.2462,-3.1482,-3.0598,-2.9842,-2.909,-2.7853,-2.6189,-2.5321,-2.4975,-2.5084,0.0,0.0,0.0,0.0,-2.5582,-2.5348,-2.5582,-2.5637,-2.5504,-2.5583,-2.4786,-2.3004,-2.1878,-2.1,-2.0421,-2.0382,-2.0969,-2.2185,-2.2498,0.0,0.0,0.0,0.0,0.0,0.0,0.0,0.0,0.0,0.0,0.0,0.0,0.0,0.0,0.0,0.0,0.0,0.0,0.0,-2.9791,-2.9963,-2.9986,0.0,0.0,0.0,0.0,0.0,0.0,0.0,0.0,0.0,-3.1854,-2.9691,-2.8174,0.0,0.0,-2.8174,-2.8174,-2.814,-2.8115,-2.8115,-2.8129,0.0,-2.8163,-2.8204,-2.8384,-2.8938,-3.0047,-3.0876,-3.0882,-3.0872,-3.0884,-3.0837,-3.0383,-2.9942,-2.985,-2.8892,-2.8156,-2.8078,-2.8059,-2.8059,-2.8059,-2.8059,-2.7764,-3.6553,-3.3168,-3.2916,-3.2622,-3.2422,-3.3237,-3.3566,-3.3548,-3.3558,-3.3498,-3.3324,-3.2186,-3.127,-3.0603,-2.984,0.0,0.0,0.0,-3.1555,-3.289,-3.3199,-3.3669,-3.4175,-3.3267,-3.2561,-3.2028,-3.0741,-2.9365,-2.7965,-2.7089,-2.6531,-2.628,0.0,0.0,-2.4956,-2.541,-2.5457,-2.5165,-2.5513,-2.5667,-2.5578,-2.5314,-2.4501,-2.3095,-2.2163,-2.1298,-2.0463,-2.0733,-2.1388,-2.2446,-2.315,-2.3974,0.0,0.0,0.0,0.0,0.0,0.0,0.0,0.0,0.0,0.0,0.0,-2.9461,-2.9969,0.0,0.0,0.0,-3.0798,-3.0821,-3.0863,-3.0822,0.0,0.0,0.0,0.0,0.0,0.0,0.0,-3.236,-3.2416,-3.2412,-3.2373,-3.0582,-2.939,-2.9691,-2.9749,-2.9749,-2.9749,0.0,-2.9293,-2.9639,-2.9416,-2.9242,-2.923,-2.9238,-2.9394,-2.9857,-3.0803,-3.1488,-3.1517,-3.1511,-3.153,-3.1459,-3.1106,-3.0733,-3.073,-2.9862,-2.9159,-2.9135,-2.9128,-2.9128,-2.9128,-2.9128,-2.8876,-3.9652,-3.8145,-3.7417,-3.6557,-3.5771,-3.6551,-3.6151,-3.4904,-3.4854,-3.5212,-3.5766,-3.4272,-3.3973,-3.4482,-3.2861,0.0,-3.2237,-3.303,-3.3911,-3.4812,-3.5503,-3.5873,-3.593,-3.4937,-3.4432,-3.4284,-3.2653,-3.1378,-3.0411,-2.9535,-2.8688,-2.7854,-2.5564,-2.4396,-2.4474,-2.5273,-2.531,-2.4558,-2.5366,-2.5755,-2.5675,-2.4916,-2.4057,-2.3123,-2.2252,-2.143,-2.0648,-2.1313,-2.1775,-2.1949,-2.3453,-2.4322,-2.4418,0.0,0.0,0.0,0.0,0.0,0.0,0.0,0.0,0.0,0.0,0.0,0.0,0.0,0.0,0.0,-3.1204,0.0,-3.121,-3.1209,0.0,0.0,0.0,-3.1305,-3.1307,-3.125,-3.119,-3.121,0.0,0.0,-3.1093,-3.1093,-3.1325,-3.2017,-3.2054,-3.2014,-3.1995,-3.1217,-3.1102,-3.1681,-3.1276,-3.0769,-3.0623,-3.0642,-3.0638,-3.0703,-3.0784,-3.0845,-3.0847,-3.0825,-3.0806,-3.0847,-3.0786,-3.0786,-3.0789,-3.0728,-3.0794,-3.063,-3.063,-3.0646,-3.0587,-3.0568,-3.028,-4.2859,-4.2556,-4.2384,-4.0734,-3.8308,-3.9127,-3.9394,-3.9146,-3.8489,-3.7992,-3.7525,-3.6501,-3.5804,-3.5377,-3.4955,-3.5104,-3.5704,-3.5916,-3.6483,-3.7268,-3.6894,-3.6755,-3.6744,-3.5176,-3.4426,-3.4372,-3.3221,-3.2499,-3.2218,-3.1338,-3.0452,-2.9587,-2.8449,-2.76,-2.7097,-2.7352,-2.7079,-2.6286,-2.6492,-2.6275,-2.5637,-2.542,-2.4591,-2.3057,-2.2795,-2.2291,-2.1452,-2.1588,-2.2319,-2.3605,-2.4073,-2.4612,-2.5265,-2.6123,0.0,0.0,0.0,0.0,0.0,0.0,0.0,0.0,0.0,-3.1984,-3.2662,0.0,-3.3984,0.0,-3.4761,-3.4761,-3.4773,-3.4754,0.0,0.0,-3.4774,-3.4797,-3.4781,-3.4197,-3.3806,-3.3799,-3.3213,-3.2806,-3.281,-3.2811,-3.2656,-3.2245,-3.1578,-3.1185,-3.1168,-3.0972,-3.0874,-3.1088,-3.0972,-3.0795,-3.0804,-3.08,-3.08,-3.0796,-3.0792,-3.0789,-3.0789,-3.0791,-3.0791,-3.0791,-3.0791,-3.0791,-3.0789,-3.0789,-3.0788,-3.0778,-3.0772,-3.0784,-3.0781,-3.0764,-3.0511,-4.3727,-4.3561,-4.3943,-4.3078,-4.1535,-4.2054,-4.1925,-4.1333,-4.0884,-4.0195,-3.9323,-3.8849,-3.7967,-3.6864,-3.7212,-3.7624,-3.8044,-3.8063,-3.8334,-3.8746,-3.8338,-3.7788,-3.7061,-3.6075,-3.5414,-3.5002,-3.4076,-3.3589,-3.3475,-3.2633,-3.1981,-3.1468,-3.0684,-3.011,-2.9718,-2.8653,-2.7873,-2.7439,-2.7089,-2.6667,-2.6186,-2.5792,-2.496,-2.3636,-2.3586,-2.3176,-2.2329,-2.2635,-2.3314,-2.4271,-2.4998,-2.5612,-2.613,-2.6948,-2.7576,0.0,0.0,0.0,0.0,0.0,0.0,0.0,0.0,0.0,0.0,0.0,-3.4657,-3.4807,-3.485,-3.4848,-3.4843,-3.4843,-3.485,-3.4847,-3.4479,-3.4267,-3.425,-3.3491,-3.2981,-3.2967,-3.2536,-3.2248,-3.2238,-3.2259,-3.2106,-3.166,-3.1191,-3.1034,-3.1328,-3.1113,-3.0957,-3.1308,-3.1074,-3.0839,-3.085,-3.0848,-3.0848,-3.0848,-3.0828,-3.0848,-3.0848,-3.0828,-3.0848,-3.0848,-3.0848,-3.0848,-3.0848,-3.0828,-3.0828,-3.0827,-3.0838,-3.0843,-3.0794,-3.0792,-3.0638,-4.362,-4.3226,-4.3953,-4.4434,-4.4672,-4.4737,-4.3918,-4.2524,-4.2455,-4.1883,-4.0951,-4.0951,-4.0113,-3.8754,-3.9481,-3.9829,-3.9829,-3.9829,-3.9777,-3.9673,-3.9633,-3.8811,-3.7458,-3.7331,-3.6805,-3.5873,-3.517,-3.4706,-3.4463,-3.3751,-3.3364,-3.3229,-3.2518,-3.2118,-3.1976,-2.9891,-2.8608,-2.8275,-2.7581,-2.7232,-2.7208,-2.6371,-2.544,-2.4521,-2.4339,-2.3882,-2.3056,-2.3812,-2.4339,-2.4484,-2.5957,-2.6802,-2.6854,-2.7828,-2.9061,0.0,-3.0224,0.0,0.0,0.0,0.0,0.0,0.0,0.0,0.0,-3.4709,-3.4494,-3.3797,-3.3721,-3.3739,-3.3719,-3.3641,-3.3571,-3.3529,-3.2775,-3.2271,-3.2253,-3.1496,-3.0966,-3.0967,-3.0885,-3.0794,-3.0864,-3.0789,-3.0833,-3.0917,-3.0918,-3.1113,-3.1677,-3.1303,-3.1128,-3.1853,-3.1366,-3.0898,-3.0897,-3.0915,-3.0896,-3.0915,-3.0915,-3.0915,-3.0915,-3.0915,-3.0915,-3.0915,-3.0895,-3.0915,-3.0895,-3.0915,-3.0915,-3.0915,-3.0895,-3.0873,-3.0825,-3.0803,-3.0804,-4.4829,-4.493,-4.5084,-4.5295,-4.5555,-4.5628,-4.5116,-4.4178,-4.3485,-4.2676,-4.1796,-4.1764,-4.1583,-4.1293,-4.1448,-4.1525,-4.1525,-4.1525,-4.1189,-4.0544,-3.9898,-3.9479,-3.9175,-3.8533,-3.7767,-3.692,-3.6654,-3.6168,-3.5424,-3.5248,-3.4767,-3.41,-3.4011,-3.3627,-3.2993,0.0,0.0,0.0,-2.9094,-2.8971,-2.8909,-2.8065,-2.6883,-2.5347,-2.4587,0.0,-2.3007,-2.374,-2.4529,-2.5263,-2.6246,0.0,0.0,0.0,0.0,0.0,0.0,0.0,0.0,0.0,0.0,0.0,-3.5325,-3.5477,-3.4714,-3.524,-3.5619,-3.5516,-3.5516,-3.5474,-3.5405,-3.4842,-3.4437,-3.441,-3.3661,-3.3155,-3.311,-3.2376,-3.1864,-3.1854,-3.1241,-3.0786,-3.0792,-3.08,-3.0806,-3.0813,-3.0814,-3.0869,-3.1037,-3.0988,-3.0933,-3.1009,-3.0955,-3.0918,-3.0918,-3.0917,-3.0918,-3.0918,-3.0918,-3.0918,-3.0918,-3.0918,-3.0918,-3.0918,-3.0918,-3.0918,-3.0918,-3.0918,-3.0918,-3.0918,-3.0918,-3.0878,-3.0874,-3.0872,-3.0873,-4.5121,0.0,-4.541,-4.5554,0.0,-4.5841,-4.5628,-4.5183,-4.4375,-4.3524,-4.2667,-4.3092,-4.3053,-4.2647,-4.2647,-4.2415,-4.199,-4.199,-4.1563,-4.0793,-4.0398,-4.0036,-3.9688,-3.9299,-3.8675,-3.7854,-3.7767,-3.7516,-3.7062,-3.6616,-3.6153,-3.571,-3.4947,-3.4147,-3.3297,-3.2505,-3.1673,-3.0786,-2.9936,-2.928,-2.8799,-2.7935,-2.684,-2.556,-2.5071,0.0,0.0,0.0,0.0,0.0,0.0,0.0,0.0,-3.0171,0.0,-3.0771,-3.2702,-3.3736,-3.3366,-3.4455,-3.515,-3.5138,-3.5546,-3.5442,-3.4659,-3.5388,-3.5744,-3.5356,-3.5693,-3.5926,-3.588,-3.551,-3.513,-3.4735,-3.3924,-3.3261,-3.2752,-3.1994,-3.1461,-3.1415,-3.1093,-3.0795,-3.0783,-3.0788,-3.0795,-3.0784,-3.0786,-3.0801,-3.0791,-3.0837,-3.0843,-3.0803,-3.0829,-3.0854,-3.0853,-3.0855,-3.0857,-3.0857,-3.0878,-3.0898,-3.0918,-3.0918,-3.0918,-3.0918,-3.0918,-3.0918,-3.0918,-3.0918,-3.0918,-3.0918,-3.0918,-3.0918,-3.0917,-3.0917,-3.0917,-4.5132,-4.541,-4.5419,-4.558,-4.5807,-4.5807,-4.5807,-4.5768,0.0,0.0,0.0,-4.4284,-4.4207,-4.3556,-4.3537,-4.3053,-4.2241,-4.2235,-4.173,-4.0848,-4.0878,-4.0574,-3.9953,-4.0004,-3.9571,-3.8733,-3.8578,-3.8519,-3.8461,-3.7487,-3.7058,-3.7038,-3.5616,-3.4489,-3.3768,-3.2262,-3.1834,-3.2416,-3.0839,-2.9599,-2.8877,-2.7971,-2.699,-2.6004,-2.5816,-2.5605,-2.5316,-2.6252,-2.6792,-2.6857,-2.8609,-2.9637,-2.9675,-3.1266,-3.2213,-3.2255,-3.304,-3.3821,-3.4524,-3.4684,-3.5041,-3.5756,-3.5795,-3.5516,-3.4858,-3.5489,-3.5605,-3.4895,-3.5491,-3.5889,-3.5889,-3.5733,-3.5354,-3.4536,-3.37,-3.2822,-3.1985,-3.1264,-3.0845,-3.0786,-3.0821,-3.0791,-3.0792,-3.0798,-3.0801,-3.0792,-3.0795,-3.0792,-3.0798,-3.0798,-3.0806,-3.0795,-3.0801,-3.0801,-3.0801,-3.0788,-3.0794,-3.0793,-3.0856,-3.0878,-3.0878,-3.0878,-3.0878,-3.0859,-3.0879,-3.0898,-3.0918,-3.0918,-3.0879,-3.0879,-3.0878,-3.0878,-3.0878,-3.0879,-3.0898,-4.5258,-4.541,-4.55,-4.5661,-4.5807,-4.5807,-4.5807,-4.5787,-4.5678,-4.5188,-4.442,-4.4555,-4.4516,-4.442,-4.4427,-4.3936,-4.315,-4.3169,-4.2374,-4.0898,-4.0967,-4.0968,-4.0906,-4.0912,-4.0467,-3.9607,-3.887,-3.8519,-3.8344,-3.6902,-3.6434,-3.7019,-3.622,-3.5616,-3.546,-3.4564,-3.4125,-3.4218,-3.2603,-3.1646,-3.1465,-3.0603,-2.9397,-2.7882,-2.7029,-2.5932,-2.4545,-2.5936,-2.6738,-2.6853,-2.9182,-3.0517,-3.057,-3.2089,-3.3068,-3.316,-3.3891,-3.4388,-3.4521,-3.5197,-3.5659,-3.5795,-3.5795,-3.5745,-3.5652,-3.5797,-3.5833,-3.571,-3.5803,-3.5889,-3.585,-3.5265,-3.4569,-3.3734,-3.2844,-3.1969,-3.1239,-3.0973,-3.0858,-3.0862,-3.0801,-3.0786,-3.0802,-3.079,-3.0794,-3.0792,-3.0798,-3.0794,-3.08,-3.0786,-3.0785,-3.0796,-3.08,-3.0799,-3.0794,-3.0795,-3.0799,-3.0798,-3.08,-3.0824,-3.0808,-3.0809,-3.0811,-3.0816,-3.0817,-3.0838,-3.0898,-3.0918,-3.0879,-3.0838,-3.0858,-3.0878,-3.0816,-3.0877,-3.0918,-4.5279,-4.5419,-4.5545,-4.5677,-4.5807,-4.5807,-4.5807,-4.5807,-4.5807,-4.5594,-4.5278,-4.5239,-4.5239,-4.5258,-4.5258,-4.4543,-4.3305,-4.3369,-4.2496,-4.0966,-4.0956,-4.1034,-4.1088,-4.1107,-4.0896,-4.0487,-4.0117,-3.9902,-3.9805,-3.8617,-3.7993,-3.7756,-3.566,-3.4736,-3.5048,-3.3397,-3.2931,-3.3789,-3.3083,-3.2247,-3.1339,-3.0872,-2.9846,-2.8196,-2.7737,-2.7219,-2.6414,-2.755,-2.8223,-2.8219,-3.024,-3.1186,-3.0771,-3.2305,-3.3047,-3.2667,-3.3398,-3.4035,-3.4462,-3.5313,-3.5795,-3.5795,-3.5795,-3.5799,-3.5788,-3.5864,-3.5691,-3.5292,-3.5605,-3.5889,-3.5889,-3.5541,-3.4973,-3.4138,-3.3673,-3.3108,-3.2345,-3.1744,-3.1493,-3.1468,-3.1074,-3.0804,-3.0789,-3.0795,-3.0798,-3.0791,-3.0798,-3.0795,-3.0801,-3.0791,-3.0802,-3.079,-3.0792,-3.0792,-3.079,-3.0799,-3.0785,-3.0785,-3.0792,-3.0798,-3.08,-3.08,-3.0783,-3.0788,-3.079,-3.0811,-3.0834,-3.084,-3.0832,-3.0811,-3.0829,-3.0829,-3.0811,-3.0855,-3.0897,-4.533,-4.5447,-4.5588,-4.57,-4.58,-4.5807,-4.5807,-4.5807,-4.5807,-4.5807,-4.5807,-4.5807,-4.5814,-4.5827,-4.5814,-4.5001,-4.3744,-4.3664,-4.2901,-4.1592,-4.1567,-4.161,-4.1611,-4.1477,-4.1361,-4.1302,-4.101,-4.0916,-4.0951,-4.0019,-3.9159,-3.8282,-3.5762,-3.4692,-3.5123,-3.3335,-3.2881,-3.3743,-3.3953,-3.3165,-3.1331,-3.1053,-3.0206,-2.8819,-2.8557,-2.8382,-2.8184,-2.8987,-2.9447,-2.9483,-3.1061,-3.1705,-3.1125,-3.2458,-3.3083,-3.2683,-3.3195,-3.3934,-3.4734,-3.541,-3.5795,-3.5795,-3.5795,-3.5799,-3.5807,-3.5861,-3.5648,-3.5087,-3.556,-3.5889,-3.5889,-3.5869,-3.5558,-3.4739,-3.4603,-3.4155,-3.3456,-3.2793,-3.2384,-3.2306,-3.1622,-3.1113,-3.1074,-3.0918,-3.0801,-3.0801,-3.0801,-3.0801,-3.0801,-3.0801,-3.0801,-3.0801,-3.0801,-3.0784,-3.0801,-3.0798,-3.0788,-3.079,-3.0801,-3.0786,-3.0788,-3.0789,-3.0794,-3.0794,-3.0796,-3.0799,-3.08,-3.0801,-3.08,-3.0798,-3.0798,-3.08,-3.0789,-3.0831,-3.0894,-4.5456,-4.5596,-4.5715,-4.5793,-4.5807,-4.5807,-4.5807,-4.5807,-4.5807,-4.5807,-4.5807,-4.5807,-4.5841,-4.5867,-4.5822,-4.5338,-4.4562,-4.458,-4.4049,-4.3268,-4.3327,-4.3364,-4.3211,-4.2549,-4.2198,-4.1984,-4.0737,-4.0467,-4.0916,-3.9396,-3.8597,-3.8494,-3.8095,-3.7416,-3.6926,-3.7214,-3.6822,-3.5519,-3.6256,-3.5456,-3.3087,-3.2246,-3.1427,-3.0474,-2.975,-2.8994,-2.834,-2.8968,-2.941,-2.952,-3.1073,-3.1981,-3.1944,-3.2769,-3.3596,-3.4197,-3.4338,-3.4773,-3.5562,-3.5756,-3.5795,-3.5795,-3.5795,-3.5803,-3.5803,-3.5849,-3.5882,-3.5772,-3.5836,-3.5889,-3.5889,-3.5889,-3.5558,-3.4859,-3.47,-3.4274,-3.367,-3.3339,-3.3281,-3.3281,-3.2462,-3.1975,-3.1819,-3.1271,-3.0821,-3.0801,-3.0801,-3.0801,-3.0801,-3.0801,-3.0801,-3.0801,-3.0801,-3.0801,-3.0801,-3.0801,-3.0789,-3.0789,-3.0789,-3.0793,-3.0795,-3.0795,-3.0795,-3.0798,-3.0799,-3.0785,-3.0794,-3.08,-3.0795,-3.0785,-3.0789,-3.08,-3.0787,-3.0807,-3.0828,-4.5475,-4.5613,-4.5737,-4.5807,-4.5807,-4.5807,-4.5807,-4.5807,-4.5807,-4.5808,-4.5867,-4.5867,-4.5867,-4.5892,-4.5917,-4.5475,-4.4741,-4.4739,-4.4296,-4.3543,-4.3557,-4.362,-4.3562,-4.327,-4.2822,-4.2315,-4.1575,-4.0951,-4.0114,-3.8558,-3.7974,-3.8299,-3.7451,-3.6911,-3.7043,-3.6881,-3.6401,-3.5741,-3.6051,-3.5707,-3.4662,-3.3378,-3.2317,-3.1492,-3.0655,-3.0066,-2.9771,-3.0017,-3.0178,-3.0233,-3.1333,-3.1767,-3.1261,-3.2062,-3.2688,-3.3075,-3.4,-3.4653,-3.5022,-3.5507,-3.5795,-3.5795,-3.5795,-3.5803,-3.5803,-3.5868,-3.5885,-3.5898,-3.5897,-3.5889,-3.5889,-3.5889,-3.5752,-3.5421,-3.5363,-3.521,-3.4934,-3.4408,-3.4099,-3.4021,-3.293,-3.2111,-3.1975,-3.1349,-3.086,-3.0801,-3.0801,-3.0801,-3.0801,-3.0801,-3.0801,-3.0801,-3.0801,-3.0801,-3.0801,-3.0801,-3.0801,-3.0801,-3.0801,-3.0801,-3.0801,-3.0801,-3.0786,-3.0795,-3.0798,-3.0802,-3.0786,-3.079,-3.0786,-3.0802,-3.0788,-3.0803,-3.0792,-3.0795,-3.08,-4.5429,-4.5554,-4.5692,-4.5759,-4.5807,-4.5807,-4.5807,-4.5807,-4.5807,-4.5828,-4.5892,-4.591,-4.5947,-4.5944,-4.5991,-4.5657,-4.5148,-4.5146,-4.4829,-4.4249,-4.4269,-4.4322,-4.4302,-4.403,-4.3643,-4.3039,-4.251,-4.1419,-3.9786,-3.8324,-3.7876,-3.8198,-3.7144,-3.6688,-3.7033,-3.6769,-3.6367,-3.5806,-3.6102,-3.6179,-3.557,-3.4299,-3.3172,-3.2327,-3.1281,-3.0695,-3.0695,-3.0704,-3.0697,-3.0713,-3.1317,-3.1355,-3.0791,-3.1527,-3.2207,-3.273,-3.3798,-3.4614,-3.4832,-3.5445,-3.5795,-3.5795,-3.5795,-3.5807,-3.5834,-3.5872,-3.5892,-3.5891,-3.5883,-3.5889,-3.5889,-3.5889,-3.5889,-3.5889,-3.5889,-3.5889,-3.5811,-3.5285,-3.4856,-3.4525,-3.3339,-3.2209,-3.178,-3.1193,-3.0801,-3.0801,-3.0801,-3.0801,-3.0801,-3.0801,-3.0801,-3.0801,-3.0801,-3.0801,-3.0801,-3.0801,-3.0801,-3.0801,-3.0801,-3.0801,-3.0801,-3.0801,-3.0801,-3.0789,-3.0801,-3.0801,-3.0791,-3.0786,-3.0801,-3.0804,-3.0791,-3.0784,-3.0799,-3.0785,-3.0792,-4.529,-4.5438,-4.5535,-4.5685,-4.5807,-4.5807,-4.5807,-4.5807,-4.5807,-4.5848,-4.5917,-4.5969,-4.6022,-4.6084,-4.6027,-4.6032,-4.6011,-4.5981,-4.5927,-4.583,-4.5947,-4.604,-4.604,-4.5244,-4.4793,-4.4442,-4.3195,-4.1633,-3.9958,-3.8889,-3.8461,-3.8513,-3.8311,-3.7838,-3.7514,-3.8551,-3.8088,-3.6173,-3.7138,-3.7246,-3.5804,-3.4856,-3.3968,-3.3102,-3.1564,-3.0769,-3.073,-3.0711,-3.0707,-3.0694,-3.0782,-3.0766,-3.0775,-3.1504,-3.2593,-3.4055,-3.44,-3.4847,-3.5562,-3.5756,-3.5795,-3.5795,-3.5795,-3.5834,-3.5872,-3.5882,-3.5898,-3.5886,-3.5889,-3.5889,-3.5889,-3.5889,-3.5889,-3.5889,-3.5889,-3.5889,-3.585,-3.5677,-3.5421,-3.4642,-3.367,-3.2518,-3.1113,-3.0821,-3.0801,-3.0801,-3.0801,-3.0801,-3.0801,-3.0801,-3.0801,-3.0801,-3.0801,-3.0801,-3.0801,-3.0801,-3.0801,-3.0801,-3.0801,-3.0801,-3.0801,-3.0801,-3.0801,-3.0801,-3.0801,-3.0801,-3.0801,-3.0801,-3.0801,-3.0801,-3.0801,-3.0793,-3.0794,-3.0798,-3.0786,-4.5321,-4.5509,-4.558,-4.5677,-4.58,-4.5807,-4.5807,-4.5807,-4.5807,-4.5854,-4.5964,-4.5991,-4.6066,-4.6177,-4.6142,-4.6123,-4.6174,-4.6177,-4.6158,-4.6158,-4.6192,-4.6199,-4.616,-4.5848,-4.54,-4.4835,-4.4247,-4.3078,-4.1322,-3.9493,-3.9104,-4.0007,-4.0038,-3.9543,-3.9048,-3.9791,-3.9081,-3.6853,-3.7132,-3.6828,-3.576,-3.4889,-3.4279,-3.3964,-3.2376,-3.146,-3.1472,-3.099,-3.0703,-3.0694,-3.0697,-3.0697,-3.0733,-3.0989,-3.1944,-3.3487,-3.372,-3.4342,-3.5562,-3.5795,-3.5795,-3.5795,-3.5788,-3.583,-3.5898,-3.5892,-3.5888,-3.5886,-3.5889,-3.5889,-3.5889,-3.5889,-3.5889,-3.5889,-3.5889,-3.5675,-3.5226,-3.5073,-3.4742,-3.3924,-3.3086,-3.209,-3.1308,-3.0801,-3.0801,-3.0801,-3.0801,-3.086,-3.0821,-3.0801,-3.0899,-3.0821,-3.0801,-3.0801,-3.0801,-3.0801,-3.0801,-3.0801,-3.0801,-3.0801,-3.0801,-3.0801,-3.0801,-3.0801,-3.0801,-3.0801,-3.0801,-3.0801,-3.0801,-3.0801,-3.0801,-3.0791,-3.0794,-3.0798,-3.0788,-4.5239,-4.5456,-4.5519,-4.5613,-4.573,-4.5773,-4.5807,-4.5807,-4.5807,-4.5886,-4.5986,-4.5982,-4.606,-4.6189,-4.6199,-4.6199,-4.6157,-4.5926,-4.5771,-4.579,-4.579,-4.5926,-4.6176,-4.6199,-4.5887,-4.5264,-4.4695,-4.3702,-4.2257,-4.0309,-4.0019,-4.1026,-4.0967,-4.0456,-3.9864,-4.0411,-3.9642,-3.7777,-3.7345,-3.6939,-3.6118,-3.5261,-3.484,-3.4686,-3.3489,-3.26,-3.2353,-3.1814,-3.1375,-3.1176,-3.1118,-3.1001,-3.0771,-3.0962,-3.1778,-3.3099,-3.3569,-3.4284,-3.5542,-3.5795,-3.5799,-3.5803,-3.5799,-3.5838,-3.5885,-3.5889,-3.5882,-3.59,-3.59,-3.5897,-3.5886,-3.5889,-3.5889,-3.5889,-3.5889,-3.5675,-3.5109,-3.5071,-3.4681,-3.3982,-3.3164,-3.2345,-3.1778,-3.168,-3.17,-3.1639,-3.1639,-3.1639,-3.1639,-3.1639,-3.1641,-3.1639,-3.1736,-3.1795,-3.1875,-3.1953,-3.1269,-3.1093,-3.1035,-3.0957,-3.0996,-3.0957,-3.0938,-3.086,-3.084,-3.0821,-3.0801,-3.0821,-3.084,-3.0879,-3.0801,-3.0789,-3.0786,-3.0798,-3.0923,-4.5014,-4.5216,-4.5361,-4.5484,-4.5629,-4.5764,-4.5807,-4.5807,-4.5807,-4.5886,-4.5991,-4.5982,-4.608,-4.6185,-4.6199,-4.618,-4.5946,-4.5342,-4.5089,-4.5147,-4.5108,-4.5517,-4.6176,-4.6199,-4.6199,-4.5985,-4.4462,-4.3309,-4.2627,-4.1653,-4.1224,-4.1234,-4.1341,-4.0849,-3.9673,-4.0416,-3.9978,-3.8475,-3.8086,-3.768,-3.6928,-3.6093,-3.5653,-3.5565,-3.4807,-3.4074,-3.3382,-3.3231,-3.271,-3.2027,-3.191,-3.1561,-3.0943,-3.1428,-3.2341,-3.3235,-3.4012,-3.4866,-3.5639,-3.5795,-3.5803,-3.5799,-3.5807,-3.5826,-3.5872,-3.584,-3.5843,-3.5897,-3.5888,-3.5898,-3.5886,-3.5889,-3.5889,-3.5889,-3.5889,-3.583,-3.5733,-3.5772,-3.5499,-3.4528,-3.369,-3.3397,-3.3339,-3.3105,-3.3008,-3.3047,-3.3066,-3.3047,-3.2966,-3.2966,-3.3242,-3.3222,-3.2949,-3.2732,-3.3047,-3.3242,-3.2265,-3.1483,-3.1386,-3.1327,-3.1505,-3.1544,-3.1619,-3.1581,-3.1619,-3.16,-3.1639,-3.1619,-3.1486,-3.1427,-3.1174,-3.1217,-3.1406,-3.1554,-3.1329,-4.5022,-4.5213,-4.5341,-4.5475,-4.5613,-4.5737,-4.5807,-4.5807,-4.5807,-4.5867,-4.5986,-4.5982,-4.6056,-4.6185,-4.6199,-4.5868,-4.5303,-4.503,-4.5225,-4.5689,-4.5771,-4.5884,-4.6157,-4.6199,-4.6199,-4.6024,-4.5066,-4.4695,-4.4637,-4.3504,-4.3098,-4.3571,-4.3543,-4.2427,-4.0616,-4.1153,-4.0545,-3.8473,-3.821,-3.7785,-3.7022,-3.6687,-3.6281,-3.5736,-3.5441,-3.52,-3.4993,-3.3926,-3.2905,-3.2105,-3.2007,-3.1603,-3.1063,-3.1525,-3.2396,-3.3235,-3.4051,-3.4886,-3.5639,-3.5795,-3.5803,-3.5803,-3.5841,-3.5882,-3.5885,-3.5866,-3.5872,-3.5889,-3.588,-3.588,-3.5886,-3.5889,-3.5889,-3.5889,-3.5889,-3.5675,-3.5204,-3.4642,-3.4118,-3.3846,-3.3553,-3.3397,-3.3417,-3.3456,-3.3531,-3.3531,-3.3492,-3.3492,-3.3456,-3.357,-3.3378,-3.3378,-3.3378,-3.3629,-3.3779,-3.3896,-3.3387,-3.2688,-3.2396,-3.2051,-3.2148,-3.2206,-3.2284,-3.2323,-3.2362,-3.2382,-3.2401,-3.2382,-3.2245,-3.2382,-3.2482,-3.2528,-3.2576,-3.2428,-3.2163,-4.4967,-4.5114,-4.5269,-4.541,-4.5537,-4.5669,-4.5749,-4.5752,-4.5821,-4.5899,-4.5964,-4.6012,-4.6093,-4.6189,-4.6199,-4.5907,-4.54,-4.54,-4.5693,-4.6063,-4.579,-4.5887,-4.6141,-4.6199,-4.6199,-4.6121,-4.5634,-4.5654,-4.6118,-4.5144,-4.4669,-4.4803,-4.4759,-4.3578,-4.1582,-4.1703,-4.0977,-3.9358,-3.8831,-3.8264,-3.7541,-3.7085,-3.651,-3.5811,-3.5697,-3.5733,-3.5721,-3.4738,-3.3837,-3.2979,-3.2376,-3.1774,-3.1409,-3.2089,-3.2862,-3.3701,-3.4497,-3.5255,-3.5736,-3.5803,-3.5819,-3.5838,-3.5878,-3.5898,-3.5891,-3.5894,-3.5869,-3.59,-3.5862,-3.5879,-3.5891,-3.5894,-3.5891,-3.5894,-3.5897,-3.5647,-3.5076,-3.4648,-3.4433,-3.4469,-3.4414,-3.4336,-3.4336,-3.4317,-3.4317,-3.4336,-3.4317,-3.4317,-3.4336,-3.4394,-3.4297,-3.4278,-3.4508,-3.4583,-3.4431,-3.4431,-3.4414,-3.4027,-3.366,-3.3217,-3.2969,-3.2969,-3.3008,-3.2969,-3.2988,-3.293,-3.2949,-3.3047,-3.3047,-3.3358,-3.3531,-3.3227,-3.3039,-3.3119,-3.295,-4.4895,-4.4938,-4.5106,-4.5279,-4.541,-4.5537,-4.5621,-4.5696,-4.5814,-4.5854,-4.5898,-4.5988,-4.6102,-4.6181,-4.6192,-4.6141,-4.618,-4.6102,-4.6082,-4.5981,-4.5595,-4.5576,-4.6137,-4.6199,-4.6199,-4.6199,-4.6118,-4.616,-4.6199,-4.6004,-4.5768,-4.5027,-4.4764,-4.397,-4.2602,-4.2182,-4.1603,-4.0765,-3.9908,-3.911,-3.8298,-3.7461,-3.6636,-3.5811,-3.5725,-3.5733,-3.5736,-3.5607,-3.5236,-3.4404,-3.2947,-3.2267,-3.2477,-3.3021,-3.372,-3.44,-3.5294,-3.5643,-3.5803,-3.5792,-3.5834,-3.5878,-3.5892,-3.5891,-3.5897,-3.5853,-3.584,-3.5879,-3.5868,-3.5846,-3.5898,-3.5885,-3.5885,-3.5882,-3.5895,-3.582,-3.5866,-3.5788,-3.5597,-3.5671,-3.5843,-3.5846,-3.5632,-3.5655,-3.5671,-3.5691,-3.5632,-3.5558,-3.5577,-3.5464,-3.5749,-3.5671,-3.5386,-3.5327,-3.5116,-3.512,-3.51,-3.4947,-3.4639,-3.4333,-3.3991,-3.3952,-3.3991,-3.3916,-3.3721,-3.3626,-3.3701,-3.3949,-3.4005,-3.4099,-3.3985,-3.3609,-3.3665,-3.393,-3.3971,-4.4895,-4.4919,-4.5125,-4.5224,-4.5279,-4.5438,-4.5521,-4.5547,-4.5643,-4.5719,-4.5778,-4.5886,-4.6002,-4.6066,-4.6174,-4.6199,-4.6199,-4.6199,-4.6199,-4.6176,-4.6001,-4.5962,-4.6157,-4.6199,-4.6199,-4.6199,-4.6199,-4.6199,-4.6199,-4.6199,-4.6002,-4.5743,-4.4973,-4.4494,-4.3928,-4.266,-4.1957,-4.1609,-4.0849,-3.9966,-3.9084,-3.8285,-3.7464,-3.6674,-3.6046,-3.5791,-3.5799,-3.5801,-3.5438,-3.4598,-3.3568,-3.2978,-3.318,-3.3763,-3.4268,-3.4618,-3.5294,-3.5803,-3.5795,-3.5799,-3.5822,-3.5876,-3.5892,-3.5895,-3.5891,-3.5869,-3.5878,-3.5885,-3.5872,-3.5868,-3.5898,-3.5898,-3.5872,-3.5841,-3.5872,-3.5882,-3.5878,-3.5882,-3.5882,-3.5882,-3.5878,-3.5878,-3.5878,-3.5878,-3.5878,-3.5878,-3.5878,-3.5875,-3.5872,-3.5875,-3.5872,-3.5878,-3.5749,-3.5804,-3.5804,-3.5804,-3.5788,-3.5691,-3.5558,-3.5441,-3.523,-3.5214,-3.5272,-3.5308,-3.4941,-3.475,-3.5032,-3.5314,-3.5178,-3.4812,-3.4899,-3.4782,-3.5021,-3.5243,-3.5154,-4.4895,-4.4907,-4.5014,-4.5117,-4.5197,-4.5312,-4.541,-4.5495,-4.559,-4.564,-4.5704,-4.5822,-4.5933,-4.6003,-4.6098,-4.6154,-4.6196,-4.6199,-4.6199,-4.6199,-4.6176,-4.6199,-4.6199,-4.6199,-4.6199,-4.6199,-4.6199,-4.6199,-4.6199,-4.6199,-4.5971,-4.5448,-4.4963,-4.4533,-4.4005,-4.3176,-4.2331,-4.2009,-4.146,-4.066,-3.9464,-3.8955,-3.8304,-3.7502,-3.6668,-3.6124,-3.5872,-3.5795,-3.557,-3.5048,-3.4363,-3.3999,-3.4345,-3.4419,-3.4703,-3.4987,-3.5557,-3.5786,-3.5799,-3.5807,-3.5823,-3.5849,-3.5875,-3.5889,-3.5892,-3.5878,-3.5849,-3.5845,-3.5861,-3.5857,-3.5853,-3.5857,-3.5846,-3.5807,-3.5834,-3.5846,-3.5853,-3.5853,-3.5853,-3.5853,-3.5853,-3.5853,-3.5853,-3.5853,-3.5853,-3.5853,-3.583,-3.585,-3.5869,-3.5857,-3.5853,-3.5853,-3.5846,-3.5838,-3.5834,-3.5834,-3.5838,-3.5827,-3.5823,-3.5846,-3.5861,-3.5864,-3.5836,-3.5774,-3.5829,-3.5841,-3.583,-3.5823,-3.5671,-3.5508,-3.5779,-3.5791,-3.5786,-3.5765,-3.5769,-4.4895,-4.4895,-4.4895,-4.5019,-4.5159,-4.521,-4.5367,-4.5563,-4.5783,-4.5814,-4.5814,-4.5942,-4.604,-4.5988,-4.6003,-4.6122,-4.6375,-4.6472,-4.653,-4.6589,-4.6569,-4.653,-4.6741,-4.6336,-4.6238,-4.6199,-4.6199,-4.6199,-4.6199,-4.6199,-4.5749,-4.5225,-4.489,-4.4411,-4.4007,-4.3413,-4.2878,-4.2472,-4.1935,-4.1154,-4.0053,-3.9514,-3.8917,-3.8362,-3.7514,-3.6725,-3.6217,-3.5989,-3.5908,-3.5866,-3.5125,-3.5095,-3.5601,-3.5072,-3.5096,-3.5538,-3.5715,-3.5784,-3.5788,-3.5806,-3.5795,-3.5811,-3.5861,-3.5895,-3.5891,-3.5834,-3.5803,-3.5803,-3.5807,-3.5814,-3.5791,-3.5786,-3.5782,-3.5788,-3.5784,-3.5793,-3.5806,-3.5791,-3.5795,-3.5795,-3.5795,-3.5795,-3.5791,-3.5795,-3.5795,-3.5822,-3.5826,-3.583,-3.5826,-3.5826,-3.5814,-3.5797,-3.5788,-3.5775,-3.577,-3.577,-3.576,-3.5745,-3.5736,-3.5765,-3.5799,-3.5811,-3.585,-3.5853,-3.5799,-3.5771,-3.5752,-3.5747,-3.5758,-3.576,-3.5728,-3.5742,-3.576,-3.5723,-3.5713,-4.4895,-4.4895,-4.4943,-4.5003,-4.5061,-4.5151,-4.5625,-4.626,-4.6348,-4.6359,-4.6417,-4.6585,-4.6355,-4.5902,-4.6104,-4.6422,-4.7157,-4.7251,-4.754,-4.8125,-4.7482,-4.7696,-4.7735,-4.6995,-4.6274,-4.6254,-4.6215,-4.6196,-4.6196,-4.6138,-4.6076,-4.5745,-4.5118,-4.4942,-4.5041,-4.3928,-4.3492,-4.3482,-4.2548,-4.1759,-4.1096,-4.0084,-3.9425,-3.9083,-3.8388,-3.7588,-3.6925,-3.675,-3.6439,-3.5942,-3.5714,-3.5776,-3.5749,-3.5616,-3.5584,-3.5687,-3.5751,-3.5751,-3.5797,-3.5793,-3.5806,-3.5811,-3.5811,-3.583,-3.583,-3.5807,-3.5803,-3.5799,-3.5801,-3.5765,-3.5732,-3.5722,-3.5722,-3.5742,-3.577,-3.5799,-3.5808,-3.5788,-3.5801,-3.5791,-3.5791,-3.5791,-3.5793,-3.5801,-3.5801,-3.5793,-3.5797,-3.5791,-3.5786,-3.5793,-3.577,-3.5742,-3.5733,-3.5723,-3.5698,-3.5698,-3.5708,-3.5694,-3.5698,-3.5693,-3.5713,-3.5727,-3.5756,-3.5747,-3.5723,-3.5704,-3.5689,-3.5674,-3.5672,-3.5676,-3.567,-3.5681,-3.5687,-3.5665,-3.5825,-4.5166,-4.5551,-4.5587,-4.5862,-4.6244,-4.634,-4.6652,-4.6964,-4.6766,-4.6635,-4.6675,-4.6836,-4.668,-4.6454,-4.6911,-4.7509,-4.7914,-4.8101,-4.8553,-4.9001,-4.8553,-4.8592,-4.897,-4.8043,-4.7178,-4.6828,-4.629,-4.6122,-4.6074,-4.6013,-4.5911,-4.5904,-4.5419,-4.5409,-4.5653,-4.4697,-4.4286,-4.41,-4.3427,-4.2601,-4.1763,-4.1054,-4.0,-3.9567,-3.9011,-3.8402,-3.7638,-3.7577,-3.7365,-3.7061,-3.6934,-3.6559,-3.5914,-3.5808,-3.5794,-3.5761,-3.5723,-3.5718,-3.5757,-3.5757,-3.5737,-3.5769,-3.5745,-3.5773,-3.5778,-3.5801,-3.5806,-3.5806,-3.5793,-3.579,-3.5713,-3.5708,-3.5708,-3.5704,-3.5728,-3.5757,-3.5794,-3.5788,-3.5801,-3.5791,-3.5806,-3.5801,-3.5801,-3.5788,-3.5793,-3.5784,-3.5694,-3.5704,-3.5722,-3.5728,-3.5693,-3.5672,-3.5657,-3.5651,-3.564,-3.5626,-3.5643,-3.5643,-3.5632,-3.5646,-3.5657,-3.5662,-3.5657,-3.5657,-3.5662,-3.5651,-3.5632,-3.562,-3.566,-3.5653,-3.5647,-3.5629,-3.5662,-3.5737,-3.6014,-4.569,-4.632,-4.6446,-4.6975,-4.764,-4.7652,-4.7762,-4.7876,-4.7199,-4.7086,-4.7059,-4.7108,-4.7185,-4.7353,-4.7905,-4.8431,-4.876,-4.9109,-4.9596,-4.9958,-4.9245,-4.941,-4.9663,-4.8944,-4.8174,-4.7663,-4.678,-4.6272,-4.5972,-4.5796,-4.5764,-4.5723,-4.5719,-4.565,-4.561,-4.5481,-4.5062,-4.4579,-4.4096,-4.3483,-4.2401,-4.1907,-4.0908,-3.9923,-3.9612,-3.9181,-3.8562,-3.8392,-3.8324,-3.8304,-3.829,-3.7526,-3.6629,-3.6154,-3.6013,-3.5989,-3.6003,-3.5901,-3.5756,-3.5707,-3.5707,-3.5707,-3.5708,-3.5723,-3.5757,-3.577,-3.576,-3.5784,-3.5775,-3.5757,-3.5718,-3.5708,-3.5689,-3.5684,-3.5688,-3.5728,-3.5761,-3.5788,-3.5778,-3.5791,-3.5773,-3.576,-3.5766,-3.5757,-3.5766,-3.5747,-3.5669,-3.5618,-3.5658,-3.5658,-3.5646,-3.5618,-3.5601,-3.5596,-3.5565,-3.5578,-3.5583,-3.5602,-3.5602,-3.5616,-3.5584,-3.5521,-3.5521,-3.5575,-3.5587,-3.5589,-3.5725,-3.5868,-3.5862,-3.5733,-3.5984,-3.6337,-3.6234,-3.5926,-3.6267,-4.6714,-4.6371,-4.7084,-4.7524,-4.7728,-4.7793,-4.8266,-4.8689,-4.8048,-4.812,-4.8602,-4.8173,-4.7976,-4.8121,-4.8133,-4.8644,-4.9417,-4.9937,-5.0474,-5.0614,-4.9931,-4.9931,-5.0322,-4.9395,-4.8778,-4.8662,-4.7726,-4.6687,-4.6016,-4.575,-4.5672,-4.5754,-4.5706,-4.5638,-4.5552,-4.5491,-4.539,-4.5007,-4.4518,-4.3963,-4.3435,-4.2319,-4.1374,-4.0396,-4.027,-3.99,-3.9379,-3.9154,-3.8904,-3.8323,-3.8214,-3.8077,-3.7887,-3.7813,-3.747,-3.6922,-3.6732,-3.6527,-3.6093,-3.5836,-3.5745,-3.5702,-3.5857,-3.5813,-3.578,-3.5781,-3.5965,-3.5829,-3.5824,-3.5751,-3.5706,-3.5687,-3.569,-3.566,-3.5723,-3.5745,-3.5795,-3.5839,-3.579,-3.5793,-3.577,-3.5723,-3.5708,-3.5693,-3.5688,-3.5683,-3.5651,-3.561,-3.5621,-3.5629,-3.5595,-3.559,-3.5566,-3.5528,-3.5515,-3.5508,-3.5515,-3.556,-3.5579,-3.5585,-3.5545,-3.5393,-3.5388,-3.5688,-3.5656,-3.5547,-3.5746,-3.6078,-3.6353,-3.6435,-3.6805,-3.7213,-3.6921,-3.6666,-3.6875,-4.7548,-4.7722,-4.8157,-4.8593,-4.9014,-4.9075,-4.9328,-4.9549,-4.8898,-4.8739,-4.8973,-4.8854,-4.875,-4.891,-4.9346,-4.9774,-5.0178,-5.0538,-5.0862,-5.0756,-5.046,-5.0375,-5.0925,-4.9853,-4.9517,-4.9243,-4.8456,-4.7422,-4.6356,-4.5717,-4.5618,-4.5563,-4.5526,-4.5484,-4.5448,-4.5419,-4.539,-4.5214,-4.4908,-4.4479,-4.4059,-4.2544,-4.1543,-4.1198,-4.0731,-4.0383,-4.0147,-4.0021,-3.9862,-3.9554,-3.9464,-3.9451,-3.9406,-3.9264,-3.8871,-3.7916,-3.7601,-3.7415,-3.7029,-3.6953,-3.6991,-3.6984,-3.6913,-3.6932,-3.6913,-3.6975,-3.6701,-3.6397,-3.6281,-3.6121,-3.5706,-3.5662,-3.585,-3.6186,-3.6257,-3.6281,-3.6325,-3.6341,-3.6193,-3.597,-3.5873,-3.5824,-3.5643,-3.5626,-3.5599,-3.5587,-3.5633,-3.5614,-3.5601,-3.5571,-3.5547,-3.5567,-3.5553,-3.5552,-3.5614,-3.5753,-3.5689,-3.5669,-3.5847,-3.5851,-3.5867,-3.5887,-3.5963,-3.6144,-3.5959,-3.5752,-3.6002,-3.6427,-3.6765,-3.7175,-3.7501,-3.772,-3.7539,-3.7501,-3.7726,-4.8262,-4.9017,-4.917,-4.9644,-5.0225,-5.0111,-5.0015,-4.9893,-4.9124,-4.89,-4.9143,-4.9217,-4.9364,-4.9644,-5.0028,-5.0428,-5.0643,-5.0568,-5.0499,-5.0726,-5.0636,-5.0683,-5.0739,-5.0604,-5.0192,-4.9624,-4.9072,-4.8264,-4.6791,-4.6042,-4.5609,-4.5457,-4.5341,-4.5339,-4.538,-4.537,-4.5328,-4.5317,-4.5269,-4.4878,-4.3924,-4.29,-4.2064,-4.186,-4.1152,-4.0808,-4.0812,-4.0561,-4.0494,-4.0412,-4.0458,-4.0511,-4.0568,-4.0588,-3.9984,-3.8917,-3.8563,-3.835,-3.8086,-3.7996,-3.7829,-3.7816,-3.7996,-3.8041,-3.799,-3.7733,-3.763,-3.7081,-3.6853,-3.6455,-3.5794,-3.5794,-3.6174,-3.6639,-3.6935,-3.7077,-3.7156,-3.7102,-3.6928,-3.6629,-3.6242,-3.6129,-3.6153,-3.5647,-3.5623,-3.5842,-3.5888,-3.5534,-3.5515,-3.5483,-3.5488,-3.5544,-3.5561,-3.5585,-3.5755,-3.6132,-3.6067,-3.5971,-3.6324,-3.6588,-3.6602,-3.6635,-3.6646,-3.6602,-3.6455,-3.6304,-3.6551,-3.6937,-3.7536,-3.7993,-3.8193,-3.8251,-3.8165,-3.8339,-3.8619,-4.885,-4.9055,-4.9761,-5.0147,-5.0149,-4.9595,-4.927,-4.9186,-4.8479,-4.8469,-4.929,-4.9283,-4.9748,-5.0163,-4.9633,-4.9852,-5.0089,-4.984,-4.9921,-5.05,-5.0486,-5.0477,-5.0558,-5.0421,-5.0339,-4.9972,-4.943,-4.816,-4.7103,-4.6604,-4.604,-4.562,-4.5438,-4.5429,-4.5592,-4.5456,-4.5379,-4.5388,-4.5328,-4.4895,-4.418,-4.3809,-4.3293,-4.2689,-4.2017,-4.1581,-4.1502,-4.1141,-4.0781,-4.0696,-4.065,-4.061,-4.0581,-4.0588,-4.0574,-4.0154,-3.966,-3.8922,-3.8414,-3.8368,-3.8388,-3.842,-3.833,-3.8111,-3.8316,-3.8271,-3.7957,-3.6922,-3.6921,-3.6522,-3.5982,-3.6303,-3.6665,-3.7128,-3.7559,-3.781,-3.7977,-3.7957,-3.7745,-3.7488,-3.714,-3.7019,-3.6993,-3.6254,-3.5695,-3.5951,-3.6054,-3.5706,-3.5455,-3.5427,-3.5643,-3.5782,-3.5952,-3.5975,-3.6286,-3.6604,-3.6618,-3.6454,-3.6903,-3.73,-3.7189,-3.7135,-3.7099,-3.7024,-3.6967,-3.7176,-3.7557,-3.8014,-3.8517,-3.8813,-3.8994,-3.8975,-3.8861,-3.9128,-3.9385,-4.9289,-4.977,-5.0114,-5.0015,-4.9679,-4.9713,-4.9503,-4.9182,-4.9205,-4.9427,-4.9781,-4.9904,-5.0227,-5.0383,-4.9621,-4.9674,-5.0076,-4.9476,-4.9583,-5.0276,-5.0352,-5.034,-5.0396,-5.034,-5.0302,-5.0206,-4.9901,-4.932,-4.8092,-4.7033,-4.6356,-4.6157,-4.5717,-4.5745,-4.6024,-4.5658,-4.5456,-4.5388,-4.5319,-4.5125,-4.4715,-4.4304,-4.3904,-4.3513,-4.2737,-4.242,-4.2266,-4.2131,-4.1869,-4.178,-4.1547,-4.1218,-4.1088,-4.0854,-4.0535,-4.0489,-4.0231,-3.9841,-3.9552,-3.9444,-3.9367,-3.9425,-3.9425,-3.9507,-3.9422,-3.9307,-3.8756,-3.7616,-3.7553,-3.698,-3.608,-3.6382,-3.6967,-3.7525,-3.8276,-3.8586,-3.878,-3.8742,-3.8626,-3.8349,-3.8092,-3.7994,-3.7742,-3.7074,-3.6379,-3.6128,-3.6133,-3.5811,-3.552,-3.5357,-3.5695,-3.6155,-3.6362,-3.653,-3.6936,-3.7302,-3.7328,-3.733,-3.7831,-3.8032,-3.7709,-3.7585,-3.7746,-3.8116,-3.8467,-3.8646,-3.8729,-3.8722,-3.8869,-3.9306,-3.9801,-3.9593,-3.9384,-3.9565,-3.9745,-4.9251,-5.0015,-5.0225,-4.9943,-4.9414,-4.9648,-4.9457,-4.9193,-4.9419,-4.9752,-5.0092,-5.0295,-5.0523,-5.0294,-4.9553,-4.9367,-5.0328,-4.9285,-4.953,-4.9977,-5.0302,-5.0302,-5.0325,-5.0302,-5.0302,-5.0302,-5.0245,-4.9691,-4.8872,-4.8007,-4.7303,-4.7,-4.6579,-4.6561,-4.6666,-4.6262,-4.5723,-4.5359,-4.5317,-4.5269,-4.5125,-4.4666,-4.4457,-4.4114,-4.3656,-4.312,-4.3139,-4.2842,-4.2784,-4.264,-4.2007,-4.1592,-4.1515,-4.0907,-4.0513,-4.0455,-4.0345,-4.0369,-4.0288,-4.0277,-4.0489,-4.0496,-4.0496,-4.0273,-4.0342,-4.0458,-4.0023,-3.8428,-3.8073,-3.7359,-3.6665,-3.6851,-3.7493,-3.8313,-3.9107,-3.9391,-3.9598,-3.9509,-3.9516,-3.942,-3.9174,-3.8919,-3.8558,-3.7908,-3.7233,-3.6576,-3.6189,-3.5963,-3.5883,-3.5802,-3.62,-3.6843,-3.7266,-3.7366,-3.7426,-3.7762,-3.7841,-3.8147,-3.8641,-3.8678,-3.8297,-3.8512,-3.8869,-3.9315,-3.9553,-3.951,-3.9228,-3.9178,-3.9153,-3.9524,-3.9819,-3.9918,-3.992,-4.0015,-3.9975,-4.8391,-4.9263,-4.9977,-5.0168,-5.0019,-4.8657,-4.8531,-4.8933,-4.8447,-4.8745,-4.9513,-5.0119,-5.0563,-5.0141,-4.9131,-4.9024,-5.0355,-4.8684,-4.9129,-4.9862,-5.0302,-5.0302,-5.0302,-5.0302,-5.0302,-5.0302,-5.0283,-4.9862,-4.932,-4.9048,-4.8392,-4.7867,-4.7555,-4.774,-4.7558,-4.6885,-4.6066,-4.5615,-4.5364,-4.5277,-4.5277,-4.5144,-4.5116,-4.4944,-4.4409,-4.3902,-4.3893,-4.3407,-4.312,-4.3111,-4.244,-4.2037,-4.198,-4.1288,-4.0895,-4.0654,-4.0624,-4.0611,-4.0521,-4.0503,-4.0489,-4.0496,-4.0496,-4.0496,-4.0496,-4.0496,-3.9996,-3.9088,-3.8367,-3.7963,-3.7698,-3.798,-3.8168,-3.8883,-3.9542,-3.998,-4.0161,-4.0226,-4.0234,-4.0361,-4.0146,-3.9727,-3.9495,-3.8865,-3.8108,-3.7432,-3.7102,-3.6856,-3.7007,-3.702,-3.7245,-3.7715,-3.8278,-3.8327,-3.7937,-3.8214,-3.8823,-3.8955,-3.9169,-3.9073,-3.8786,-3.9188,-3.9498,-3.9425,-3.9425,-3.9588,-3.9724,-3.9513,-3.9441,-3.9641,-3.9785,-3.9815,-3.9781,-3.9747,-3.9735,-4.8804,-4.9148,-4.9442,-4.9285,-4.893,-4.9283,-4.9037,-4.8609,-4.9152,-4.9578,-4.9896,-5.0327,-5.0265,-4.9574,-4.8767,-4.8583,-4.9424,-4.8447,-4.9033,-4.9824,-5.0302,-5.0302,-5.0302,-5.0302,-5.0302,-5.0302,-5.0283,-5.0225,-4.9912,-4.9763,-4.9713,-4.9269,-4.8539,-4.8457,-4.8151,-4.743,-4.6487,-4.5986,-4.5526,-4.5297,-4.5277,-4.5277,-4.5277,-4.522,-4.5105,-4.4819,-4.4772,-4.4515,-4.4372,-4.4076,-4.3436,-4.3101,-4.2843,-4.2154,-4.1589,-4.1195,-4.1137,-4.0933,-4.0613,-4.054,-4.0503,-4.0489,-4.0496,-4.0496,-4.0496,-4.0496,-3.9715,-3.8917,-3.8367,-3.8117,-3.7403,-3.777,-3.8355,-3.921,-3.9888,-4.0377,-4.055,-4.055,-4.0516,-4.0442,-4.0419,-4.0225,-4.0049,-3.9862,-3.9059,-3.8303,-3.8029,-3.7832,-3.798,-3.8067,-3.8213,-3.8347,-3.8833,-3.9213,-3.8869,-3.9344,-3.9915,-3.9766,-3.9616,-3.9394,-3.9161,-3.9267,-3.9479,-3.9383,-3.935,-3.9541,-3.9642,-3.9635,-3.9647,-3.9665,-3.9654,-3.9623,-3.9582,-3.9489,-3.9477,-4.8869,-4.9079,-4.911,-4.8952,-4.8816,-4.9628,-4.9556,-4.8985,-4.9565,-5.0179,-5.0371,-5.0407,-5.0202,-4.9494,-4.8783,-4.8839,-4.9267,-4.8857,-4.9243,-4.9824,-5.0302,-5.0302,-5.0302,-5.0302,-5.0302,-5.0302,-5.0302,-5.0264,-5.0206,-5.0283,-5.0168,-4.9828,-4.9338,-4.9267,-4.9001,-4.7926,-4.6745,-4.609,-4.566,-4.5297,-4.5277,-4.5277,-4.5277,-4.5277,-4.522,-4.522,-4.5182,-4.5078,-4.5116,-4.4848,-4.4418,-4.4017,-4.3702,-4.3282,-4.2575,-4.2116,-4.1732,-4.1425,-4.1184,-4.066,-4.0556,-4.0503,-4.0489,-4.0489,-4.0496,-4.0496,-3.9927,-3.921,-3.8707,-3.8239,-3.7665,-3.8507,-3.8996,-3.978,-4.0112,-4.0523,-4.0519,-4.0511,-4.0499,-4.0455,-4.043,-4.0394,-4.0285,-4.0088,-3.9765,-3.9201,-3.9126,-3.8927,-3.888,-3.8947,-3.8947,-3.907,-3.9268,-3.959,-3.9844,-3.988,-3.9857,-3.9791,-3.9675,-3.9625,-3.9491,-3.9526,-3.9446,-3.9364,-3.9377,-3.9514,-3.9508,-3.9439,-3.9496,-3.9564,-3.9496,-3.9414,-3.9363,-3.9304,-3.9304,-4.8372,-4.9071,-4.911,-4.9511,-5.0,-4.9433,-4.9532,-4.9745,-4.9551,-4.9728,-5.0306,-5.039,-5.0317,-5.0002,-4.9179,-4.9332,-4.9685,-4.9285,-4.9461,-5.0092,-5.0302,-5.0302,-5.0302,-5.0302,-5.0302,-5.0302,-5.0302,-5.0302,-5.0302,-5.0302,-5.0302,-5.0302,-5.0,-5.0004,-5.0133,-4.8671,-4.7042,-4.57,-4.5594,-4.5449,-4.5602,-4.5583,-4.5488,-4.5488,-4.5335,-4.5297,-4.5277,-4.5277,-4.5277,-4.5144,-4.4628,-4.4274,-4.4131,-4.3539,-4.3052,-4.2804,-4.2097,-4.2049,-4.2489,-4.1295,-4.0773,-4.0521,-4.0468,-4.0465,-4.0481,-4.0469,-4.0315,-3.9542,-3.9398,-3.9533,-3.9622,-3.9692,-3.9769,-4.0062,-4.0373,-4.0484,-4.0479,-4.0463,-4.0458,-4.0432,-4.0396,-4.037,-4.0308,-4.0234,-4.0187,-4.0053,-4.012,-4.0014,-3.9727,-3.9612,-3.9497,-3.9483,-3.9566,-3.9667,-3.9832,-3.9818,-3.9792,-3.9743,-3.9696,-3.9649,-3.9557,-3.9446,-3.9401,-3.9337,-3.9324,-3.9369,-3.9304,-3.9205,-3.9237,-3.9251,-3.9251,-3.9197,-3.9142,-3.9073,-3.9045,-4.8831,-4.911,-4.911,-4.9568,-5.0218,-5.0073,-4.9581,-4.9039,-4.9562,-5.0092,-5.0268,-5.0359,-5.0018,-4.9589,-4.9387,-4.933,-4.9444,-4.9419,-4.9519,-5.0225,-5.0302,-5.0302,-5.0302,-5.0302,-5.0302,-5.0302,-5.0302,-5.0302,-5.0302,-5.0302,-5.0302,-5.0302,-5.0225,-5.0333,-4.9866,-4.8815,-4.7581,-4.7581,-4.6959,-4.6328,-4.6757,-4.6405,-4.6042,-4.6003,-4.5602,-4.5354,-4.5297,-4.5277,-4.5277,-4.5277,-4.48,-4.4781,-4.4781,-4.4303,-4.4112,-4.3768,-4.3157,-4.2985,-4.2929,-4.2135,-4.1499,-4.0942,-4.0584,-4.0619,-4.0458,-4.0491,-4.0226,-3.9865,-3.9619,-3.9615,-3.9456,-3.9456,-3.9622,-4.0215,-4.0499,-4.0455,-4.0449,-4.0441,-4.0415,-4.037,-4.0325,-4.0299,-4.0244,-4.0148,-4.0108,-4.0077,-4.0038,-4.0067,-3.9846,-3.9855,-3.9806,-3.9721,-3.9724,-3.9747,-3.977,-3.9766,-3.9743,-3.9715,-3.9679,-3.9644,-3.9552,-3.9401,-3.9356,-3.9296,-3.9237,-3.9197,-3.9129,-3.9059,-3.8931,-3.8888,-3.9024,-3.9083,-3.9062,-3.888,-3.8695,-4.9263,-4.9519,-4.95,-4.9633,-4.9893,-4.9927,-4.9291,-4.8711,-4.9781,-5.0367,-5.0314,-5.0348,-5.0111,-4.9671,-4.9518,-4.9518,-4.9499,-4.9522,-4.9614,-5.0283,-5.0302,-5.0302,-5.0302,-5.0302,-5.0302,-5.0302,-5.0302,-5.0302,-5.0302,-5.0302,-5.0302,-5.0245,-5.0054,-4.9836,-4.9473,-4.8831,-4.8277,-4.8048,-4.715,-4.6825,-4.7139,-4.7016,-4.6481,-4.6328,-4.6023,-4.5632,-4.5392,-4.5297,-4.5277,-4.5277,-4.5277,-4.5277,-4.5277,-4.5201,-4.4991,-4.4609,-4.4399,-4.3864,-4.31,-4.3168,-4.246,-4.156,-4.1281,-4.1116,-4.0952,-4.0987,-4.0477,-4.0049,-3.9735,-3.9704,-3.975,-3.97,-3.9908,-4.0504,-4.0449,-4.0432,-4.0407,-4.0389,-4.0448,-4.0403,-4.0366,-4.0291,-4.0157,-4.0058,-3.9994,-3.9943,-3.9892,-3.9922,-3.9933,-3.9922,-3.9911,-3.9815,-3.9747,-3.9712,-3.9708,-3.9715,-3.9691,-3.9644,-3.9607,-3.9589,-3.9439,-3.9285,-3.9269,-3.9253,-3.912,-3.9031,-3.8993,-3.8906,-3.8755,-3.8811,-3.9019,-3.904,-3.8996,-3.8821,-3.8608,-4.9519,-5.0187,-5.0206,-4.9691,-4.9129,-4.9071,-4.9014,-4.914,-4.9996,-5.0348,-5.0302,-5.0245,-5.0103,-5.0237,-5.0187,-5.0142,-5.0161,-5.0168,-5.0225,-5.0283,-5.0302,-5.0302,-5.0302,-5.0302,-5.0302,-5.0302,-5.0302,-5.0302,-5.0302,-5.0302,-5.0302,-5.0168,-4.9805,-4.9538,-4.9251,-4.9156,-4.8678,-4.8009,-4.7627,-4.7417,-4.7578,-4.7264,-4.6978,-4.6768,-4.6443,-4.6023,-4.5698,-4.5411,-4.5316,-4.5277,-4.5277,-4.5277,-4.5277,-4.5277,-4.5277,-4.5258,-4.5201,-4.4322,-4.3596,-4.3855,-4.3702,-4.3005,-4.2939,-4.2516,-4.1998,-4.1682,-4.1336,-4.0971,-4.0767,-4.0605,-4.0501,-4.0452,-4.0413,-4.0511,-4.0407,-4.0381,-4.0354,-4.0394,-4.049,-4.0501,-4.0511,-4.0396,-4.0076,-3.9954,-3.9856,-3.977,-3.9717,-3.9682,-3.9705,-3.9739,-3.9747,-3.9754,-3.9684,-3.9637,-3.9644,-3.9619,-3.9558,-3.9477,-3.947,-3.9419,-3.9296,-3.9183,-3.9133,-3.9068,-3.895,-3.8862,-3.8785,-3.868,-3.8541,-3.8679,-3.883,-3.8905,-3.8816,-3.8889,-3.8784,-4.8888,-4.8544,-4.8514,-4.8372,-4.82,-4.8181,-4.8525,-4.9167,-4.9981,-5.0314,-5.0264,-4.9691,-4.9805,-5.0225,-4.971,-4.9901,-5.013,-5.0302,-5.0283,-5.0302,-5.0302,-5.0302,-5.0302,-5.0302,-5.0302,-5.0302,-5.0302,-5.0302,-5.0302,-5.0302,-5.0302,-5.0206,-4.9767,-4.948,-4.9404,-4.9633,-4.8774,-4.8162,-4.7837,-4.7895,-4.7998,-4.7914,-4.7627,-4.7302,-4.6795,-4.6385,-4.6003,-4.5507,-4.5354,-4.5277,-4.5288,-4.5288,-4.5277,-4.5277,-4.5277,-4.5277,-4.5239,-4.502,-4.4704,-4.4781,-4.4723,-4.4456,-4.4459,-4.3694,-4.3015,-4.2489,-4.2335,-4.1952,-4.1751,-4.1607,-4.1224,-4.106,-4.086,-4.065,-4.0612,-4.0632,-4.0662,-4.0826,-4.0883,-4.0664,-4.0673,-4.0354,-4.0038,-3.9804,-3.9712,-3.9611,-3.952,-3.9502,-3.9502,-3.9539,-3.9551,-3.9557,-3.9564,-3.9483,-3.9477,-3.947,-3.9375,-3.9309,-3.9296,-3.9288,-3.9161,-3.9045,-3.8993,-3.8892,-3.8788,-3.8664,-3.8572,-3.8478,-3.8399,-3.837,-3.8502,-3.8611,-3.8685,-3.8813,-3.8923,-4.8277,-4.7826,-4.7788,-4.7597,-4.7368,-4.7635,-4.7971,-4.8239,-4.8965,-4.9461,-4.9748,-4.9339,-4.9538,-5.0168,-4.9882,-4.9882,-5.0264,-5.0302,-5.0302,-5.0302,-5.0302,-5.0302,-5.0302,-5.0302,-5.0302,-5.0302,-5.0302,-5.0302,-5.0283,-5.0302,-5.0302,-5.0225,-4.9843,-4.9366,-4.9137,-4.9003,-4.8391,-4.7971,-4.7837,-4.8105,-4.8239,-4.8296,-4.7952,-4.7521,-4.6929,-4.6757,-4.6099,-4.5507,-4.5354,-4.5163,-4.5116,-4.4991,-4.5125,-4.5277,-4.5277,-4.5277,-4.5277,-4.5258,-4.5125,-4.5163,-4.5258,-4.5277,-4.5277,-4.4772,-4.4122,-4.3569,-4.312,-4.269,-4.2652,-4.2517,-4.202,-4.156,-4.1216,-4.0873,-4.094,-4.0988,-4.118,-4.1361,-4.1198,-4.0901,-4.0611,-4.0306,-4.0015,-3.9776,-3.9539,-3.9414,-3.9324,-3.9272,-3.929,-3.9343,-3.9356,-3.9343,-3.9343,-3.9317,-3.9322,-3.9283,-3.9197,-3.9156,-3.917,-3.9133,-3.9017,-3.895,-3.8862,-3.8758,-3.8618,-3.851,-3.8433,-3.8385,-3.8322,-3.8309,-3.8403,-3.8657,-3.8838,-3.8983,-3.9093,-4.7654,-4.7551,-4.7616,-4.7054,-4.6577,-4.7169,-4.7101,-4.6557,-4.7272,-4.8143,-4.8812,-4.888,-4.9213,-4.9805,-4.9691,-4.9882,-5.0187,-5.0302,-5.0302,-5.0302,-5.0302,-5.0302,-5.0302,-5.0302,-5.0302,-5.0302,-5.0302,-5.0302,-5.0264,-5.013,-4.9977,-5.013,-4.9125,-4.8659,-4.8754,-4.8869,-4.8239,-4.7188,-4.7608,-4.8086,-4.7818,-4.7674,-4.7532,-4.7035,-4.7062,-4.7139,-4.5908,-4.5373,-4.5277,-4.501,-4.4809,-4.4694,-4.5019,-4.5057,-4.5076,-4.5277,-4.5277,-4.5277,-4.5277,-4.5277,-4.5277,-4.5277,-4.5277,-4.5163,-4.4734,-4.4409,-4.3941,-4.3693,-4.3655,-4.3024,-4.2451,-4.2078,-4.1734,-4.1218,-4.0969,-4.1389,-4.1894,-4.2053,-4.2007,-4.1659,-4.1184,-4.0806,-4.0184,-3.9927,-3.9407,-3.9251,-3.9142,-3.9092,-3.9078,-3.912,-3.9142,-3.9142,-3.917,-3.917,-3.9133,-3.9106,-3.9045,-3.9017,-3.9017,-3.8931,-3.877,-3.874,-3.8725,-3.859,-3.8433,-3.8387,-3.834,-3.829,-3.8292,-3.8313,-3.8461,-3.8788,-3.9024,-3.9296,-3.906,-4.6462,-4.5889,-4.5908,-4.5755,-4.5602,-4.5812,-4.5812,-4.5602,-4.5774,-4.6748,-4.7799,-4.7589,-4.8067,-4.9308,-4.8945,-4.9194,-5.0168,-5.0302,-5.0302,-5.0302,-5.0302,-5.0302,-5.0302,-5.0302,-5.0302,-5.0302,-5.0302,-5.0168,-4.9958,-4.9671,-4.9423,-4.948,-4.906,-4.9156,-4.8449,-4.8697,-4.8525,-4.692,-4.7837,-4.799,-4.7379,-4.8124,-4.843,-4.7761,-4.7578,-4.7207,-4.6214,-4.5545,-4.5392,-4.5182,-4.5082,-4.5072,-4.5194,-4.4603,-4.4692,-4.5125,-4.5277,-4.5277,-4.5277,-4.5277,-4.5277,-4.5277,-4.5277,-4.5277,-4.5182,-4.5067,-4.4895,-4.4723,-4.4322,-4.3577,-4.2937,-4.2593,-4.2287,-4.1666,-4.1159,-4.1911,-4.2622,-4.2696,-4.2754,-4.2293,-4.1824,-4.118,-4.0509,-3.992,-3.9394,-3.9115,-3.9021,-3.8921,-3.8848,-3.8862,-3.8931,-3.896,-3.9021,-3.9021,-3.8964,-3.8906,-3.8844,-3.877,-3.8707,-3.8634,-3.8544,-3.8512,-3.8496,-3.837,-3.8241,-3.8241,-3.8276,-3.8242,-3.8245,-3.8281,-3.8554,-3.8898,-3.9604,-4.0003,-3.9387,-4.5717,-4.5269,-4.4876,-4.4953,-4.5201,-4.4895,-4.4934,-4.5239,-4.5277,-4.5793,-4.6634,-4.6672,-4.7455,-4.8899,-4.8582,-4.8888,-5.0111,-5.0283,-5.0302,-5.0302,-5.0302,-5.0302,-5.0302,-5.0264,-5.0302,-5.0264,-4.9843,-4.9595,-4.9328,-4.9347,-4.9186,-4.911,-4.948,-4.9328,-4.8449,-4.9175,-4.8945,-4.7283,-4.8525,-4.8391,-4.7551,-4.843,-4.8086,-4.7379,-4.7169,-4.694,-4.6233,-4.5488,-4.5392,-4.5297,-4.5218,-4.4834,-4.4815,-4.4673,-4.4836,-4.5125,-4.5277,-4.5277,-4.5277,-4.5277,-4.5277,-4.5297,-4.5277,-4.5277,-4.5277,-4.5163,-4.5142,-4.4989,-4.4949,-4.4319,-4.3618,-4.3177,-4.3151,-4.2779,-4.2542,-4.2826,-4.3134,-4.3208,-4.2849,-4.2216,-4.165,-4.0959,-4.0312,-3.9661,-3.9185,-3.8964,-3.8866,-3.8743,-3.8667,-3.864,-3.8695,-3.874,-3.8803,-3.8773,-3.8683,-3.8652,-3.8652,-3.8541,-3.8462,-3.8462,-3.8446,-3.8338,-3.8241,-3.8316,-3.8299,-3.8209,-3.8209,-3.8355,-3.8263,-3.8245,-3.8608,-3.9043,-3.9822,-4.0564,-4.022,-4.5316,-4.5163,-4.4513,-4.4609,-4.5154,-4.4532,-4.4628,-4.522,-4.5297,-4.5297,-4.5498,-4.608,-4.7341,-4.8296,-4.8812,-4.9442,-4.9843,-4.9882,-5.0034,-5.0283,-5.0302,-5.0302,-5.0245,-5.0168,-4.9901,-4.9576,-4.9156,-4.8602,-4.8113,-4.8258,-4.843,-4.8747,-4.8899,-4.8907,-4.8965,-4.9022,-4.8621,-4.8372,-4.8812,-4.9052,-4.9022,-4.9003,-4.778,-4.7073,-4.6768,-4.6806,-4.587,-4.5297,-4.5297,-4.4942,-4.4807,-4.4641,-4.4565,-4.4603,-4.4701,-4.494,-4.522,-4.5144,-4.5086,-4.5163,-4.5239,-4.5286,-4.5297,-4.5267,-4.5267,-4.5275,-4.5254,-4.5222,-4.5181,-4.4854,-4.4143,-4.3729,-4.3732,-4.3759,-4.3639,-4.3452,-4.3529,-4.3637,-4.3062,-4.2353,-4.1645,-4.0984,-4.037,-3.9694,-3.9106,-3.888,-3.8704,-3.8578,-3.8499,-3.8483,-3.8496,-3.8512,-3.8512,-3.8465,-3.8417,-3.8433,-3.8465,-3.8417,-3.8352,-3.8385,-3.835,-3.8272,-3.8316,-3.8535,-3.8482,-3.8554,-3.8608,-3.8771,-3.859,-3.839,-3.8753,-3.9278,-3.9967,-4.0637,-4.0999,-4.5277,-4.5277,-4.5105,-4.5144,-4.525,-4.5086,-4.5144,-4.5258,-4.5277,-4.5277,-4.5335,-4.5449,-4.6137,-4.6997,-4.6997,-4.7818,-4.9404,-4.948,-4.9862,-5.0225,-5.0283,-5.0302,-5.0206,-4.9939,-4.9003,-4.8506,-4.8239,-4.7979,-4.7379,-4.7169,-4.7073,-4.7188,-4.7952,-4.8124,-4.822,-4.8487,-4.9014,-4.8945,-4.9232,-4.9557,-4.8716,-4.8563,-4.8449,-4.7933,-4.7578,-4.671,-4.5774,-4.5335,-4.4857,-4.4272,-4.381,-4.4073,-4.4309,-4.4473,-4.4456,-4.4573,-4.4872,-4.4855,-4.4788,-4.5046,-4.5169,-4.5213,-4.5213,-4.5192,-4.5192,-4.5192,-4.5159,-4.5084,-4.4996,-4.4722,-4.4163,-4.392,-4.3844,-4.4007,-4.398,-4.3756,-4.3685,-4.3852,-4.3751,-4.2976,-4.2214,-4.1653,-4.1115,-4.0203,-3.9013,-3.8784,-3.8564,-3.8469,-3.8403,-3.837,-3.8322,-3.8323,-3.8323,-3.8289,-3.8305,-3.8322,-3.8338,-3.829,-3.8274,-3.8289,-3.8272,-3.8241,-3.8336,-3.8535,-3.8952,-3.9188,-3.926,-3.9007,-3.9061,-3.8933,-3.9115,-3.955,-4.0202,-4.0926,-4.1488]},{"header":{"parameterUnit":"m.s-1","parameterCategory":1,"la1":31.0,"la2":29.5877,"lo1":-88.7671,"lo2":-86.6584,"dy":0.0162,"dx":0.0185,"nx":115,"ny":88,"refTime":"2023-11-07T06:00:00:Z","depth":0,"parameterNumber":3,"parameterNumberName":"V-component_of_WINDS"},"data":[0.0,0.0,0.0,0.0,0.0,0.0,0.0,0.0,0.0,0.0,0.0,0.0,0.0,0.0,0.0,0.0,0.0,0.0,0.0,0.0,0.0,0.0,0.0,0.0,0.0,0.0,0.0,0.0,0.0,0.0,0.0,0.0,0.0,0.0,0.0,0.0,0.0,0.0,0.0,0.0,0.0,0.0,0.0,0.0,0.0,0.0,0.0,0.0,0.0,0.0,0.0,0.0,0.0,0.0,0.0,0.0,0.0,0.0,0.0,0.0,0.0,0.0,0.0,0.0,0.0,0.0,0.0,0.0,0.0,0.0,0.0,0.0,0.0,0.0,0.0,0.0,0.0,0.0,0.0,0.0,0.0,0.0,0.0,0.0,0.0,0.0,0.0,0.0,0.0,0.0,0.0,0.0,0.0,0.0,0.0,0.0,0.0,0.0,0.0,0.0,0.0,0.0,0.0,0.0,0.0,0.0,0.0,0.0,0.0,0.0,0.0,0.0,0.0,0.0,0.0,0.0,0.0,0.0,0.0,0.0,0.0,0.0,0.0,0.0,0.0,0.0,0.0,0.0,0.0,0.0,0.0,0.0,0.0,0.0,0.0,0.0,0.0,0.0,0.0,0.0,0.0,0.0,0.0,0.0,0.0,0.0,0.0,0.0,0.0,0.0,0.0,0.0,0.0,0.0,0.0,0.0,0.0,0.0,0.0,0.0,0.0,0.0,0.0,0.0,0.0,0.0,0.0,0.0,0.0,0.0,0.0,0.0,0.0,0.0,0.0,0.0,0.0,0.0,0.0,0.0,0.0,0.0,0.0,0.0,0.0,0.0,0.0,0.0,0.0,0.0,0.0,0.0,0.0,0.0,0.0,0.0,0.0,0.0,0.0,0.0,0.0,0.0,0.0,0.0,0.0,0.0,0.0,0.0,0.0,0.0,0.0,0.0,0.0,0.0,0.0,0.0,0.0,0.0,0.0,0.0,0.0,0.0,0.0,0.0,0.0,0.0,0.0,0.0,0.0,0.0,0.0,0.0,0.0,0.0,0.0,0.0,0.0,0.0,0.0,0.0,0.0,0.0,0.0,0.0,0.0,0.0,0.0,0.0,0.0,0.0,0.0,0.0,0.0,0.0,0.0,0.0,0.0,0.0,0.0,0.0,0.0,0.0,0.0,0.0,0.0,0.0,0.0,0.0,0.0,0.0,0.0,0.0,0.0,0.0,0.0,0.0,0.0,0.0,0.0,0.0,0.0,0.0,0.0,0.0,0.0,0.0,0.0,0.0,0.0,0.0,0.0,0.0,0.0,0.0,0.0,0.0,0.0,0.0,0.0,0.0,0.0,0.0,0.0,0.0,0.0,0.0,0.0,0.0,0.0,0.0,0.0,0.0,0.0,0.0,0.0,0.0,0.0,0.0,0.0,0.0,0.0,0.0,0.0,0.0,0.0,0.0,0.0,0.0,0.0,0.0,0.0,0.0,0.0,0.0,0.0,0.0,0.0,0.0,0.0,0.0,0.0,0.0,0.0,0.0,0.0,0.0,0.0,0.0,0.0,0.0,0.0,0.0,0.0,0.0,0.0,0.0,0.0,0.0,0.0,0.0,0.0,0.0,0.0,0.0,0.0,0.0,0.0,0.0,0.0,0.0,0.0,0.0,0.0,0.0,0.0,0.0,0.0,0.0,0.0,0.0,0.0,0.0,0.0,0.0,0.0,0.0,0.0,0.0,0.0,0.0,0.0,0.0,0.0,0.0,0.0,0.0,0.0,0.0,0.0,0.0,0.0,0.0,0.0,0.0,0.0,0.0,0.0,0.0,0.0,0.0,0.0,0.0,0.0,0.0,0.0,0.0,0.0,0.0,0.0,0.0,0.0,0.0,0.0,0.0,0.0,0.0,0.0,0.0,0.0,0.0,0.0,0.0,0.0,0.0,0.0,0.0,0.0,0.0,0.0,0.0,0.0,0.0,0.0,0.0,0.0,0.0,0.0,0.0,0.0,0.0,0.0,0.0,0.0,0.0,0.0,0.0,0.0,0.0,0.0,0.0,0.0,0.0,0.0,0.0,0.0,0.0,0.0,0.0,0.0,0.0,0.0,0.0,0.0,0.0,0.0,0.0,0.0,0.0,0.0,0.0,0.0,0.0,0.0,0.0,0.0,0.0,0.0,0.0,0.0,0.0,0.0,0.0,0.0,0.0,0.0,0.0,0.0,0.0,0.0,0.0,0.0,0.0,0.0,0.0,0.0,0.0,0.0,0.0,0.0,0.0,0.0,0.0,0.0,0.0,0.0,0.0,0.0,0.0,0.0,0.0,0.0,0.0,0.0,0.0,0.0,0.0,0.0,0.0,0.0,0.0,0.0,0.0,0.0,0.0,0.0,0.0,0.0,0.0,0.0,0.0,0.0,0.0,0.0,0.0,0.0,0.0,0.0,0.0,0.0,0.0,0.0,0.0,0.0,0.0,0.0,0.0,0.0,0.0,0.0,0.0,0.0,0.0,0.0,0.0,0.0,0.0,0.0,0.0,0.0,0.0,0.0,0.0,0.0,0.0,0.0,0.0,0.0,0.0,0.0,0.0,0.0,0.0,0.0,0.0,0.0,0.0,0.0,0.0,0.0,0.0,0.0,0.0,0.0,0.0,0.0,0.0,0.0,0.0,0.0,0.0,0.0,0.0,0.0,0.0,0.0,0.0,0.0,0.0,0.0,0.0,0.0,0.0,0.0,0.0,0.0,0.0,0.0,0.0,0.0,0.0,0.0,0.0,0.0,0.0,0.0,0.0,0.0,0.0,0.0,0.0,0.0,0.0,0.0,0.0,0.0,0.0,0.0,0.0,0.0,0.0,0.0,0.0,0.0,0.0,0.0,0.0,0.0,0.0,0.0,0.0,0.0,0.0,0.0,0.0,0.0,0.0,0.0,0.0,0.0,0.0,0.0,0.0,0.0,0.0,0.0,0.0,0.0,0.0,0.0,0.0,0.0,0.0,0.0,0.0,0.0,0.0,0.0,0.0,0.0,0.0,0.0,0.0,0.0,0.0,0.0,0.0,0.0,0.0,0.0,0.0,0.0,0.0,0.0,0.0,0.0,0.0,0.0,0.0,0.0,0.0,0.0,0.0,0.0,0.0,0.0,0.0,0.0,0.0,0.0,0.0,0.0,0.0,0.0,0.0,0.0,0.0,0.0,0.0,0.0,0.0,0.0,0.0,0.0,0.0,0.0,0.0,0.0,0.0,0.0,0.0,0.0,0.0,0.0,0.0,0.0,0.0,0.0,0.0,0.0,0.0,0.0,0.0,0.0,0.0,0.0,0.0,0.0,0.0,0.0,0.0,0.0,0.0,0.0,0.0,0.0,0.0,0.0,0.0,0.0,0.0,0.0,0.0,0.0,0.0,0.0,0.0,0.0,0.0,0.0,0.0,0.0,0.0,0.0,0.0,0.0,0.0,0.0,0.0,0.0,0.0,0.0,0.0,0.0,0.0,0.0,0.0,0.0,0.0,0.0,0.0,0.0,0.0,0.0,0.0,0.0,0.0,0.0,0.0,0.0,0.0,0.0,0.0,0.0,0.0,0.0,0.0,0.0,0.0,0.0,0.0,0.0,0.0,0.0,0.0,0.0,0.0,0.0,0.0,0.0,0.0,0.0,0.0,0.0,0.0,0.0,0.0,0.0,0.0,0.0,0.0,0.0,0.0,0.0,0.0,0.0,0.0,0.0,0.0,0.0,0.0,0.0,0.0,0.0,0.0,0.0,0.0,0.0,0.0,0.0,0.0,0.0,0.0,0.0,0.0,0.0,0.0,0.0,0.0,0.0,0.0,0.0,0.0,0.0,0.0,0.0,0.0,0.0,0.0,0.0,0.0,0.0,0.0,0.0,0.0,0.0,0.0,0.0,0.0,0.0,0.0,0.0,0.0,0.0,0.0,0.0,0.0,0.0,0.0,0.0,0.0,0.0,0.0,0.0,0.0,0.0,0.0,0.0,0.0,0.0,0.0,0.0,0.0,0.0,0.0,0.0,0.0,0.0,0.0,0.0,0.0,0.0,0.0,0.0,0.0,0.0,0.0,0.0,0.0,0.0,0.0,0.0,0.0,0.0,0.0,0.0,0.0,0.0,0.0,0.0,0.0,0.0,0.0,0.0,0.0,0.0,0.0,0.0,0.0,0.0,0.0,0.0,0.0,0.0,0.0,0.0,0.0,0.0,0.0,0.0,0.0,0.0,0.0,0.0,0.0,0.0,0.0,0.0,0.0,0.0,0.0,0.0,0.0,0.0,0.0,0.0,0.0,0.0,0.0,0.0,0.0,0.0,0.0,0.0,0.0,0.0,0.0,0.0,0.0,0.0,0.0,0.0,0.0,0.0,0.0,0.0,0.0,0.0,0.0,0.0,0.0,0.0,0.0,0.0,0.0,0.0,0.0,0.0,0.0,0.0,0.0,0.0,0.0,0.0,0.0,0.0,0.0,0.0,0.0,0.0,0.0,0.0,0.0,0.0,0.0,0.0,0.0,0.0,0.0,0.0,0.0,0.0,0.0,0.0,0.0,0.0,0.0,0.0,0.0,0.0,0.0,0.0,0.0,0.0,0.0,0.0,0.0,0.0,0.0,0.0,0.0,0.0,0.0,0.0,0.0,0.0,0.0,0.0,0.0,0.0,0.0,0.0,0.0,0.0,0.0,0.0,0.0,0.0,0.0,0.0,0.0,0.0,0.0,0.0,0.0,0.0,0.0,0.0,0.0,0.0,0.0,0.0,0.0,0.0,0.0,0.0,0.0,0.0,0.0,0.0,0.0,0.0,0.0,0.0,0.0,0.0,0.0,0.0,0.0,0.0,0.0,0.0,0.0,0.0,0.0,0.0,0.0,0.0,0.0,0.0,0.0,0.0,0.0,0.0,0.0,0.0,0.0,0.0,0.0,0.0,0.0,0.0,0.0,0.0,0.0,0.0,0.0,0.0,0.0,0.0,0.0,0.0,0.0,0.0,0.0,0.0,0.0,0.0,0.0,0.0,0.0,0.0,0.0,0.0,0.0,0.0,0.0,0.0,0.0,0.0,0.0,0.0,0.0,0.0,0.0,0.0,0.0,0.0,0.0,0.0,0.0,0.0,0.0,0.0,0.0,0.0,0.0,0.0,0.0,0.0,0.0,0.0,0.0,0.0,0.0,0.0,0.0,0.0,0.0,0.0,0.0,0.0,0.0,0.0,0.0,0.0,0.0,0.0,0.0,0.0,0.0,0.0,0.0,0.0,0.0,0.0,0.0,0.0,0.0,0.0,0.0,0.0,0.0,0.0,0.0,0.0,0.0,0.0,0.0,0.0,0.0,0.0,0.0,0.0,0.0,0.0,0.0,0.0,0.0,0.0,0.0,0.0,0.0,0.0,0.0,0.0,0.0,0.0,0.0,0.0,0.0,0.0,0.0,0.0,0.0,0.0,0.0,0.0,0.0,0.0,0.0,0.0,0.0,0.0,0.0,0.0,0.0,0.0,0.0,0.0,0.0,0.0,0.0,0.0,0.0,0.0,0.0,0.0,0.0,0.0,0.0,0.0,0.0,0.0,0.0,0.0,0.0,0.0,0.0,0.0,0.0,0.0,0.0,0.0,0.0,0.0,0.0,0.0,0.0,0.0,0.0,0.0,0.0,0.0,0.0,0.0,0.0,0.0,0.0,0.0,0.0,0.0,0.0,0.0,0.0,0.0,0.0,0.0,0.0,0.0,0.0,0.0,0.0,0.0,0.0,0.0,0.0,0.0,0.0,0.0,0.0,0.0,0.0,0.0,0.0,0.0,0.0,0.0,0.0,0.0,0.0,0.0,0.0,0.0,0.0,0.0,0.0,0.0,0.0,0.0,0.0,0.0,0.0,0.0,0.0,0.0,0.0,0.0,0.0,0.0,0.0,0.0,0.0,0.0,0.0,0.0,0.0,0.0,0.0,0.0,0.0,0.0,0.0,0.0,0.0,0.0,0.0,0.0,0.0,0.0,0.0,0.0,0.0,0.0,0.0,0.0,0.0,0.0,0.0,0.0,0.0,0.0,0.0,0.0,0.0,0.0,0.0,0.0,0.0,0.0,0.0,0.0,0.0,0.0,0.0,0.0,0.0,0.0,0.0,0.0,0.0,0.0,0.0,0.0,0.0,0.0,0.0,0.0,0.0,0.0,0.0,0.0,0.0,0.0,0.0,0.0,0.0,0.0,0.0,0.0,0.0,0.0,0.0,0.0,0.0,0.0,0.0,0.0,0.0,0.0,0.0,0.0,0.0,0.0,0.0,0.0,0.0,0.0,0.0,0.0,0.0,0.0,0.0,0.0217,0.0656,0.0864,0.0958,0.0,0.0,0.0,0.0,0.0,0.0,0.0,0.0,0.0,0.0,0.0,0.0,0.0,0.0,0.0,0.0,0.0,0.0,0.0,0.0,0.0,0.0,0.0,0.0,0.0,0.0,0.0,0.0,0.0,0.0,0.0,0.0,0.0,0.0,0.0,0.0,0.0,0.0,0.0,0.0,0.0,0.0,0.0,0.0,0.0,0.0,0.0,0.0,0.0,0.0,0.0,0.0,0.0,0.0,0.0,0.0,0.0,0.0,0.0,0.0,0.0,0.0,0.0,0.0,0.0,0.0,0.0,0.0,0.0,0.0,0.0,0.0,0.0,0.0,0.0,0.0,0.0,0.0,0.0,0.0,0.0,0.0,0.0,0.0,0.0,0.0,0.0,0.0,0.0,0.0,0.0,0.0,0.0,0.0,0.0,0.0,0.0,0.0,0.0,0.0,0.0,0.0,0.0,0.0,0.0,0.0,0.0,0.0,0.0,0.0,0.0124,0.0454,0.0983,0.139,0.1572,0.1525,0.0,0.0,0.0,0.0,0.0,0.0,0.0,0.0,0.0,0.0,0.0,0.0,0.0,0.0,0.0,0.0,0.0,0.0,0.0,0.0,0.0,0.0,0.0,0.0,0.0,0.0,0.0,0.0,0.0,0.0,0.0,0.0,0.0,0.0,0.0,0.0,0.0,0.0,0.0,0.0,0.0,0.0,0.0,0.0,0.0,0.0,0.0,0.0,0.0,0.0,0.0,0.0,0.0,0.0,0.0,0.0,0.0,0.0,0.0,0.0,0.0,0.0,0.0,0.0,0.0,0.0,0.0,0.0,0.0,0.0,0.0,0.0,0.0,0.0,0.0,0.0,0.0,0.0,0.0,0.0,0.0,0.0,0.0,0.0,0.0,0.0,0.0,0.0,0.0,0.0,0.0,0.0,0.0,0.0,0.0,0.0,0.0,0.0,0.0,0.0,0.0,0.0,0.0,0.0,0.0,0.0,0.0,0.0,0.0029,0.0436,0.0679,0.0722,0.1303,0.1505,0.0,0.0,0.0,0.0,0.0,0.0,0.0,0.0,0.0,0.0,0.0,0.0,0.0,0.0,0.0,0.0,0.0,0.0,0.0,0.0,0.0,0.0,0.0,0.0,0.0,0.0,0.0,0.0,0.0,0.0,0.0,0.0,0.0,0.0,0.0,0.0,0.0,0.0,0.0,0.0,0.0,0.0,0.0,0.0,0.0,0.0,0.0,0.0,0.0,0.0,0.0,0.0,0.0,0.0,0.0,0.0,0.0,0.0,0.0,0.0,0.0,0.0,0.0,0.0,0.0,0.0,0.0,0.0,0.0,0.0,0.0,0.0,0.0,0.0,0.0,0.0,0.0,0.0,0.0,0.0,0.0,0.0,0.0,0.0,0.0,0.0,0.0,0.0,0.0,0.0,0.0,0.0,0.0,0.0,0.0,0.0,0.0,0.0,0.0,0.0,0.0,0.0,0.0,0.0,0.0,0.0,0.0,0.0,0.0,0.005,0.062,0.0974,0.0973,0.1588,0.1888,0.0,0.0,0.0,0.0,0.0,0.0,0.0,0.0,0.0,0.0,0.0,0.0,0.0,0.0,0.0,0.0,0.0,0.0,0.0,0.0,0.0,0.0,0.0,0.0,0.0,0.0,0.0,0.0,0.0,0.0,0.0,0.0,0.0,0.0,0.0,0.0,0.0,0.0,0.0,0.0,0.0,0.0,0.0,0.0,0.0,0.0,0.0,0.0,0.0,0.0,0.0,0.0,0.0,0.0,0.0,0.0,0.0,0.0,0.0,0.0,0.0,0.0,0.0,0.0,0.0,0.0,0.0,0.0,0.0,0.0,0.0,0.0,0.0,0.0,0.0,0.0,0.0,0.0,0.0,0.0,0.0,0.0,0.0,0.0,0.0,0.0,0.0,0.0,0.0,0.0,0.0,0.0,0.0,0.0,0.0,0.0,0.0,0.0,0.0,0.0,0.0,0.0,0.0,0.0,0.0,0.0,0.0,0.0,0.0,0.0267,0.0,0.1182,0.0991,0.1703,0.2083,0.0,0.0,0.0,0.0,0.0,0.0,0.0,0.0,0.0,0.0,0.0,0.0,0.0,0.0,0.0,0.0,0.0,0.0,0.0,0.0,0.0,0.0,0.0,0.0,0.0,0.0,0.0,0.0,0.0,0.0,0.0,0.0,0.0,0.0,0.0,0.0,0.0,0.0,0.0,0.0,0.0,0.0,0.0,0.0,0.0,0.0,0.0,0.0,0.0,0.0,0.0,0.0,0.0,0.0,0.0,0.0,0.0,0.0,0.0,0.0,0.0,0.0,0.0,0.0,0.0,0.0,0.0,0.0,0.0,0.0,0.0,0.0,0.0,0.0,0.0,0.0,0.0,0.0,0.0,0.0,0.0,0.0,0.0,0.0,0.0,0.0,0.0,0.0,0.0,0.0,0.0,0.0,0.0,0.0,0.0,0.0,0.0,0.0,0.0,0.0,0.0,0.0,0.0,0.0,0.0,0.0,0.0,0.0,0.1284,0.0723,0.1236,0.1251,0.075,0.1591,0.1999,0.0,0.0,0.0,0.0,0.0,0.0,0.0,0.0,0.0,0.0,0.0,0.0,0.0,0.0,0.0,0.0,0.0,0.0,0.0,0.0,0.0,0.0,0.0,0.0,0.0,0.0,0.0,0.0,0.0,0.0,0.0,0.0,0.0,0.0,0.0,0.0,0.0,0.0,0.0,0.0,0.0,0.0,0.0,0.0,0.0,0.0,0.0,0.0,0.0,0.0,0.0,0.0,0.0,0.0,0.0,0.0,0.0,0.0,0.0,0.0,0.0,0.0,0.0,0.0,0.0,0.0,0.0,0.0,0.0,0.0,0.0,0.0,0.0,0.0,0.0,0.0,0.0,0.0,0.0,0.0,0.0,0.0,0.0,0.0,0.0,0.0,0.0,0.0,0.0,0.0,0.0,0.0,0.0,0.0,0.0,0.0,0.0,0.0,0.0,0.0,0.0,0.0,0.0,0.0,0.0,0.0,0.0,0.0,0.0,0.0261,0.0405,0.0427,0.0242,0.1082,0.1522,0.0,0.0,0.0,0.0,0.0,0.0,0.0,0.0,0.0,0.0,0.0,0.0,0.0,0.0,0.0,0.0,0.0,0.0,0.0,0.0,0.0,0.0,0.0,0.0,0.0,0.0,0.0,0.0,0.0,0.0,0.0,0.0,0.0,0.0,0.0,0.0,0.0,0.0,0.0,0.0,0.0,0.0,0.0,0.0,0.0,0.0,0.0,0.0,0.0,0.0,0.0,0.0,0.0,0.0,0.0,0.0,0.0,0.0,0.0,0.0,0.0,0.0,0.0,0.0,0.0,0.0,0.0,0.0,0.0,0.0,0.0,0.0,0.0,0.0,0.0,0.0,0.0,0.0,0.0,0.0,0.0,0.0,0.0,0.0,0.0,0.0,0.0,0.0,0.0,0.0,0.0,0.0,0.0,0.0,0.0,0.0,0.0,0.0,0.0,0.0,0.0,0.0,0.0,0.0,0.0,0.0,0.0,0.0,0.0,0.0891,0.109,0.1103,0.0903,0.1454,0.1753,0.1767,0.0,0.0,0.0,0.0,0.0,0.0,0.0,0.0,0.0,0.0,0.0,0.0,0.0,0.0,0.0,0.0,0.0,0.0,0.0,0.0,0.0,0.0,0.0,0.0,0.0,0.0,0.0,0.0,0.0,0.0,0.0,0.0,0.0,0.0,0.0,0.0,0.0,0.0,0.0,0.0,0.0,0.0,0.0,0.0,0.0,0.0,0.0,0.0,0.0,0.0,0.0,0.0,0.0,0.0,0.0,0.0,0.0,0.0,0.0,0.0,0.0,0.0,0.0,0.0,0.0,0.0,0.0,0.0,0.0,0.0,0.0,0.0,0.0,0.0,0.0,0.0,0.0,0.0,0.0,0.0,0.0,0.0,0.0,0.0,0.0,0.0,0.0,0.0,0.0,0.0,0.0,0.0,0.0,0.0,0.0,0.0,0.0,0.0,0.0,0.0,0.0,0.0,0.0,0.0,0.0,0.0,0.0,0.0,0.237,0.2979,0.2982,0.2428,0.2496,0.2519,0.0,0.0,0.0,0.0,0.0,0.0,0.0,0.0,0.0,0.0,0.0,0.0,0.0,0.0,0.0,0.0,0.0,0.0,0.0,0.0,0.0,0.0,0.0,0.0,0.0,0.0,0.0,0.0,0.0,0.0,0.0,0.0,0.0,0.0,0.0,0.0,0.0,0.0,0.0,0.0,0.0,0.0,0.0,0.0,0.0,0.0,0.0,0.0,0.0,0.0,0.0,0.0,0.0,0.0,0.0,0.0,0.0,0.0,0.0,0.0,0.0,0.0,0.0,0.0,0.0,0.0,0.0,0.0,0.0,0.0,0.0,0.0,0.0,0.0,0.0,0.0,0.0,0.0,0.0,0.0,0.0,0.0,0.0,0.0,0.0,0.0,0.0,0.0,0.0,0.0,0.0,0.0,0.0,0.0,0.0,0.0,0.0,0.0,0.0,0.0,0.0,0.0,0.0,0.0,0.0,0.0,0.0,0.0,0.0,0.333,0.4118,0.3914,0.276,0.2913,0.2966,0.0,0.0,0.0,0.0,0.0,0.0,0.0,0.0,0.0,0.0,0.0,0.0,0.0,0.0,0.0,0.0,0.0,0.0,0.0,0.0,0.0,0.0,0.0,0.0,0.0,0.0,0.0,0.0,0.0,0.0,0.0,0.0,0.0,0.0,0.0,0.0,0.0,0.0,0.0,0.0,0.0,0.0,0.0,0.0,0.0,0.0,0.0,0.0,0.0,0.0,0.0,0.0,0.0,0.0,0.0,0.0,0.0,0.0,0.0,0.0,0.0,0.0,0.0,0.0,0.0,0.0,0.0,0.0,0.0,0.0,0.0,0.0,0.0,0.0,0.0,0.0,0.0,0.0,0.0,0.0,0.0,0.0,0.0,0.0,0.0,0.0,0.0,0.0,0.0,0.0,0.0,0.0,0.0,0.0,0.0,0.0,0.0,0.0,0.0,0.0,0.0,0.0,0.0,0.0,0.0,0.0,0.0,0.0,0.325,0.4292,0.5036,0.4961,0.4035,0.4012,0.3819,0.0,0.0,0.0,0.0,0.0,0.0,0.0,0.0,0.0,0.0,0.0,0.0,0.0,0.0,0.0,0.0,0.0,0.0,0.0,0.0,0.0,0.0,0.0,0.0,0.0,0.0,0.0,0.0,0.0,0.0,0.0,0.0,0.0,0.0,0.0,0.0,0.0,0.0,0.0,0.0,0.0,0.0,0.0,0.0,0.0,0.0,0.0,0.0,0.0,0.0,0.0,0.0,0.0,0.0,0.0,0.0,0.0,0.0,0.0,0.0,0.0,0.0,0.0,0.0,0.0,0.0,0.0,0.0,0.0,0.0,0.0,0.0,0.0,0.0,0.0,0.0,0.0,0.0,0.0,0.0,0.0,0.0,0.0,0.0,0.0,0.0,0.0,0.0,0.0,0.0,0.0,0.0,0.0,0.0,0.0,0.0,0.0,0.0,0.0,0.0,0.0,0.0,0.0,0.0,0.0,0.0,0.0,0.0,0.3711,0.5208,0.5591,0.5758,0.5732,0.5321,0.4831,0.0,0.0,0.0,0.0,0.0,0.0,0.0,0.0,0.0,0.0,0.0,0.0,0.0,0.0,0.0,0.0,0.0,0.0,0.0,0.0,0.0,0.0,0.0,0.0,0.0,0.0,0.0,0.0,0.0,0.0,0.0,0.0,0.0,0.0,0.0,0.0,0.0,0.0,0.0,0.0,0.0,0.0,0.0,0.0,0.0,0.0,0.0,0.0,0.0,0.0,0.0,0.0,0.0,0.0,0.0,0.0,0.0,0.0,0.0,0.0,0.0,0.0,0.0,0.0,0.0,0.0,0.0,0.0,0.0,0.0,0.0,0.0,0.0,0.0,0.0,0.0,0.0,0.0,0.0,0.0,0.0,0.0,0.0,0.0,0.0,0.0,0.0,0.0,0.0,0.0,0.0,0.0,0.0,0.0,0.0,0.0,0.0,0.0,0.0,0.0,0.0,0.0,0.0,0.0,0.0,0.0,0.0,0.0,0.3714,0.5319,0.5081,0.529,0.5918,0.5266,0.4766,0.0,0.0,0.0,0.0,0.0,0.0,0.0,0.0,0.0,0.0,0.0,0.0,0.0,0.0,0.0,0.0,0.0,0.0,0.0,0.0,0.0,0.0,0.0,0.0,0.0,0.0,0.0,0.0,0.0,0.0,0.0,0.0,0.0,0.0,0.0,0.0,0.0,0.0,0.0,0.0,0.0,0.0,0.0,0.0,0.0,0.0,0.0,0.0,-0.2748,0.0,0.0,0.0,0.0,0.0,0.0,0.0,0.0,0.0,0.0,0.0,0.0,0.0,0.0,0.0,0.0,0.0,0.0,0.0,0.0,0.0,0.0,0.0,0.0,0.0,0.0,0.0,0.0,0.0,0.0,0.0,0.0,0.0,0.0,0.0,0.0,0.0,0.0,0.0,0.0,0.0,0.0,0.0,0.0,0.0,0.0,0.0,0.0,0.0,0.0,0.0,0.0,0.0,0.0,0.0,0.0,0.0,0.0,0.0,0.4342,0.5636,0.556,0.5582,0.5784,0.5237,0.4775,0.0,0.0,0.0,0.0,0.0,0.0,0.0,0.0,0.0,0.0,0.0,0.0,0.0,0.0,0.0,0.0,0.0,0.0,0.0,0.0,0.0,0.0,0.0,0.0,0.0,0.0,0.0,0.0,0.0,0.0,0.0,0.0,0.0,0.0,0.0,0.0,0.0,0.0,0.0,0.0,0.0,0.0,0.0,0.0,0.0,0.0,0.0,0.0,0.0,0.0,0.0,0.0,0.0,0.0,0.0,0.0,0.0,0.0,0.0,0.0,0.0,0.0,0.0,0.0,0.0,0.0,0.0,0.0,0.0,0.0,0.0,0.0,0.0,0.0,0.0,0.0,0.0,0.0,0.0,0.0,0.0,0.0,0.0,0.0,0.0,0.0,0.0,0.0,0.0,0.0,0.0,0.0,0.0,0.0,0.0,0.0,0.0,0.0,0.0,0.0,0.0,0.0,0.0,0.0,0.0,0.0,0.0,0.4073,0.4933,0.5935,0.6041,0.5908,0.5599,0.5108,0.4728,0.4498,0.0,0.0,0.0,0.0,0.0,0.0,0.0,0.0,0.0,0.0,0.0,0.0,0.0,0.0,0.0,0.0,0.0,0.0,0.0,0.0,0.0,0.0,0.0,0.0,0.0,0.0,0.0,0.0,0.0,0.0,0.0,0.0,0.0,0.0,0.0,0.0,0.0,0.0,-0.2663,-0.2726,0.0,0.0,0.0,0.0,0.0,0.0,0.0,0.0,-0.269,0.0,0.0,0.0,0.0,0.0,0.0,0.0,0.0,0.0,0.0,0.0,0.0,0.0,0.0,0.0,0.0,0.0,0.0,0.0,0.0,0.0,0.0,0.0,0.0,0.0,0.0,0.0,0.0,0.0,0.0,0.0,0.0,0.0,0.0,0.0,0.0,0.0,0.0,0.0,0.0,0.0,0.0,0.0,0.0,0.0,0.0,0.0,0.0,0.0,0.0,0.0,0.0,0.0,0.0,0.0,0.0,0.4199,0.369,0.4258,0.5939,0.537,0.5209,0.5586,0.4938,0.4542,0.4498,0.0,0.0,0.0,0.0,0.0,0.0,0.0,0.0,0.0,0.0,0.0,0.0,0.0,0.0,0.0,0.0,0.0,0.0,0.0,0.0,0.0,0.0,0.0,0.0,0.0,0.0,0.0,0.0,0.0,0.0,0.0,0.0,0.0,0.0,0.0,0.0,0.0,0.0,0.0,-0.2775,-0.2886,0.0,0.0,0.0,0.0,0.0,0.0,0.0,0.0,-0.252,0.0,0.0,0.0,0.0,0.0,0.0,0.0,0.0,0.0,0.0,0.0,0.0,0.0,0.0,0.0,0.0,0.0,0.0,0.0,0.0,0.0,0.0,0.0,0.0,0.0,0.0,0.0,0.0,0.0,0.0,0.0,0.0,0.0,0.0,0.0,0.0,0.0,0.0,0.0,0.0,0.0,0.0,0.0,0.0,0.0,0.0,0.0,0.0,0.0,0.0,0.0,0.0,0.0,0.0,0.0,0.3654,0.4169,0.4891,0.5757,0.5504,0.5335,0.5355,0.4701,0.4412,0.0,0.0,0.0,0.0,0.0,0.0,0.0,0.0,0.0,0.0,0.0,0.0,0.0,0.0,0.0,0.0,0.0,0.0,0.0,0.0,0.0,0.0,0.0,0.0,0.0,0.0,0.0,0.0,0.0,0.0,0.0,0.0,0.0,0.0,0.0,0.0,0.0,0.0,0.0,0.0,-0.2926,-0.3026,-0.2835,0.0,0.0,0.0,0.0,0.0,0.0,-0.2762,-0.2722,0.0,0.0,0.0,0.0,0.0,0.0,0.0,0.0,0.0,0.0,0.0,0.0,0.0,0.0,0.0,0.0,0.0,0.0,0.0,0.0,0.0,0.0,0.0,0.0,0.0,0.0,0.0,0.0,0.0,0.0,0.0,0.0,0.0,0.0,0.0,0.0,0.0,0.0,0.0,0.0,0.0,0.0,0.0,0.0,0.0,0.0,0.0,0.0,0.0,0.0,0.0,0.0,0.0,0.0,0.0,0.3116,0.4509,0.54,0.5586,0.5671,0.5515,0.5059,0.4486,0.4244,0.0,0.0,0.0,0.0,0.0,0.0,0.0,0.0,0.0,0.0,0.0,0.0,0.0,0.0,0.0,0.0,0.0,0.0,0.0,0.0,0.0,0.0,0.0,0.0,0.0,0.0,0.0,0.0,0.0,0.0,0.0,0.0,0.0,0.0,0.0,0.0,0.0,0.0,0.0,0.0,0.0,-0.3123,-0.2893,-0.3053,0.0,0.0,0.0,0.0,-0.2953,-0.2978,0.0,0.0,0.0,0.0,0.0,0.0,0.0,0.0,0.0,0.0,0.0,0.0,0.0,0.0,0.0,0.0,0.0,0.0,0.0,0.0,0.0,0.0,0.0,0.0,0.0,0.0,0.0,0.0,0.0,0.0,0.0,0.0,0.0,0.0,0.0,0.0,0.0,0.0,0.0,0.0,0.0,0.0,0.0,0.0,0.0,0.0,0.0,0.0,0.0,0.0,0.0,0.0,0.0,0.0,0.0,0.0,0.3262,0.3882,0.4643,0.5518,0.5471,0.5296,0.4945,0.4331,0.4092,0.0,0.0,0.0,0.0,0.0,0.0,0.0,0.0,0.0,0.0,0.0,0.0,0.0,0.0,0.0,0.0,0.0,0.0,0.0,0.0,0.0,0.0,0.0,0.0,0.0,0.0,0.0,0.0,0.0,0.0,0.0,0.0,0.0,0.0,0.0,0.0,0.0,0.0,0.0,0.0,0.0,-0.3069,-0.2754,-0.2998,-0.3148,0.0,0.0,-0.2964,-0.3145,-0.3083,0.0,0.0,0.0,0.0,0.0,0.0,0.0,0.0,0.0,0.0,0.0,0.0,0.0,0.0,0.0,0.0,0.0,0.0,0.0,0.0,0.0,0.0,0.0,0.0,0.0,0.0,0.0,0.0,0.0,0.0,0.0,0.0,0.0,0.0,0.0,0.0,0.0,0.0,0.0,0.0,0.0,0.0,0.0,0.0,0.0,0.0,0.0,0.0,0.0,0.0,0.0,0.0,0.0,0.0,0.0,0.2693,0.2938,0.3954,0.4734,0.5164,0.5145,0.5009,0.4792,0.4172,0.3921,0.0,0.0,0.0,0.0,0.0,0.0,0.0,0.0,0.0,0.0,0.0,0.0,0.0,0.0,0.0,0.0,0.0,0.0,0.0,0.0,0.0,0.0,0.0,0.0,0.0,0.0,0.0,0.0,0.0,0.0,0.0,0.0,0.0,0.0,0.0,0.0,0.0,0.0,0.0,0.0,0.0,0.0,-0.3006,-0.3237,0.0,0.0,0.0,-0.3205,-0.3305,0.0,0.0,0.0,0.0,0.0,0.0,0.0,0.0,0.0,0.0,0.0,0.0,0.0,0.0,0.0,0.0,0.0,0.0,0.0,0.0,0.0,0.0,0.0,0.0,0.0,0.0,0.0,0.0,0.0,0.0,0.0,0.0,0.0,0.0,0.0,0.0,0.0,0.0,0.0,0.0,0.0,0.0,0.0,0.0,0.0,0.0,0.0,0.0,0.0,0.0,0.0,0.0,0.0,0.0,0.0,0.0,0.0,0.2695,0.407,0.4823,0.486,0.4894,0.4801,0.4632,0.4115,0.0,0.0,0.0,0.0,0.0,0.0,0.0,0.0,0.0,0.0,0.0,0.0,0.0,0.0,0.0,0.0,0.0,0.0,0.0,0.0,0.0,0.0,0.0,0.0,0.0,0.0,0.0,-0.0589,0.0,0.0,0.0,0.0,0.0,0.0,0.0,0.0,0.0,0.0,0.0,0.0,0.0,0.0,-0.3228,-0.3199,-0.34,-0.3474,0.0,0.0,-0.3414,-0.3471,-0.3422,-0.3318,0.0,0.0,0.0,0.0,0.0,0.0,0.0,0.0,0.0,0.0,0.0,0.0,0.0,0.0,0.0,0.0,0.0,0.0,0.0,0.0,0.0,0.0,0.0,0.0,0.0,0.0,0.0,0.0,0.0,0.0,0.0,0.0,0.0,0.0,0.0,0.0,0.0,0.0,0.0,0.0,0.0,0.0,0.0,0.0,0.0,0.0,0.0,0.0,0.0,0.0,0.0,0.0,0.0,0.0,0.0,0.2907,0.3981,0.4593,0.4701,0.4827,0.4738,0.4435,0.4361,0.4267,0.0,0.0,0.0,0.0,0.0,0.0,0.0,0.0,0.0,0.0,0.0,0.0,0.0,0.0,0.0,0.0,0.0,0.0,0.0,0.0,0.0,0.0,0.0,0.0,0.0,0.0,0.0,0.0,0.0,0.0,0.0,0.0,0.0,0.0,0.0,0.0,0.0,0.0,0.0,0.0,0.0,-0.3349,-0.321,-0.3304,-0.3406,0.0,0.0,-0.3441,-0.358,-0.3477,-0.3316,-0.3042,0.0,0.0,0.0,0.0,0.0,0.0,0.0,0.0,0.0,0.0,0.0,0.0,0.0,0.0,0.0,0.0,0.0,0.0,0.0,0.0,0.0,0.0,0.0,0.0,0.0,0.0,0.0,0.0,0.0,0.0,0.0,0.0,0.0,0.0,0.0,0.0,0.0,0.0,0.0,0.0,0.0,0.0,0.0,0.0,0.0,0.0,0.0,0.0,0.0,0.0,0.0,0.0,0.0,0.2313,0.2899,0.3632,0.4275,0.4796,0.4887,0.4783,0.4535,0.4336,0.4108,0.0,0.0,0.0,0.0,0.0,0.0,0.0,0.0,0.0,0.0,0.0,0.0,0.0,0.0,0.0,0.0,0.0,0.0,0.0,0.0,0.0,0.0,0.0,0.0,0.0,0.0,0.0,0.0,-0.0432,-0.0569,-0.1176,0.0,0.0,0.0,0.0,0.0,0.0,0.0,0.0,0.0,0.0,-0.3301,-0.343,-0.3512,0.0,0.0,-0.3602,-0.3638,-0.3613,-0.3545,-0.3406,-0.3064,-0.307,0.0,0.0,0.0,0.0,0.0,0.0,0.0,0.0,0.0,0.0,0.0,0.0,0.0,0.0,0.0,0.0,0.0,0.0,0.0,0.0,0.0,0.0,0.0,0.0,0.0,0.0,0.0,0.0,0.0,0.0,0.0,0.0,0.0,0.0,0.0,0.0,0.0,0.0,0.0,0.0,0.0,0.0,0.0,0.0,0.0,0.0,0.0,0.0,0.0,0.0,0.0,0.0,0.2131,0.2681,0.3219,0.3887,0.4623,0.4654,0.4662,0.4591,0.4395,0.4173,0.0,0.0,0.0,0.0,0.0,0.0,0.0,0.0,0.0,0.0,0.0,0.0,0.0,0.0,0.0,0.0,0.0,0.0,0.0,0.0,0.0,0.0,0.0,0.0,0.0,0.0,0.0,0.0,-0.0272,-0.0539,-0.0982,0.0,0.0,0.0,0.0,0.0,0.0,0.0,0.0,0.0,0.0,-0.339,-0.3589,-0.3613,-0.3613,-0.3613,-0.3682,-0.3701,-0.3593,-0.358,-0.3417,-0.3038,0.0,0.0,0.0,0.0,0.0,0.0,0.0,0.0,0.0,0.0,0.0,0.0,0.0,0.0,0.0,0.0,0.0,0.0,0.0,0.0,0.0,0.0,0.0,0.0,0.0,0.0,0.0,0.0,0.0,0.0,0.1881,0.0,0.0,0.0,0.0,0.0,0.0,0.0,0.0,0.0,0.0,0.0,0.0,0.0,0.0,0.0,0.0,0.0,0.0,0.0,0.0,0.0,0.0,0.2206,0.2212,0.2817,0.3405,0.403,0.4153,0.4317,0.4592,0.4726,0.4625,0.425,0.0,0.0,0.0,0.0,0.0,0.0,0.0,0.0,0.0,0.0,0.0,0.0,0.0,0.0,0.0,0.0,0.0,0.0,0.0,0.0,0.0,0.0,0.0,0.0,0.0,0.0,-0.042,-0.0759,-0.0974,0.0,0.0,0.0,0.0,0.0,0.0,0.0,0.0,0.0,0.0,-0.3501,-0.3605,-0.361,-0.3613,-0.3613,-0.3613,-0.3613,-0.3591,-0.3613,-0.3485,-0.3324,0.0,0.0,0.0,0.0,0.0,0.0,0.0,0.0,0.0,0.0,0.0,0.0,0.0,0.0,0.0,0.0,0.0,0.0,0.0,0.0,0.0,0.0,0.0,0.0,0.0,0.0,0.0,0.1853,0.1882,0.0,0.0,0.0,0.0,0.0,0.0,0.0,0.0,0.0,0.0,0.0,0.2896,0.2896,0.0,0.0,0.0,0.0,0.0,0.0,0.0,0.0,0.0,0.0,0.0,0.0,0.1863,0.2376,0.2546,0.3113,0.4095,0.3932,0.3967,0.4246,0.4132,0.3839,0.338,0.0,0.0,0.0,0.0,0.0,0.0,0.0,0.0,0.0,0.0,0.0,0.0,0.0,0.0,0.0,0.0,0.0,0.0,0.0,0.0,0.0,0.0,0.0,0.0,0.0,0.0297,0.0,0.0,0.0,0.0,0.0,0.0,0.0,0.0,0.0,0.0,0.0,-0.3433,-0.3512,-0.3558,-0.3613,-0.3613,-0.3613,-0.3613,0.0,0.0,0.0,0.0,0.0,0.0,0.0,0.0,0.0,0.0,0.0,0.0,0.0,0.0,-0.3679,-0.355,-0.3523,-0.352,-0.355,0.0,0.0,0.0,0.0,0.0,0.0,0.0,0.0,0.0,0.0,0.0,0.0,0.0,0.0,0.2348,0.0,0.2197,0.0,0.0,0.0,0.0,0.0,0.0,0.0,0.0,0.3299,0.3272,0.3012,0.3141,0.3075,0.0,0.3193,0.3031,0.0,0.0,0.0,0.0,0.0,0.0,0.0,0.0,0.1718,0.2201,0.2208,0.268,0.3619,0.3403,0.3455,0.3767,0.3697,0.3417,0.2916,0.3062,0.2925,0.0,0.0,0.0,0.0,0.0,0.0,0.0,0.0,0.0,0.0,0.0,0.0,0.0,0.0,0.0,0.0,0.0,0.0,0.0,0.0,0.0,0.0,0.0,0.0676,0.0,0.0,0.0,0.0,0.0,0.0,0.0,0.0,0.0,-0.3156,-0.3251,-0.325,-0.335,-0.336,-0.3357,-0.336,0.0,0.0,0.0,0.0,0.0,0.0,0.0,-0.3031,-0.3064,-0.3075,-0.3146,-0.3427,-0.3547,-0.3547,-0.3488,0.0,0.0,-0.3703,-0.3705,-0.3708,-0.3705,-0.3705,-0.3708,-0.3679,-0.3705,-0.368,0.0,0.0,0.0,0.0,0.0,0.0,0.0,0.0,0.3402,0.3184,0.0,0.234,0.0,0.0,0.0,0.0,0.0,0.3808,0.0,0.0,0.3996,0.3835,0.3092,0.3466,0.3614,0.3515,0.3569,0.3631,0.3691,0.3493,0.0,0.0,0.0,0.0,0.0,0.0,0.1768,0.1715,0.1767,0.2102,0.2681,0.2681,0.2839,0.3149,0.3404,0.3331,0.2957,0.3331,0.3363,0.2926,0.2949,0.0,0.0,0.0,0.0,0.0,0.0,0.0,0.0,0.0,0.0,0.0,0.0,0.0,0.0,0.0,0.0,0.0,0.0,0.0,0.0,0.0973,0.0,0.0,0.0,0.0,0.0,0.0,0.0,0.0,0.0,0.0,-0.2756,-0.2833,-0.2891,-0.2889,0.0,0.0,0.0,0.0,-0.2891,-0.2919,-0.2705,-0.2611,-0.2611,-0.2431,-0.2371,-0.2584,0.0,0.0,-0.297,-0.3032,-0.3073,-0.3158,-0.3228,-0.3333,-0.3763,-0.3839,-0.3864,-0.3864,-0.3859,-0.3872,-0.3872,-0.382,-0.3792,0.6431,0.0,0.0,0.0,0.0,0.4982,0.4776,0.4384,0.4316,0.3934,0.3372,0.3289,0.0,0.0,0.0,0.0,0.0,0.0,0.4092,0.4182,0.4356,0.4189,0.3734,0.432,0.43,0.3763,0.4607,0.4786,0.4441,0.4636,0.4235,0.3247,0.0,0.0,0.0,0.0,0.1789,0.1773,0.1789,0.2102,0.2681,0.2266,0.2196,0.2545,0.2589,0.2695,0.2893,0.3023,0.3064,0.297,0.2987,0.0,0.0,0.0,0.0,0.0,0.0,0.0,0.0,0.0,0.0,0.0,0.0,0.0,0.0,0.0,0.0,0.0,0.0,0.0,0.091,0.1014,0.0916,0.0,0.0,0.0,0.0,0.0,0.0,0.0,0.0,0.0,-0.16,-0.2109,-0.2465,0.0,0.0,-0.2465,-0.2465,-0.2617,-0.2676,-0.2676,-0.2523,0.0,-0.2588,-0.2344,-0.2296,-0.2691,-0.2992,-0.3143,-0.3076,-0.3177,-0.3246,-0.3139,-0.316,-0.3246,-0.3368,-0.3484,-0.3551,-0.3541,-0.3538,-0.3538,-0.3538,-0.3538,-0.3532,0.7645,0.6748,0.6101,0.5752,0.5644,0.5748,0.5316,0.4491,0.4418,0.4113,0.376,0.3561,0.3494,0.3487,0.3929,0.0,0.0,0.0,0.4365,0.4403,0.4592,0.4321,0.3705,0.4232,0.4359,0.4217,0.48,0.5211,0.5373,0.5573,0.5277,0.4486,0.0,0.0,0.3009,0.2447,0.2143,0.2119,0.1924,0.1964,0.2322,0.1965,0.1848,0.2021,0.2134,0.2333,0.2581,0.2776,0.2887,0.293,0.2971,0.2997,0.0,0.0,0.0,0.0,0.0,0.0,0.0,0.0,0.0,0.0,0.0,0.2028,0.1735,0.0,0.0,0.0,0.1176,0.1076,0.0977,0.1043,0.0,0.0,0.0,0.0,0.0,0.0,0.0,-0.0424,-0.0637,-0.0778,-0.0777,-0.1202,-0.1605,-0.1816,-0.182,-0.182,-0.182,0.0,-0.192,-0.2008,-0.1831,-0.1789,-0.198,-0.1852,-0.1862,-0.2251,-0.2661,-0.2893,-0.2792,-0.2861,-0.2863,-0.2787,-0.279,-0.279,-0.2824,-0.2875,-0.3033,-0.3255,-0.3319,-0.3319,-0.3319,-0.3319,-0.329,0.8564,0.8326,0.7996,0.723,0.6227,0.6527,0.5847,0.4518,0.4125,0.409,0.4233,0.3527,0.3571,0.4272,0.4472,0.0,0.4566,0.4679,0.4577,0.4313,0.4753,0.4325,0.3222,0.3556,0.4037,0.459,0.4553,0.5145,0.6291,0.6278,0.6131,0.5921,0.4825,0.4028,0.3521,0.2991,0.266,0.2527,0.2052,0.1829,0.1852,0.1797,0.1761,0.1668,0.202,0.2205,0.217,0.2546,0.2794,0.2817,0.2906,0.2879,0.2728,0.0,0.0,0.0,0.0,0.0,0.0,0.0,0.0,0.0,0.0,0.0,0.0,0.0,0.0,0.0,0.1294,0.0,0.1124,0.1158,0.0,0.0,0.0,0.0478,0.0342,0.0,-0.0238,-0.0204,0.0,0.0,-0.0237,-0.0237,-0.0444,-0.0943,-0.1014,-0.1048,-0.1047,-0.092,-0.0848,-0.1072,-0.0887,-0.0873,-0.1136,-0.117,-0.1271,-0.1542,-0.1849,-0.2123,-0.2089,-0.2122,-0.212,-0.2089,-0.2119,-0.2119,-0.2085,-0.2115,-0.2288,-0.2848,-0.305,-0.3086,-0.308,-0.3078,-0.3016,0.9257,0.8803,0.8768,0.8056,0.7014,0.7208,0.6592,0.5502,0.5409,0.5297,0.5107,0.4805,0.4714,0.4815,0.4874,0.4934,0.5018,0.5048,0.5087,0.5113,0.4816,0.435,0.374,0.3891,0.3922,0.3878,0.4854,0.5548,0.5899,0.634,0.6473,0.6222,0.5337,0.4526,0.3808,0.3207,0.2637,0.2069,0.194,0.1953,0.2102,0.2336,0.2395,0.222,0.2295,0.2417,0.2539,0.2555,0.2691,0.2951,0.2823,0.275,0.2711,0.2774,0.0,0.0,0.0,0.0,0.0,0.0,0.0,0.0,0.0,0.2833,0.2177,0.0,0.2004,0.0,0.129,0.129,0.148,0.1479,0.0,0.0,0.0873,0.0721,0.0531,0.041,0.0443,0.0811,0.0797,0.0644,0.0358,0.0322,0.0178,-0.0211,-0.0482,-0.0612,-0.051,-0.0541,-0.0573,-0.061,-0.0507,-0.0571,-0.1008,-0.1109,-0.1109,-0.121,-0.1311,-0.1378,-0.1378,-0.1344,-0.1344,-0.1344,-0.1344,-0.1344,-0.1378,-0.1378,-0.1412,-0.1613,-0.2051,-0.2423,-0.2456,-0.2421,-0.2401,0.9494,0.8863,0.894,0.8179,0.6811,0.6661,0.6079,0.5212,0.502,0.5024,0.5221,0.5373,0.5336,0.5181,0.523,0.5246,0.5347,0.5349,0.5388,0.5402,0.492,0.4431,0.3895,0.3752,0.3683,0.3679,0.4373,0.4908,0.5265,0.5571,0.5675,0.5549,0.5032,0.4399,0.3649,0.317,0.2745,0.234,0.2072,0.1952,0.209,0.2342,0.2431,0.2328,0.2427,0.2589,0.2766,0.2679,0.2759,0.298,0.2986,0.2946,0.2891,0.2951,0.2959,0.0,0.0,0.0,0.0,0.0,0.0,0.0,0.0,0.0,0.0,0.0,0.2196,0.1596,0.1522,0.156,0.1674,0.1674,0.1522,0.1065,0.0941,0.0823,0.071,0.0585,0.0684,0.1187,0.1207,0.1056,0.0703,0.0633,0.049,0.0069,-0.017,-0.0203,-0.0068,0.0034,0.0034,-0.0102,-0.0068,-0.0235,-0.074,-0.0841,-0.0841,-0.0841,-0.0841,-0.0841,-0.0841,-0.0841,-0.0841,-0.0841,-0.0841,-0.0841,-0.0841,-0.0841,-0.0841,-0.0875,-0.1144,-0.1482,-0.1681,-0.1715,-0.1673,0.962,0.8745,0.8892,0.7935,0.6179,0.5691,0.5149,0.461,0.4135,0.4356,0.5119,0.5573,0.5638,0.549,0.5505,0.5553,0.5553,0.5553,0.5502,0.5399,0.4954,0.4422,0.3854,0.3348,0.3301,0.3612,0.358,0.3878,0.4575,0.4593,0.4541,0.4522,0.4389,0.3979,0.3326,0.2977,0.2849,0.2847,0.2292,0.1994,0.2052,0.222,0.2338,0.2307,0.2558,0.2774,0.2933,0.2871,0.2908,0.3006,0.3187,0.3202,0.3089,0.3171,0.3215,0.0,0.3177,0.0,0.0,0.0,0.0,0.0,0.0,0.0,0.0,0.2579,0.2299,0.1845,0.1804,0.1842,0.1841,0.1837,0.1686,0.1317,0.1073,0.0951,0.0915,0.0722,0.0811,0.1352,0.1416,0.1277,0.0943,0.084,0.0639,0.0236,0.0135,0.0204,0.038,0.0581,0.0543,0.0382,0.0308,0.0034,-0.0303,-0.0405,-0.0371,-0.0405,-0.0405,-0.0405,-0.0438,-0.0438,-0.0438,-0.0438,-0.0438,-0.0438,-0.0438,-0.0438,-0.0438,-0.0438,-0.0472,-0.0606,-0.0942,-0.1042,-0.1008,0.9938,0.8784,0.8814,0.7885,0.6352,0.5805,0.549,0.5278,0.5147,0.5334,0.5735,0.5823,0.5844,0.5803,0.5825,0.5836,0.5836,0.5836,0.556,0.5068,0.4546,0.4062,0.3557,0.3033,0.2807,0.2865,0.3449,0.3801,0.3958,0.4601,0.4809,0.4641,0.4101,0.3683,0.3359,0.0,0.0,0.0,0.2481,0.2535,0.2784,0.2981,0.3004,0.286,0.3128,0.0,0.3157,0.3125,0.312,0.3074,0.3077,0.0,0.0,0.0,0.0,0.0,0.0,0.0,0.0,0.0,0.0,0.0,0.3596,0.3455,0.2999,0.2542,0.214,0.19,0.19,0.1937,0.2127,0.2055,0.1955,0.1728,0.1433,0.1375,0.1518,0.1307,0.1391,0.1948,0.2048,0.1816,0.1311,0.1109,0.0941,0.0672,0.0639,0.0775,0.105,0.071,0.0506,0.0643,0.0371,0.0135,0.0135,0.0169,0.0101,0.0135,0.0135,0.0067,-0.0067,0.0,0.0,0.0,-0.0101,0.0,0.0,-0.0101,0.0,0.0,-0.0101,-0.0202,-0.0539,-0.064,-0.0606,1.0158,0.0,0.8775,0.7879,0.0,0.6137,0.5956,0.5898,0.5596,0.5633,0.5996,0.6056,0.6051,0.5994,0.5994,0.5961,0.5901,0.5901,0.5564,0.4964,0.4469,0.3987,0.3516,0.3007,0.2704,0.2688,0.3055,0.3241,0.3283,0.3647,0.376,0.3675,0.325,0.2987,0.284,0.2451,0.2319,0.2389,0.2487,0.2594,0.271,0.309,0.3206,0.3054,0.3189,0.0,0.0,0.0,0.0,0.0,0.0,0.0,0.0,0.3304,0.0,0.32,0.3329,0.3397,0.336,0.3469,0.3578,0.3693,0.3736,0.3608,0.3185,0.2669,0.2343,0.2279,0.2222,0.2237,0.2352,0.2327,0.2149,0.1858,0.1667,0.1634,0.1645,0.1537,0.1649,0.2093,0.2208,0.1985,0.1512,0.1412,0.1244,0.1008,0.0941,0.1076,0.1344,0.1178,0.101,0.1042,0.0807,0.0572,0.064,0.0505,0.0404,0.0404,0.0269,0.0135,0.0034,0.0,0.0,0.0,0.0,0.0,0.0,0.0,0.0,0.0,0.0101,0.0067,-0.0202,-0.0236,-0.0236,1.0109,0.8775,0.8623,0.773,0.6387,0.6387,0.6387,0.6381,0.0,0.0,0.0,0.6273,0.6262,0.6121,0.6119,0.6051,0.5937,0.5842,0.5494,0.4835,0.4387,0.3907,0.3408,0.3017,0.2767,0.2709,0.2698,0.2694,0.2689,0.2621,0.2591,0.259,0.2491,0.2374,0.2324,0.2291,0.2261,0.2338,0.2461,0.2525,0.2495,0.294,0.3105,0.2963,0.3056,0.3172,0.3277,0.3194,0.3112,0.306,0.3386,0.3508,0.3348,0.3355,0.3315,0.3283,0.3291,0.3331,0.3362,0.3531,0.3683,0.3798,0.3802,0.3655,0.3356,0.2871,0.2646,0.2708,0.2599,0.251,0.251,0.2499,0.2317,0.1923,0.184,0.1792,0.1711,0.1673,0.1819,0.2119,0.2189,0.2052,0.1715,0.1614,0.1547,0.1311,0.1244,0.1311,0.1614,0.1614,0.1446,0.1244,0.1076,0.1076,0.1076,0.0873,0.0638,0.0672,0.0438,0.0236,0.0202,0.0202,0.0168,0.0,0.0,0.0,0.0,0.0,0.0,0.0067,0.0168,0.0236,0.0168,0.0067,0.0,0.962,0.8775,0.8074,0.7232,0.6387,0.6387,0.6387,0.6384,0.6318,0.63,0.6292,0.6311,0.6306,0.6292,0.6244,0.6224,0.6064,0.5635,0.5062,0.4389,0.39,0.3449,0.2995,0.2906,0.283,0.2813,0.2718,0.2694,0.2681,0.258,0.2548,0.2589,0.2533,0.2491,0.248,0.2417,0.2536,0.2843,0.2459,0.2421,0.2718,0.2711,0.2604,0.2439,0.293,0.3069,0.2824,0.3357,0.355,0.3267,0.3357,0.3376,0.3247,0.3373,0.3403,0.3266,0.36,0.3728,0.359,0.3699,0.3787,0.3802,0.3802,0.3717,0.3472,0.3171,0.2978,0.281,0.2621,0.251,0.2507,0.2466,0.2342,0.2248,0.2081,0.199,0.2082,0.1962,0.1921,0.2158,0.2188,0.2119,0.1884,0.1748,0.1681,0.1715,0.1614,0.1681,0.1918,0.1816,0.1479,0.121,0.1109,0.1143,0.1277,0.1244,0.1143,0.1176,0.1109,0.0975,0.0874,0.084,0.074,0.0504,0.0437,0.0336,0.0,0.0,0.0,0.037,0.0303,0.0236,0.0538,0.0303,0.0,0.9521,0.8726,0.7928,0.7132,0.6387,0.6387,0.6387,0.6387,0.6387,0.6357,0.6363,0.6358,0.6358,0.6361,0.6361,0.626,0.6086,0.5613,0.503,0.4306,0.3808,0.3365,0.2918,0.292,0.286,0.2831,0.2805,0.279,0.2783,0.27,0.2657,0.2682,0.2689,0.2734,0.2758,0.2812,0.299,0.3254,0.304,0.2963,0.3018,0.3177,0.3038,0.2653,0.2732,0.2801,0.2805,0.3017,0.3153,0.3184,0.3212,0.3175,0.32,0.3182,0.3218,0.3289,0.3437,0.354,0.3584,0.3712,0.3802,0.3802,0.3802,0.3763,0.3682,0.3295,0.3044,0.2894,0.2646,0.251,0.251,0.2446,0.2446,0.235,0.2281,0.2243,0.2226,0.215,0.2099,0.2166,0.2207,0.2154,0.2085,0.1985,0.1951,0.2052,0.1951,0.1985,0.2188,0.2052,0.1884,0.1748,0.1715,0.1715,0.1748,0.158,0.1479,0.1479,0.1311,0.1176,0.1109,0.1109,0.1041,0.0873,0.0806,0.0773,0.0572,0.0,0.0673,0.074,0.0807,0.0807,0.0773,0.0505,0.0236,0.9274,0.8474,0.768,0.6983,0.6437,0.6387,0.6387,0.6387,0.6387,0.6387,0.6387,0.6387,0.6337,0.6237,0.6337,0.6224,0.5905,0.5458,0.4935,0.4326,0.3774,0.3275,0.3001,0.2946,0.2938,0.2933,0.2913,0.2861,0.2908,0.2798,0.2781,0.2719,0.2893,0.3035,0.3034,0.3283,0.3492,0.3696,0.3756,0.3596,0.3293,0.3504,0.3341,0.2902,0.2561,0.2546,0.2776,0.2791,0.29,0.3131,0.3059,0.3088,0.3203,0.3018,0.304,0.3327,0.3306,0.338,0.3612,0.3722,0.3802,0.3802,0.3802,0.3763,0.3684,0.3335,0.308,0.2993,0.2721,0.251,0.251,0.2508,0.2486,0.2429,0.242,0.2388,0.2303,0.2257,0.2229,0.2224,0.2211,0.221,0.2207,0.2196,0.2188,0.2188,0.2188,0.2188,0.2188,0.2188,0.2188,0.2188,0.2188,0.2153,0.2188,0.1951,0.1782,0.1748,0.1547,0.1445,0.1412,0.1378,0.1277,0.1277,0.121,0.1143,0.1109,0.1076,0.1109,0.1176,0.1176,0.1109,0.084,0.074,0.0506,0.8425,0.763,0.6883,0.6487,0.6387,0.6387,0.6387,0.6387,0.6387,0.6387,0.6387,0.6387,0.6137,0.5784,0.6134,0.6069,0.5521,0.503,0.4678,0.4452,0.36,0.3127,0.3069,0.3022,0.2997,0.2982,0.2893,0.283,0.2861,0.2755,0.2699,0.2776,0.3124,0.3273,0.3271,0.3747,0.4114,0.4322,0.4412,0.4196,0.3587,0.3176,0.2922,0.2834,0.2603,0.2505,0.2573,0.2981,0.3253,0.3331,0.3129,0.3079,0.3252,0.3047,0.3013,0.3293,0.3458,0.3616,0.3777,0.3798,0.3802,0.3802,0.3802,0.3724,0.3526,0.3255,0.31,0.3012,0.2702,0.251,0.251,0.251,0.2486,0.2399,0.2426,0.2359,0.2318,0.2295,0.2291,0.2291,0.2234,0.2201,0.219,0.2187,0.2189,0.2188,0.2188,0.2188,0.2188,0.2188,0.2188,0.2188,0.2188,0.2188,0.2188,0.2188,0.2085,0.2085,0.2085,0.2018,0.1985,0.1985,0.1985,0.1614,0.158,0.1479,0.1277,0.1109,0.1244,0.1479,0.1378,0.1109,0.0907,0.0908,0.0841,0.8326,0.7531,0.6734,0.6387,0.6387,0.6387,0.6387,0.6387,0.6387,0.6234,0.5937,0.5937,0.5784,0.5584,0.5536,0.5282,0.4999,0.4456,0.4168,0.4049,0.3428,0.3098,0.3094,0.3073,0.3041,0.3005,0.2953,0.2908,0.2849,0.2696,0.2655,0.2762,0.3318,0.3635,0.3689,0.4284,0.4671,0.4745,0.4786,0.4701,0.441,0.3803,0.3254,0.2859,0.2783,0.2796,0.2801,0.3089,0.3238,0.3278,0.3086,0.3059,0.3217,0.3052,0.3075,0.333,0.3499,0.3642,0.3681,0.3732,0.3802,0.3802,0.3802,0.3724,0.3526,0.3256,0.3061,0.2904,0.2668,0.251,0.251,0.251,0.25,0.2477,0.2473,0.2424,0.2443,0.2406,0.2347,0.2342,0.2267,0.221,0.2201,0.2192,0.2192,0.2188,0.2188,0.2188,0.2188,0.2188,0.2188,0.2188,0.2188,0.2188,0.2188,0.2188,0.2188,0.2188,0.2188,0.2188,0.2188,0.2188,0.2119,0.1985,0.1951,0.1884,0.1816,0.1748,0.1816,0.1884,0.1782,0.1513,0.1311,0.1244,0.1109,0.8676,0.7879,0.7033,0.6584,0.6387,0.6387,0.6387,0.6387,0.6387,0.6084,0.5584,0.5434,0.5286,0.5133,0.4885,0.4698,0.4496,0.4099,0.3922,0.3823,0.3338,0.3148,0.3146,0.3127,0.3052,0.301,0.3019,0.2942,0.2782,0.268,0.2649,0.2797,0.3454,0.3897,0.3974,0.4718,0.5071,0.4992,0.4993,0.5004,0.4841,0.4325,0.3706,0.3148,0.3012,0.2989,0.2989,0.3092,0.3159,0.3194,0.305,0.3054,0.3202,0.3105,0.3172,0.344,0.3552,0.3638,0.3623,0.3765,0.3802,0.3802,0.3802,0.3684,0.3411,0.3217,0.2982,0.2746,0.2588,0.251,0.251,0.251,0.251,0.251,0.251,0.251,0.2504,0.2467,0.2437,0.2414,0.2295,0.2217,0.2187,0.2181,0.2188,0.2188,0.2188,0.2188,0.2188,0.2188,0.2188,0.2188,0.2188,0.2188,0.2188,0.2188,0.2188,0.2188,0.2188,0.2188,0.2188,0.2188,0.2188,0.2085,0.2188,0.2188,0.2052,0.2119,0.2188,0.2154,0.2052,0.1849,0.158,0.1479,0.1311,0.9472,0.8627,0.7875,0.7083,0.6387,0.6387,0.6387,0.6387,0.6387,0.6087,0.5536,0.5085,0.4583,0.4133,0.4533,0.4483,0.4076,0.3972,0.3917,0.3909,0.3414,0.3219,0.3219,0.3114,0.3132,0.3108,0.3021,0.2957,0.2838,0.2719,0.2689,0.2778,0.3562,0.3977,0.4067,0.4947,0.5311,0.5044,0.5054,0.4986,0.4714,0.4434,0.4133,0.3808,0.3318,0.303,0.3027,0.3025,0.3058,0.3192,0.31,0.3064,0.3167,0.3138,0.3246,0.3542,0.3616,0.3663,0.3777,0.3798,0.3802,0.3802,0.3802,0.3608,0.3217,0.31,0.2904,0.2549,0.251,0.251,0.251,0.251,0.251,0.251,0.251,0.251,0.2507,0.2456,0.2477,0.2422,0.2318,0.2274,0.221,0.2189,0.2188,0.2188,0.2188,0.2188,0.2188,0.2188,0.2188,0.2188,0.2188,0.2188,0.2188,0.2188,0.2188,0.2188,0.2188,0.2188,0.2188,0.2188,0.2188,0.2188,0.2188,0.2188,0.2188,0.2188,0.2188,0.2188,0.2188,0.2018,0.1681,0.1614,0.1445,0.9221,0.8024,0.773,0.7132,0.6437,0.6387,0.6387,0.6387,0.6387,0.5884,0.5135,0.4885,0.4334,0.3482,0.3682,0.3681,0.3533,0.3482,0.3481,0.3481,0.3281,0.318,0.3177,0.3156,0.3125,0.3086,0.3094,0.3012,0.2935,0.2762,0.2734,0.2973,0.3767,0.42,0.4233,0.5106,0.5406,0.4975,0.5095,0.5012,0.4748,0.4632,0.4475,0.417,0.3796,0.355,0.3447,0.336,0.3295,0.3192,0.3159,0.3159,0.3196,0.3189,0.3252,0.352,0.3544,0.3609,0.3777,0.3802,0.3802,0.3802,0.3682,0.345,0.3141,0.2982,0.2785,0.2549,0.251,0.251,0.251,0.251,0.251,0.251,0.251,0.2495,0.2463,0.2414,0.2391,0.2335,0.2277,0.2244,0.2224,0.2188,0.2188,0.2188,0.2188,0.2192,0.2189,0.2188,0.2195,0.2189,0.2188,0.2188,0.2188,0.2188,0.2188,0.2188,0.2188,0.2188,0.2188,0.2188,0.2188,0.2188,0.2188,0.2188,0.2188,0.2188,0.2188,0.2188,0.2188,0.2052,0.1681,0.1614,0.1412,0.9616,0.8425,0.8077,0.7531,0.6783,0.6484,0.6387,0.6387,0.6387,0.5787,0.4935,0.4782,0.4182,0.3331,0.318,0.318,0.3228,0.3161,0.315,0.3152,0.3152,0.3161,0.3229,0.318,0.3158,0.3116,0.3125,0.3056,0.3001,0.2863,0.2798,0.2959,0.39,0.4297,0.4322,0.5186,0.5483,0.5141,0.5124,0.5068,0.4875,0.4799,0.4703,0.4528,0.4186,0.3895,0.365,0.3554,0.3436,0.3277,0.3271,0.3258,0.32,0.3254,0.334,0.3479,0.3491,0.3603,0.3775,0.3802,0.3763,0.3724,0.3565,0.3372,0.3061,0.3022,0.2863,0.2628,0.2628,0.2668,0.2549,0.251,0.251,0.251,0.251,0.2495,0.2455,0.2452,0.2425,0.2339,0.2283,0.2226,0.2222,0.2215,0.2217,0.2247,0.2247,0.2247,0.2247,0.2247,0.2213,0.2247,0.2254,0.2258,0.2229,0.2234,0.2221,0.2208,0.2204,0.2199,0.2201,0.2199,0.2197,0.2192,0.219,0.2189,0.2188,0.2189,0.219,0.2193,0.2188,0.2085,0.1816,0.1614,0.1452,1.0703,0.9817,0.9126,0.8276,0.7431,0.6686,0.6387,0.6387,0.6387,0.5787,0.4885,0.4782,0.4183,0.3381,0.318,0.3179,0.3162,0.3121,0.3103,0.3108,0.3105,0.3133,0.3229,0.318,0.318,0.3165,0.3109,0.3076,0.3027,0.2958,0.2928,0.3064,0.389,0.4293,0.4082,0.5142,0.5619,0.5365,0.5183,0.5128,0.5149,0.4912,0.4813,0.488,0.4505,0.4071,0.3582,0.3529,0.3438,0.3401,0.3389,0.3352,0.3252,0.3303,0.3399,0.3493,0.3575,0.3665,0.3785,0.3802,0.3724,0.3565,0.3487,0.3292,0.2981,0.3136,0.3096,0.2668,0.2785,0.2904,0.2549,0.251,0.251,0.251,0.251,0.2506,0.2499,0.2501,0.2482,0.2377,0.2319,0.2299,0.2295,0.2279,0.2272,0.2275,0.2276,0.2275,0.2305,0.2305,0.2288,0.2287,0.2268,0.2289,0.2275,0.2288,0.2256,0.2236,0.2229,0.2225,0.2203,0.2206,0.2246,0.2243,0.2246,0.2244,0.2247,0.2246,0.2202,0.2198,0.218,0.2115,0.1921,0.1723,0.1539,1.0757,0.992,0.9122,0.8326,0.7531,0.6734,0.6387,0.6387,0.6387,0.5784,0.4935,0.4782,0.4232,0.3381,0.318,0.3157,0.3118,0.3099,0.3113,0.3195,0.315,0.3209,0.3228,0.318,0.318,0.3168,0.3151,0.3125,0.3121,0.309,0.3014,0.3238,0.4049,0.4413,0.4269,0.5235,0.5653,0.5236,0.5285,0.5226,0.5038,0.5034,0.4978,0.4784,0.4627,0.4361,0.3948,0.3641,0.3458,0.341,0.3399,0.3322,0.3231,0.3313,0.3441,0.3493,0.3579,0.3667,0.3785,0.3802,0.3724,0.3526,0.3333,0.31,0.2824,0.2823,0.2744,0.251,0.2627,0.2627,0.2549,0.251,0.251,0.251,0.251,0.2495,0.25,0.2422,0.2348,0.233,0.231,0.2299,0.23,0.2303,0.2345,0.2345,0.2342,0.2342,0.2303,0.2347,0.2297,0.2297,0.2297,0.2352,0.2436,0.2445,0.2444,0.2357,0.2336,0.2241,0.2248,0.2252,0.2258,0.226,0.2263,0.2264,0.2266,0.2264,0.2255,0.2264,0.2236,0.2132,0.1992,0.1841,0.1686,1.09,1.0364,0.9571,0.8775,0.7978,0.7182,0.6786,0.6634,0.6287,0.5687,0.5135,0.4684,0.4033,0.3331,0.318,0.316,0.3125,0.3125,0.3145,0.3171,0.3152,0.3158,0.3176,0.318,0.318,0.3175,0.3141,0.3142,0.3225,0.3157,0.3222,0.3526,0.426,0.4676,0.46,0.5398,0.5668,0.54,0.5501,0.5463,0.5276,0.5294,0.5172,0.4953,0.4779,0.4506,0.4109,0.3766,0.3556,0.3503,0.3439,0.3375,0.3301,0.3373,0.349,0.3542,0.3626,0.3705,0.3795,0.3724,0.3567,0.3372,0.3139,0.2904,0.2746,0.2707,0.2784,0.2628,0.2862,0.2902,0.2746,0.2707,0.2746,0.2707,0.2668,0.261,0.2645,0.2613,0.2597,0.2637,0.2595,0.2589,0.2589,0.2588,0.2588,0.2589,0.2588,0.2588,0.2589,0.2594,0.2586,0.2585,0.264,0.2684,0.2634,0.2634,0.2595,0.2529,0.2464,0.2359,0.2269,0.2269,0.2272,0.2269,0.2271,0.2267,0.2268,0.2275,0.2275,0.2296,0.2345,0.2214,0.2093,0.2062,0.1943,1.1194,1.11,1.031,0.9521,0.8775,0.7978,0.7481,0.7135,0.6337,0.5884,0.5534,0.4732,0.3932,0.3432,0.3281,0.3176,0.3179,0.3173,0.3172,0.3215,0.3138,0.3137,0.3226,0.318,0.318,0.318,0.3225,0.3177,0.318,0.3167,0.3451,0.389,0.4409,0.4864,0.5136,0.5647,0.5847,0.5774,0.5831,0.5758,0.5638,0.5557,0.5394,0.5232,0.4862,0.4506,0.4151,0.39,0.3703,0.3578,0.3427,0.3356,0.3413,0.3471,0.3544,0.3616,0.371,0.3746,0.3724,0.3643,0.3411,0.3139,0.2982,0.2746,0.2668,0.2979,0.3136,0.2902,0.3256,0.3491,0.3141,0.3061,0.3061,0.31,0.2943,0.2898,0.3059,0.3052,0.2997,0.3042,0.3096,0.3057,0.3039,0.3002,0.3042,0.3044,0.3039,0.2994,0.2995,0.2947,0.3049,0.3042,0.294,0.2935,0.2879,0.2841,0.284,0.2789,0.2726,0.2627,0.2489,0.2486,0.2489,0.2446,0.2432,0.2388,0.2431,0.2523,0.2564,0.2609,0.2563,0.235,0.2391,0.2521,0.2487,1.1194,1.1096,1.0314,0.9871,0.9521,0.8627,0.818,0.8031,0.7587,0.6986,0.6587,0.5634,0.4784,0.4334,0.3533,0.318,0.318,0.318,0.318,0.3229,0.3217,0.3214,0.3228,0.318,0.318,0.318,0.318,0.318,0.318,0.318,0.3469,0.4002,0.4479,0.4922,0.5394,0.5758,0.599,0.6079,0.5877,0.5839,0.5798,0.5594,0.5265,0.4991,0.4826,0.4513,0.4118,0.3921,0.3647,0.3408,0.3306,0.3321,0.3451,0.3511,0.3564,0.36,0.371,0.3724,0.3604,0.3565,0.3331,0.2942,0.2982,0.2943,0.2746,0.302,0.3139,0.3061,0.3217,0.3256,0.3141,0.3141,0.3217,0.3333,0.3217,0.31,0.3139,0.31,0.31,0.31,0.3139,0.3139,0.3139,0.3139,0.3139,0.3139,0.3139,0.3178,0.3217,0.3178,0.3217,0.3139,0.3049,0.3093,0.3093,0.3093,0.3052,0.3044,0.2994,0.2984,0.2927,0.2887,0.2892,0.2934,0.2865,0.2811,0.2949,0.309,0.3078,0.3007,0.313,0.312,0.3295,0.3432,0.3346,1.1194,1.1145,1.0703,1.0261,0.9813,0.9167,0.8775,0.8432,0.7783,0.7484,0.7086,0.6134,0.5233,0.4582,0.3982,0.3531,0.323,0.318,0.318,0.318,0.3229,0.318,0.318,0.318,0.318,0.318,0.318,0.318,0.318,0.318,0.3618,0.4226,0.4577,0.4926,0.5403,0.602,0.6138,0.6044,0.615,0.6349,0.603,0.5865,0.5597,0.5271,0.5031,0.4676,0.4166,0.3802,0.3503,0.322,0.3195,0.3311,0.3383,0.3428,0.3533,0.3639,0.3816,0.388,0.3763,0.3684,0.3528,0.3255,0.3178,0.3022,0.2982,0.3139,0.3255,0.3294,0.3335,0.3374,0.3413,0.3374,0.3491,0.3684,0.3608,0.3491,0.3413,0.3413,0.3413,0.3413,0.3413,0.3413,0.3413,0.3413,0.3413,0.3413,0.345,0.3452,0.3454,0.3374,0.3413,0.3413,0.3491,0.3569,0.3608,0.3608,0.3569,0.3489,0.3528,0.3491,0.3335,0.3295,0.3175,0.3209,0.3253,0.3333,0.345,0.3528,0.3474,0.3536,0.3761,0.3841,0.388,0.4075,0.4036,1.1194,1.1194,1.1194,1.06,0.9805,0.9661,0.9385,0.8805,0.7816,0.7513,0.7513,0.6406,0.55,0.4529,0.4379,0.3934,0.3192,0.3199,0.3203,0.3207,0.3205,0.3203,0.3268,0.3189,0.3183,0.318,0.318,0.318,0.318,0.318,0.3701,0.4305,0.452,0.4962,0.555,0.6295,0.6312,0.6253,0.6783,0.6841,0.6433,0.6214,0.599,0.5605,0.5189,0.4753,0.4246,0.3822,0.3458,0.3059,0.3228,0.3341,0.3389,0.3377,0.3534,0.3814,0.399,0.4077,0.4038,0.3882,0.3802,0.3645,0.3335,0.318,0.3219,0.3411,0.3526,0.3526,0.3684,0.3804,0.3841,0.388,0.3919,0.4038,0.4077,0.3999,0.3882,0.3841,0.3802,0.3802,0.3802,0.3802,0.3841,0.3802,0.3802,0.3726,0.3686,0.3647,0.3686,0.3686,0.3804,0.396,0.4038,0.4155,0.4194,0.4194,0.4114,0.4073,0.4151,0.4075,0.3763,0.3645,0.3452,0.3413,0.3763,0.3839,0.3837,0.3876,0.3956,0.4114,0.4387,0.427,0.4114,0.4426,0.4504,1.1194,1.1194,1.0998,1.0752,1.0507,1.0113,0.9958,0.9886,0.9167,0.8802,0.8708,0.7639,0.6412,0.5331,0.4744,0.3857,0.3194,0.3252,0.3324,0.3365,0.332,0.3335,0.3338,0.3286,0.3236,0.3234,0.3232,0.323,0.323,0.3479,0.3525,0.4203,0.4593,0.4773,0.608,0.6418,0.6694,0.713,0.7263,0.7129,0.6831,0.6483,0.6156,0.5667,0.5139,0.4782,0.4575,0.439,0.4192,0.3897,0.3636,0.3602,0.3679,0.3822,0.3936,0.4066,0.4192,0.4192,0.396,0.3999,0.3882,0.3645,0.3645,0.3647,0.3647,0.3684,0.3724,0.3763,0.3921,0.4075,0.419,0.4268,0.4268,0.427,0.4194,0.4118,0.404,0.4038,0.3921,0.3841,0.3841,0.3841,0.3999,0.3921,0.3921,0.3999,0.396,0.3841,0.388,0.3999,0.4194,0.4428,0.4506,0.4584,0.4621,0.4621,0.4543,0.4501,0.4621,0.4659,0.4345,0.4229,0.4153,0.4231,0.4426,0.4423,0.4382,0.4657,0.4815,0.4935,0.4973,0.4896,0.4857,0.5012,0.4995,1.1157,1.1146,1.0997,1.0852,1.0676,1.0433,1.0289,1.0143,0.9568,0.9329,0.9126,0.8258,0.7289,0.627,0.5449,0.4627,0.3824,0.3416,0.3395,0.3427,0.3395,0.3398,0.3585,0.3676,0.3713,0.3429,0.3796,0.3934,0.4031,0.4481,0.5079,0.5484,0.5426,0.5978,0.6772,0.7079,0.7411,0.7578,0.7902,0.7752,0.7223,0.6962,0.6514,0.6002,0.5483,0.5184,0.4997,0.4864,0.4671,0.4427,0.4167,0.4004,0.3973,0.404,0.4157,0.4272,0.4426,0.4465,0.4311,0.4311,0.4309,0.4036,0.4073,0.3997,0.3958,0.3921,0.3882,0.3882,0.3999,0.4196,0.4345,0.4384,0.4384,0.4423,0.4387,0.4311,0.4157,0.4038,0.3921,0.3841,0.3882,0.3921,0.3921,0.4038,0.3999,0.4077,0.4501,0.4423,0.4268,0.4387,0.4659,0.4815,0.4932,0.4971,0.5049,0.5007,0.489,0.489,0.4968,0.501,0.4932,0.4893,0.4932,0.4932,0.4893,0.4971,0.4968,0.5323,0.5449,0.5368,0.5407,0.5524,0.5569,0.5461,0.5463,1.1233,1.1121,1.1097,1.0899,1.0616,1.0564,1.0425,1.0176,0.9496,0.9259,0.9094,0.8625,0.7843,0.7024,0.6466,0.5732,0.5071,0.4513,0.4339,0.3987,0.4308,0.4214,0.4236,0.4605,0.4851,0.4013,0.4659,0.5017,0.5238,0.5877,0.6126,0.6833,0.6986,0.6924,0.7428,0.8071,0.8301,0.8011,0.8472,0.8452,0.7763,0.7531,0.7121,0.6502,0.6097,0.5812,0.5591,0.5396,0.5173,0.4873,0.4829,0.4649,0.4416,0.4279,0.4302,0.4499,0.47,0.4726,0.4628,0.4701,0.4701,0.4701,0.4543,0.4426,0.4311,0.4194,0.4114,0.4077,0.4155,0.4311,0.4465,0.4543,0.454,0.4579,0.4698,0.4545,0.4272,0.4038,0.3958,0.3841,0.3997,0.4114,0.4233,0.4311,0.4233,0.4231,0.4696,0.4927,0.4774,0.4774,0.501,0.5204,0.5321,0.5479,0.5553,0.5595,0.5437,0.544,0.544,0.5482,0.5556,0.5705,0.5705,0.5356,0.5279,0.5398,0.5539,0.5761,0.58,0.574,0.5901,0.6162,0.6064,0.5891,0.5988,1.1485,1.1079,1.1033,1.0863,1.0581,1.0377,1.0314,1.0294,0.983,0.9572,0.9447,0.8983,0.8082,0.7299,0.7355,0.7107,0.6506,0.6132,0.5751,0.5376,0.5689,0.5855,0.5345,0.6065,0.6422,0.6406,0.6336,0.6146,0.6007,0.6226,0.6775,0.6481,0.6678,0.7126,0.7776,0.8124,0.8566,0.8698,0.8956,0.8745,0.8394,0.7987,0.7622,0.6987,0.6558,0.6275,0.6193,0.6114,0.5944,0.5599,0.5541,0.5394,0.5198,0.502,0.4933,0.4902,0.4999,0.5052,0.4912,0.4917,0.4865,0.474,0.476,0.4794,0.475,0.4592,0.4535,0.4518,0.4557,0.4667,0.4859,0.4857,0.4976,0.5051,0.5021,0.4865,0.4633,0.444,0.4196,0.3999,0.4194,0.4426,0.4543,0.4659,0.4698,0.4737,0.4971,0.5124,0.5046,0.5126,0.5359,0.5518,0.5673,0.5906,0.6103,0.6141,0.6103,0.607,0.6074,0.6155,0.6268,0.656,0.6479,0.6132,0.5967,0.6028,0.6142,0.628,0.641,0.6507,0.6655,0.6813,0.6676,0.6548,0.671,1.136,1.0963,1.0897,1.0828,1.0642,1.0543,1.0485,1.0476,1.0059,0.9861,0.9686,0.9275,0.8761,0.8185,0.7816,0.7605,0.7276,0.7103,0.6753,0.6513,0.6811,0.6856,0.6422,0.7339,0.7732,0.7965,0.8054,0.7723,0.7342,0.7856,0.7736,0.7829,0.7925,0.8276,0.8577,0.8829,0.8977,0.9353,0.929,0.915,0.8764,0.8366,0.7887,0.7496,0.6999,0.6713,0.6583,0.6384,0.6269,0.6088,0.603,0.5984,0.5889,0.5781,0.5636,0.5413,0.541,0.5467,0.541,0.5523,0.5528,0.5445,0.5393,0.5396,0.5393,0.5238,0.5076,0.4994,0.4978,0.4996,0.5137,0.5171,0.5238,0.5368,0.5419,0.526,0.4944,0.4825,0.4604,0.4337,0.4484,0.4716,0.489,0.5007,0.5201,0.5279,0.5365,0.5362,0.5321,0.5515,0.5789,0.5912,0.6109,0.6229,0.644,0.6546,0.6574,0.6571,0.6684,0.6766,0.6891,0.7098,0.7113,0.6903,0.6827,0.6869,0.6917,0.7081,0.7188,0.7226,0.7289,0.7289,0.7297,0.7289,0.7461,1.1142,1.0811,1.0844,1.0779,1.0676,1.0651,1.0631,1.0548,1.0218,0.9949,0.9831,0.9455,0.9205,0.8977,0.8596,0.81,0.7738,0.784,0.7773,0.7581,0.7907,0.7858,0.7753,0.8355,0.902,0.9197,0.9483,0.9546,0.8725,0.9002,0.9279,0.8939,0.9225,0.9327,0.913,0.9179,0.948,0.9529,0.9571,0.9437,0.9036,0.8582,0.8176,0.7995,0.7534,0.7241,0.7104,0.6833,0.664,0.6536,0.6498,0.6416,0.6425,0.6428,0.6243,0.599,0.5849,0.5946,0.599,0.606,0.5992,0.5947,0.606,0.6025,0.5975,0.585,0.575,0.5459,0.5261,0.5286,0.5349,0.5349,0.5447,0.5639,0.5767,0.5748,0.5346,0.5173,0.5149,0.5026,0.4973,0.5078,0.5323,0.5407,0.5562,0.5677,0.5764,0.5867,0.5864,0.6057,0.6257,0.6387,0.6511,0.6595,0.6748,0.686,0.6888,0.687,0.7102,0.7278,0.7405,0.7537,0.7581,0.7697,0.7915,0.7965,0.7936,0.7809,0.7808,0.7816,0.7814,0.7826,0.7852,0.7975,0.8165,1.111,1.0819,1.0975,1.0945,1.066,1.0542,1.0473,1.0399,1.0249,0.9916,0.9693,0.9524,0.9276,0.9071,0.9255,0.9465,0.968,0.9631,0.9309,0.8848,0.9471,0.9412,0.8972,0.9915,1.0127,1.0167,1.0281,0.9962,0.9476,0.9482,0.9315,0.9023,0.8935,0.8882,0.8965,0.9145,0.9232,0.9286,0.948,0.9543,0.934,0.9013,0.8808,0.854,0.8215,0.7894,0.7786,0.7486,0.7282,0.7084,0.6894,0.6659,0.6473,0.6428,0.6517,0.654,0.6415,0.6208,0.617,0.6206,0.6209,0.6257,0.62,0.6207,0.6283,0.6319,0.6182,0.5848,0.56,0.5499,0.5538,0.5507,0.5725,0.5922,0.6075,0.5988,0.5676,0.5673,0.5641,0.5644,0.5592,0.5739,0.5901,0.5945,0.5973,0.6097,0.6195,0.6256,0.6331,0.6486,0.6606,0.6713,0.6866,0.6952,0.7094,0.7198,0.7325,0.7251,0.7592,0.7886,0.8032,0.819,0.8352,0.8505,0.8747,0.8882,0.88,0.8645,0.8451,0.8471,0.8556,0.8551,0.8526,0.8674,0.8777,1.0758,1.0749,1.0824,1.0631,1.0333,1.0454,1.0409,1.023,1.0403,1.0393,1.0128,0.9813,0.9479,0.9281,0.9421,0.9768,1.0245,1.0347,1.0313,0.9944,1.0359,1.0414,1.0139,1.0414,1.0692,1.0672,1.0607,1.0427,1.0003,0.9623,0.9326,0.9024,0.8835,0.8788,0.879,0.903,0.9145,0.9286,0.9426,0.9592,0.9453,0.9316,0.9132,0.8902,0.8598,0.839,0.8264,0.8142,0.7949,0.7791,0.7653,0.75,0.7337,0.7204,0.7102,0.7139,0.6913,0.6757,0.6708,0.6645,0.6632,0.6642,0.6642,0.6744,0.6774,0.6754,0.6616,0.621,0.599,0.5857,0.5795,0.5762,0.6062,0.628,0.6405,0.6327,0.6229,0.6223,0.6204,0.6203,0.6204,0.6315,0.6401,0.637,0.6374,0.6452,0.6534,0.6556,0.6623,0.6753,0.6858,0.6946,0.7109,0.7266,0.7431,0.7589,0.7849,0.7935,0.83,0.8562,0.8663,0.885,0.9018,0.9151,0.9279,0.9367,0.9522,0.9386,0.9108,0.921,0.9326,0.9186,0.9047,0.9044,0.9222,1.0469,1.0631,1.0676,1.0502,1.0166,1.0383,1.0343,1.0176,1.0335,1.0462,1.0362,0.9947,0.9592,0.9435,0.9464,0.9708,1.0182,1.0307,1.0471,1.0623,1.0692,1.0692,1.0582,1.0692,1.0692,1.0692,1.068,1.0562,1.0277,0.9931,0.957,0.9296,0.9107,0.8892,0.886,0.9097,0.9303,0.9331,0.9529,0.9571,0.9592,0.9494,0.9348,0.9176,0.8981,0.8773,0.8679,0.8473,0.8462,0.8385,0.8165,0.7943,0.7929,0.7674,0.7554,0.7544,0.7386,0.7254,0.7149,0.7102,0.7139,0.7095,0.7095,0.7011,0.7068,0.7088,0.6967,0.656,0.6201,0.6084,0.6094,0.6043,0.6232,0.654,0.6764,0.6724,0.6671,0.6612,0.6568,0.6552,0.6599,0.6819,0.6842,0.6812,0.6817,0.682,0.6871,0.6909,0.7016,0.7122,0.7324,0.7496,0.7667,0.7857,0.7955,0.8156,0.8346,0.8588,0.8965,0.9152,0.915,0.9424,0.9691,0.9757,0.977,0.9943,1.01,0.9904,0.9762,0.9809,0.9836,0.9676,0.9584,0.9607,0.9689,1.0286,1.0415,1.0623,1.0664,1.0518,1.0065,1.0095,1.0178,1.0022,1.0028,1.0074,0.9629,0.9485,0.9406,0.9383,0.9529,0.9845,1.0126,1.0387,1.0599,1.0692,1.0692,1.0692,1.0692,1.0692,1.0692,1.0688,1.0599,1.0427,1.0202,0.99,0.9739,0.9405,0.9172,0.9083,0.9273,0.9477,0.954,0.9591,0.9624,0.9624,0.9596,0.9538,0.9502,0.9389,0.9332,0.928,0.893,0.8773,0.8722,0.849,0.8314,0.8303,0.8072,0.7949,0.7856,0.7805,0.7664,0.751,0.7279,0.7139,0.7095,0.7095,0.7095,0.7095,0.7095,0.7007,0.676,0.6334,0.6268,0.6309,0.6398,0.6344,0.6681,0.6883,0.687,0.6856,0.6822,0.6778,0.6845,0.6943,0.7184,0.7365,0.7335,0.7235,0.7234,0.7296,0.7331,0.7571,0.77,0.7959,0.8189,0.8355,0.8497,0.8628,0.8735,0.8874,0.9083,0.9449,0.9516,0.9536,0.9862,1.0307,1.0196,1.0196,1.0423,1.0598,1.0403,1.0292,1.0298,1.0289,1.025,1.0381,1.0511,1.0554,1.0318,1.0391,1.0509,1.0307,0.9899,1.0027,0.9865,0.9614,0.9888,1.0143,1.0151,0.9783,0.9486,0.9356,0.9314,0.9444,0.9719,1.0022,1.0366,1.059,1.0692,1.0692,1.0692,1.0692,1.0692,1.0692,1.0688,1.0676,1.0552,1.0407,1.0454,1.0192,0.9765,0.9474,0.9414,0.9434,0.9564,0.967,0.9677,0.9628,0.9624,0.9624,0.9624,0.9612,0.9587,0.9527,0.9466,0.936,0.928,0.9168,0.8985,0.8867,0.8765,0.8528,0.8367,0.8241,0.8136,0.7957,0.7757,0.7514,0.7279,0.7139,0.7095,0.7095,0.7095,0.7095,0.6914,0.66,0.6334,0.6293,0.6301,0.6236,0.6289,0.6738,0.6944,0.6983,0.7013,0.7013,0.7098,0.7177,0.7309,0.7501,0.7694,0.7839,0.7769,0.7662,0.7737,0.7826,0.8073,0.8222,0.8472,0.8677,0.8831,0.9008,0.9108,0.9219,0.9353,0.9639,0.9923,1.0005,1.0128,1.0567,1.0902,1.0737,1.0636,1.0826,1.0901,1.0852,1.0809,1.0814,1.0857,1.0895,1.1117,1.137,1.1413,1.0387,1.0432,1.0383,1.0182,0.9876,1.0097,0.9857,0.9522,0.9915,1.0323,1.0363,1.0084,0.9815,0.9565,0.9538,0.9659,0.9912,1.0162,1.0411,1.059,1.0692,1.0692,1.0692,1.0692,1.0692,1.0692,1.0692,1.0684,1.0672,1.0688,1.0664,1.0478,1.015,0.9912,0.9747,0.9642,0.967,0.9744,0.9705,0.9628,0.9624,0.9624,0.9624,0.9624,0.9612,0.9612,0.9604,0.953,0.9538,0.9482,0.9441,0.9356,0.9239,0.9052,0.8807,0.8616,0.8443,0.8287,0.8099,0.772,0.7425,0.7279,0.7139,0.7139,0.7095,0.7095,0.695,0.6738,0.6434,0.627,0.6388,0.6444,0.6482,0.688,0.7028,0.7054,0.719,0.7234,0.7415,0.7544,0.7676,0.776,0.8013,0.8201,0.8316,0.8243,0.8316,0.8407,0.862,0.8768,0.8857,0.902,0.9201,0.9368,0.9566,0.9666,0.9845,1.0106,1.0399,1.0664,1.0859,1.1241,1.1451,1.1381,1.1338,1.1284,1.1375,1.1542,1.1419,1.1251,1.1419,1.1628,1.18,1.2063,1.2063,1.0282,1.0375,1.0383,1.0467,1.0514,1.017,1.0077,1.0008,1.0081,1.0287,1.0578,1.0366,1.0237,1.0116,0.995,0.9981,1.0109,1.0307,1.0513,1.0647,1.0692,1.0692,1.0692,1.0692,1.0692,1.0692,1.0692,1.0692,1.0692,1.0692,1.0692,1.0692,1.0514,1.0401,1.0257,0.9902,0.9678,0.961,0.9639,0.9661,0.9693,0.9689,0.9669,0.9669,0.9636,0.9628,0.9624,0.9624,0.9624,0.9596,0.9486,0.9461,0.938,0.9254,0.9102,0.9049,0.89,0.8746,0.8644,0.7934,0.7649,0.751,0.7363,0.7272,0.7183,0.7136,0.7109,0.6883,0.6681,0.6704,0.6764,0.682,0.6834,0.6974,0.7119,0.7275,0.7411,0.7499,0.7635,0.7768,0.7852,0.7984,0.8292,0.8552,0.8771,0.8834,0.8894,0.9008,0.9126,0.9191,0.9255,0.9479,0.9636,0.9798,1.0024,1.0159,1.0337,1.0603,1.0776,1.0949,1.1203,1.1451,1.1671,1.1886,1.1929,1.1849,1.2063,1.2314,1.2277,1.2235,1.2235,1.2406,1.2577,1.279,1.2875,1.0379,1.0383,1.0383,1.048,1.0617,1.0358,1.0031,0.9754,1.0027,1.0362,1.057,1.0417,1.0233,1.0089,1.0104,1.0092,1.0116,1.0335,1.0526,1.0676,1.0692,1.0692,1.0692,1.0692,1.0692,1.0692,1.0692,1.0692,1.0692,1.0692,1.0692,1.0692,1.0676,1.0641,1.0486,1.0265,1.0059,1.0059,0.9981,0.9847,0.9992,0.9864,0.9786,0.9778,0.9693,0.964,0.9628,0.9624,0.9624,0.9624,0.9522,0.9518,0.9518,0.9417,0.9376,0.9303,0.9173,0.9137,0.8929,0.8525,0.8114,0.7912,0.7705,0.762,0.7635,0.7459,0.7274,0.7074,0.6897,0.6807,0.6691,0.6691,0.6764,0.7227,0.7415,0.7544,0.768,0.7724,0.7856,0.7984,0.8113,0.8336,0.86,0.8947,0.9213,0.9345,0.9428,0.9388,0.9474,0.9522,0.9557,0.9904,1.0135,1.0279,1.0424,1.0516,1.0603,1.0781,1.0911,1.1041,1.1295,1.1671,1.1892,1.2155,1.2277,1.2406,1.2619,1.2833,1.3215,1.3343,1.3247,1.3315,1.3498,1.3721,1.3893,1.0415,1.0526,1.0521,1.055,1.0548,1.0385,1.0084,0.98,1.0128,1.0476,1.0637,1.0472,1.0366,1.0275,1.0243,1.0243,1.0239,1.0413,1.0546,1.0688,1.0692,1.0692,1.0692,1.0692,1.0692,1.0692,1.0692,1.0692,1.0692,1.0692,1.0692,1.068,1.0639,1.0536,1.0459,1.0379,1.0262,1.0213,1.0022,0.9953,1.0073,0.9994,0.988,0.9847,0.9782,0.9647,0.9648,0.9628,0.9624,0.9624,0.9624,0.9624,0.9624,0.9608,0.9563,0.9482,0.9437,0.9324,0.9063,0.9028,0.8687,0.8408,0.8211,0.8039,0.796,0.7782,0.7639,0.7377,0.714,0.709,0.7054,0.7,0.7172,0.7598,0.768,0.7768,0.79,0.7988,0.8092,0.822,0.8396,0.8656,0.8995,0.934,0.9694,0.982,0.9946,0.9907,0.9864,0.9907,0.9951,1.025,1.0511,1.0641,1.0733,1.0781,1.0868,1.1041,1.117,1.1305,1.1682,1.2057,1.224,1.2423,1.2711,1.2918,1.3094,1.3349,1.3724,1.403,1.4202,1.4258,1.4435,1.4514,1.4579,1.0526,1.0668,1.0672,1.0562,1.0387,1.0375,1.0362,1.0333,1.0342,1.0472,1.0692,1.068,1.0593,1.0621,1.0668,1.0601,1.0605,1.0664,1.0676,1.0688,1.0692,1.0692,1.0692,1.0692,1.0692,1.0692,1.0692,1.0692,1.0692,1.0692,1.0692,1.0664,1.0586,1.053,1.0469,1.0448,1.0347,1.0205,1.0123,1.0079,1.0167,1.0046,0.9985,0.9941,0.9872,0.9782,0.9713,0.9652,0.9632,0.9624,0.9624,0.9624,0.9624,0.9624,0.9624,0.962,0.9608,0.9421,0.9267,0.9272,0.9239,0.8945,0.8687,0.8409,0.8211,0.8197,0.8035,0.7964,0.7786,0.7801,0.7827,0.7771,0.7764,0.7875,0.79,0.8032,0.8164,0.8264,0.8376,0.8516,0.8657,0.8909,0.9437,0.9777,1.0168,1.0424,1.0549,1.0679,1.0593,1.0463,1.0511,1.0559,1.0819,1.0992,1.1041,1.1127,1.1343,1.1553,1.1645,1.1817,1.2155,1.2448,1.2668,1.293,1.3222,1.3476,1.3639,1.3935,1.4314,1.4558,1.4711,1.4788,1.4803,1.4831,1.4888,1.0391,1.0318,1.0367,1.0282,1.0245,1.0241,1.0314,1.0395,1.051,1.0637,1.0684,1.0562,1.0586,1.0676,1.0566,1.0607,1.0655,1.0692,1.0688,1.0692,1.0692,1.0692,1.0692,1.0692,1.0692,1.0692,1.0692,1.0692,1.0692,1.0692,1.0692,1.0672,1.0578,1.0517,1.0501,1.055,1.0367,1.0237,1.0168,1.018,1.0257,1.0184,1.0123,1.0054,1.0,0.986,0.9778,0.9673,0.964,0.9624,0.9575,0.9575,0.9624,0.9624,0.9624,0.9624,0.9616,0.9518,0.9502,0.9518,0.9506,0.9449,0.9247,0.9088,0.8898,0.8644,0.8517,0.844,0.8352,0.8276,0.82,0.8121,0.8127,0.8178,0.817,0.8267,0.8412,0.8585,0.869,0.8783,0.8924,0.9363,0.9844,1.0294,1.0641,1.0939,1.1192,1.1327,1.1327,1.1198,1.1154,1.1203,1.1251,1.1462,1.1553,1.1645,1.1897,1.2112,1.2155,1.2246,1.2583,1.2875,1.3094,1.3392,1.3688,1.3977,1.423,1.4482,1.4692,1.4873,1.5021,1.5063,1.5141,1.5191,1.5283,1.0262,1.022,1.0212,1.0171,1.0122,1.018,1.0197,1.0253,1.0408,1.0513,1.0574,1.0431,1.053,1.0664,1.0603,1.0603,1.0684,1.0692,1.0692,1.0692,1.0692,1.0692,1.0692,1.0692,1.0692,1.0692,1.0692,1.0692,1.0688,1.0692,1.0692,1.0676,1.0595,1.0493,1.0444,1.0416,1.0286,1.0197,1.0168,1.0225,1.0253,1.0266,1.0193,1.0155,1.0028,0.9992,0.9799,0.9673,0.964,0.96,0.9538,0.9563,0.9592,0.9624,0.9624,0.9624,0.9624,0.962,0.9592,0.96,0.962,0.9624,0.9624,0.9466,0.9328,0.9112,0.8969,0.8831,0.8726,0.8602,0.8501,0.8408,0.8432,0.8455,0.8516,0.8572,0.8706,0.8886,0.8992,0.9068,0.9376,0.9816,1.0256,1.0704,1.1198,1.1628,1.1929,1.21,1.2106,1.1935,1.1892,1.1935,1.1935,1.202,1.2069,1.2198,1.2406,1.2534,1.2491,1.2668,1.296,1.3222,1.3476,1.3773,1.4104,1.4398,1.4657,1.4783,1.4999,1.5138,1.5273,1.5374,1.5446,1.5503,1.5597,1.0184,1.0107,1.0175,1.0002,0.99,1.0026,1.0065,0.9896,1.0102,1.0233,1.0375,1.0334,1.0461,1.0586,1.0562,1.0603,1.0668,1.0692,1.0692,1.0692,1.0692,1.0692,1.0692,1.0692,1.0692,1.0692,1.0692,1.0692,1.0684,1.0655,1.0623,1.0655,1.0498,1.0343,1.0363,1.0387,1.0253,1.003,1.0119,1.0221,1.0164,1.0188,1.0103,0.9998,1.0057,1.0073,0.9758,0.9644,0.9624,0.9567,0.9575,0.9551,0.962,0.9629,0.9633,0.9624,0.9624,0.9624,0.9624,0.9624,0.9624,0.9624,0.9624,0.96,0.9457,0.9389,0.924,0.9188,0.908,0.8949,0.883,0.8704,0.8728,0.8714,0.8755,0.8939,0.9192,0.9467,0.9843,0.9953,1.0173,1.0553,1.0767,1.1261,1.172,1.2235,1.2577,1.2796,1.2839,1.2711,1.2577,1.2577,1.2491,1.2491,1.2668,1.2753,1.2875,1.296,1.296,1.3215,1.3682,1.3766,1.3808,1.4237,1.4657,1.4831,1.5006,1.5131,1.518,1.5285,1.5442,1.5622,1.5717,1.5827,1.5732,0.9876,0.9754,0.9758,0.9726,0.9693,0.9738,0.9738,0.9693,0.973,0.9937,1.016,1.0115,1.0217,1.0481,1.0404,1.0456,1.0664,1.0692,1.0692,1.0692,1.0692,1.0692,1.0692,1.0692,1.0692,1.0692,1.0692,1.0664,1.0619,1.0558,1.0505,1.0517,1.0428,1.0448,1.0298,1.0351,1.0314,0.9973,1.0168,1.0201,1.0071,1.0229,1.0294,1.0152,1.0167,1.0034,0.9823,0.9681,0.9648,0.9604,0.9788,0.9838,0.9916,0.9786,0.9653,0.9592,0.9624,0.9624,0.9624,0.9624,0.9624,0.9624,0.9624,0.9624,0.9604,0.9579,0.9543,0.9506,0.9421,0.9263,0.9175,0.9102,0.9037,0.9047,0.9078,0.9387,0.9693,1.0152,1.066,1.0888,1.106,1.1275,1.1425,1.1777,1.2232,1.2662,1.3009,1.3307,1.3519,1.3476,1.3215,1.313,1.3009,1.3009,1.3179,1.3349,1.347,1.3682,1.3802,1.4062,1.4363,1.4447,1.4489,1.4873,1.5257,1.5257,1.5222,1.5305,1.5403,1.5418,1.5577,1.5716,1.6001,1.6162,1.5913,0.9717,0.9571,0.9539,0.9555,0.9608,0.9543,0.9551,0.9616,0.9624,0.9734,0.9912,0.992,1.0087,1.0338,1.0327,1.0391,1.0651,1.0688,1.0692,1.0692,1.0692,1.0692,1.0692,1.0684,1.0692,1.0684,1.0595,1.0542,1.0485,1.0489,1.0399,1.0383,1.0517,1.0485,1.0298,1.0452,1.0404,1.005,1.0314,1.0286,1.0107,1.0294,1.0221,1.0071,1.0026,0.9977,0.9827,0.9669,0.9648,0.9628,0.9715,0.9734,0.973,0.9648,0.9633,0.9592,0.9624,0.9624,0.9624,0.9624,0.9624,0.9628,0.9624,0.9624,0.9624,0.96,0.9698,0.9665,0.9759,0.9623,0.972,0.972,0.9566,0.9533,0.987,1.0282,1.0505,1.0773,1.1231,1.1559,1.1698,1.1842,1.2037,1.2362,1.2826,1.3179,1.3525,1.3815,1.4026,1.4159,1.3893,1.3766,1.3646,1.373,1.3984,1.4068,1.4068,1.4314,1.4524,1.4524,1.4566,1.4957,1.5257,1.5384,1.5425,1.5389,1.5389,1.5496,1.5411,1.5403,1.5599,1.5774,1.6089,1.6389,1.625,0.9632,0.96,0.9462,0.9482,0.9546,0.9466,0.9486,0.9612,0.9628,0.9628,0.9619,0.9795,1.0063,1.0266,1.0375,1.0509,1.0595,1.0603,1.0635,1.0688,1.0692,1.0692,1.068,1.0664,1.0607,1.0538,1.0448,1.0331,1.0282,1.0257,1.0294,1.0306,1.0338,1.0396,1.0408,1.042,1.0335,1.0282,1.0375,1.037,1.042,1.0416,1.0156,1.0006,0.9941,0.9949,0.975,0.9628,0.9628,0.9604,0.9677,0.9795,0.9778,0.9786,0.9705,0.9706,0.9612,0.9596,0.9583,0.96,0.9616,0.9677,0.9628,0.9673,0.9673,0.9727,0.9826,0.9974,1.0068,1.0098,1.0141,1.0196,1.0096,1.0153,1.0577,1.1086,1.1257,1.1539,1.1942,1.2295,1.2484,1.2579,1.2777,1.3089,1.337,1.3721,1.4039,1.4328,1.4538,1.458,1.4489,1.4447,1.4447,1.4573,1.4699,1.4657,1.4573,1.4699,1.4866,1.4783,1.4817,1.5124,1.5384,1.552,1.5548,1.5577,1.5599,1.5665,1.5592,1.5462,1.5657,1.587,1.6148,1.6418,1.6617,0.9624,0.9624,0.9587,0.9596,0.9567,0.9583,0.9596,0.962,0.9624,0.9624,0.9636,0.9661,0.9807,0.9989,0.9989,1.0164,1.0501,1.0517,1.0599,1.0676,1.0688,1.0692,1.0672,1.0615,1.0416,1.031,1.0253,1.0253,1.0071,1.0026,1.0006,1.003,1.0193,1.0229,1.0249,1.0306,1.0362,1.0404,1.0465,1.0534,1.0355,1.0322,1.0298,1.0188,1.0167,0.9929,0.973,0.9636,0.9535,0.9562,0.9662,0.9922,1.0026,1.0012,0.9907,0.9831,0.9743,0.9637,0.9673,0.9678,0.9756,0.992,0.992,1.0019,1.0019,1.0019,1.0167,1.0408,1.044,1.0325,1.0399,1.0494,1.0475,1.0717,1.1067,1.1622,1.1961,1.2523,1.3011,1.3344,1.3614,1.3635,1.3707,1.3843,1.3815,1.4164,1.4419,1.4671,1.479,1.4873,1.4999,1.5048,1.5048,1.5082,1.5041,1.4999,1.4957,1.5131,1.5173,1.5082,1.5124,1.5257,1.544,1.552,1.5738,1.5833,1.5862,1.576,1.5782,1.5681,1.5804,1.5979,1.6243,1.6535,1.6762]}]]